[[{"header":{"parameterUnit":"m.s-1","parameterCategory":1,"la1":31.0,"la2":29.5877,"lo1":-88.7671,"lo2":-86.6584,"dy":0.0162,"dx":0.0185,"nx":115,"ny":88,"refTime":"2024-03-13T06:00:00:Z","depth":0,"parameterNumber":2,"parameterNumberName":"U-component_of_WINDS"},"data":[0.0,0.0,0.0,0.0,0.0,0.0,0.0,0.0,0.0,0.0,0.0,0.0,0.0,0.0,0.0,0.0,0.0,0.0,0.0,0.0,0.0,0.0,0.0,0.0,0.0,0.0,0.0,0.0,0.0,0.0,0.0,0.0,0.0,0.0,0.0,0.0,0.0,0.0,0.0,0.0,0.0,0.0,0.0,0.0,0.0,0.0,0.0,0.0,0.0,0.0,0.0,0.0,0.0,0.0,0.0,0.0,0.0,0.0,0.0,0.0,0.0,0.0,0.0,0.0,0.0,0.0,0.0,0.0,0.0,0.0,0.0,0.0,0.0,0.0,0.0,0.0,0.0,0.0,0.0,0.0,0.0,0.0,0.0,0.0,0.0,0.0,0.0,0.0,0.0,0.0,0.0,0.0,0.0,0.0,0.0,0.0,0.0,0.0,0.0,0.0,0.0,0.0,0.0,0.0,0.0,0.0,0.0,0.0,0.0,0.0,0.0,0.0,0.0,0.0,0.0,0.0,0.0,0.0,0.0,0.0,0.0,0.0,0.0,0.0,0.0,0.0,0.0,0.0,0.0,0.0,0.0,0.0,0.0,0.0,0.0,0.0,0.0,0.0,0.0,0.0,0.0,0.0,0.0,0.0,0.0,0.0,0.0,0.0,0.0,0.0,0.0,0.0,0.0,0.0,0.0,0.0,0.0,0.0,0.0,0.0,0.0,0.0,0.0,0.0,0.0,0.0,0.0,0.0,0.0,0.0,0.0,0.0,0.0,0.0,0.0,0.0,0.0,0.0,0.0,0.0,0.0,0.0,0.0,0.0,0.0,0.0,0.0,0.0,0.0,0.0,0.0,0.0,0.0,0.0,0.0,0.0,0.0,0.0,0.0,0.0,0.0,0.0,0.0,0.0,0.0,0.0,0.0,0.0,0.0,0.0,0.0,0.0,0.0,0.0,0.0,0.0,0.0,0.0,0.0,0.0,0.0,0.0,0.0,0.0,0.0,0.0,0.0,0.0,0.0,0.0,0.0,0.0,0.0,0.0,0.0,0.0,0.0,0.0,0.0,0.0,0.0,0.0,0.0,0.0,0.0,0.0,0.0,0.0,0.0,0.0,0.0,0.0,0.0,0.0,0.0,0.0,0.0,0.0,0.0,0.0,0.0,0.0,0.0,0.0,0.0,0.0,0.0,0.0,0.0,0.0,0.0,0.0,0.0,0.0,0.0,0.0,0.0,0.0,0.0,0.0,0.0,0.0,0.0,0.0,0.0,0.0,0.0,0.0,0.0,0.0,0.0,0.0,0.0,0.0,0.0,0.0,0.0,0.0,0.0,0.0,0.0,0.0,0.0,0.0,0.0,0.0,0.0,0.0,0.0,0.0,0.0,0.0,0.0,0.0,0.0,0.0,0.0,0.0,0.0,0.0,0.0,0.0,0.0,0.0,0.0,0.0,0.0,0.0,0.0,0.0,0.0,0.0,0.0,0.0,0.0,0.0,0.0,0.0,0.0,0.0,0.0,0.0,0.0,0.0,0.0,0.0,0.0,0.0,0.0,0.0,0.0,0.0,0.0,0.0,0.0,0.0,0.0,0.0,0.0,0.0,0.0,0.0,0.0,0.0,0.0,0.0,0.0,0.0,0.0,0.0,0.0,0.0,0.0,0.0,0.0,0.0,0.0,0.0,0.0,0.0,0.0,0.0,0.0,0.0,0.0,0.0,0.0,0.0,0.0,0.0,0.0,0.0,0.0,0.0,0.0,0.0,0.0,0.0,0.0,0.0,0.0,0.0,0.0,0.0,0.0,0.0,0.0,0.0,0.0,0.0,0.0,0.0,0.0,0.0,0.0,0.0,0.0,0.0,0.0,0.0,0.0,0.0,0.0,0.0,0.0,0.0,0.0,0.0,0.0,0.0,0.0,0.0,0.0,0.0,0.0,0.0,0.0,0.0,0.0,0.0,0.0,0.0,0.0,0.0,0.0,0.0,0.0,0.0,0.0,0.0,0.0,0.0,0.0,0.0,0.0,0.0,0.0,0.0,0.0,0.0,0.0,0.0,0.0,0.0,0.0,0.0,0.0,0.0,0.0,0.0,0.0,0.0,0.0,0.0,0.0,0.0,0.0,0.0,0.0,0.0,0.0,0.0,0.0,0.0,0.0,0.0,0.0,0.0,0.0,0.0,0.0,0.0,0.0,0.0,0.0,0.0,0.0,0.0,0.0,0.0,0.0,0.0,0.0,0.0,0.0,0.0,0.0,0.0,0.0,0.0,0.0,0.0,0.0,0.0,0.0,0.0,0.0,0.0,0.0,0.0,0.0,0.0,0.0,0.0,0.0,0.0,0.0,0.0,0.0,0.0,0.0,0.0,0.0,0.0,0.0,0.0,0.0,0.0,0.0,0.0,0.0,0.0,0.0,0.0,0.0,0.0,0.0,0.0,0.0,0.0,0.0,0.0,0.0,0.0,0.0,0.0,0.0,0.0,0.0,0.0,0.0,0.0,0.0,0.0,0.0,0.0,0.0,0.0,0.0,0.0,0.0,0.0,0.0,0.0,0.0,0.0,0.0,0.0,0.0,0.0,0.0,0.0,0.0,0.0,0.0,0.0,0.0,0.0,0.0,0.0,0.0,0.0,0.0,0.0,0.0,0.0,0.0,0.0,0.0,0.0,0.0,0.0,0.0,0.0,0.0,0.0,0.0,0.0,0.0,0.0,0.0,0.0,0.0,0.0,0.0,0.0,0.0,0.0,0.0,0.0,0.0,0.0,0.0,0.0,0.0,0.0,0.0,0.0,0.0,0.0,0.0,0.0,0.0,0.0,0.0,0.0,0.0,0.0,0.0,0.0,0.0,0.0,0.0,0.0,0.0,0.0,0.0,0.0,0.0,0.0,0.0,0.0,0.0,0.0,0.0,0.0,0.0,0.0,0.0,0.0,0.0,0.0,0.0,0.0,0.0,0.0,0.0,0.0,0.0,0.0,0.0,0.0,0.0,0.0,0.0,0.0,0.0,0.0,0.0,0.0,0.0,0.0,0.0,0.0,0.0,0.0,0.0,0.0,0.0,0.0,0.0,0.0,0.0,0.0,0.0,0.0,0.0,0.0,0.0,0.0,0.0,0.0,0.0,0.0,0.0,0.0,0.0,0.0,0.0,0.0,0.0,0.0,0.0,0.0,0.0,0.0,0.0,0.0,0.0,0.0,0.0,0.0,0.0,0.0,0.0,0.0,0.0,0.0,0.0,0.0,0.0,0.0,0.0,0.0,0.0,0.0,0.0,0.0,0.0,0.0,0.0,0.0,0.0,0.0,0.0,0.0,0.0,0.0,0.0,0.0,0.0,0.0,0.0,0.0,0.0,0.0,0.0,0.0,0.0,0.0,0.0,0.0,0.0,0.0,0.0,0.0,0.0,0.0,0.0,0.0,0.0,0.0,0.0,0.0,0.0,0.0,0.0,0.0,0.0,0.0,0.0,0.0,0.0,0.0,0.0,0.0,0.0,0.0,0.0,0.0,0.0,0.0,0.0,0.0,0.0,0.0,0.0,0.0,0.0,0.0,0.0,0.0,0.0,0.0,0.0,0.0,0.0,0.0,0.0,0.0,0.0,0.0,0.0,0.0,0.0,0.0,0.0,0.0,0.0,0.0,0.0,0.0,0.0,0.0,0.0,0.0,0.0,0.0,0.0,0.0,0.0,0.0,0.0,0.0,0.0,0.0,0.0,0.0,0.0,0.0,0.0,0.0,0.0,0.0,0.0,0.0,0.0,0.0,0.0,0.0,0.0,0.0,0.0,0.0,0.0,0.0,0.0,0.0,0.0,0.0,0.0,0.0,0.0,0.0,0.0,0.0,0.0,0.0,0.0,0.0,0.0,0.0,0.0,0.0,0.0,0.0,0.0,0.0,0.0,0.0,0.0,0.0,0.0,0.0,0.0,0.0,0.0,0.0,0.0,0.0,0.0,0.0,0.0,0.0,0.0,0.0,0.0,0.0,0.0,0.0,0.0,0.0,0.0,0.0,0.0,0.0,0.0,0.0,0.0,0.0,0.0,0.0,0.0,0.0,0.0,0.0,0.0,0.0,0.0,0.0,0.0,0.0,0.0,0.0,0.0,0.0,0.0,0.0,0.0,0.0,0.0,0.0,0.0,0.0,0.0,0.0,0.0,0.0,0.0,0.0,0.0,0.0,0.0,0.0,0.0,0.0,0.0,0.0,0.0,0.0,0.0,0.0,0.0,0.0,0.0,0.0,0.0,0.0,0.0,0.0,0.0,0.0,0.0,0.0,0.0,0.0,-2.7593,0.0,0.0,0.0,0.0,0.0,0.0,0.0,0.0,0.0,0.0,0.0,0.0,0.0,0.0,0.0,0.0,0.0,0.0,0.0,0.0,0.0,0.0,0.0,0.0,0.0,0.0,0.0,0.0,0.0,0.0,0.0,0.0,0.0,0.0,0.0,0.0,0.0,0.0,0.0,0.0,0.0,0.0,0.0,0.0,0.0,0.0,0.0,0.0,0.0,0.0,0.0,0.0,0.0,0.0,0.0,0.0,0.0,0.0,0.0,0.0,0.0,0.0,0.0,0.0,0.0,0.0,0.0,0.0,0.0,0.0,0.0,0.0,0.0,0.0,0.0,0.0,0.0,0.0,0.0,0.0,0.0,0.0,0.0,0.0,0.0,0.0,0.0,0.0,0.0,0.0,0.0,0.0,0.0,0.0,0.0,0.0,0.0,0.0,0.0,0.0,0.0,0.0,0.0,0.0,0.0,0.0,0.0,0.0,0.0,0.0,-2.9564,-2.9557,-2.9129,-2.8535,-2.7733,0.0,0.0,0.0,0.0,0.0,0.0,0.0,0.0,0.0,0.0,0.0,0.0,0.0,0.0,0.0,0.0,0.0,0.0,0.0,0.0,0.0,0.0,0.0,0.0,0.0,0.0,0.0,0.0,0.0,0.0,0.0,0.0,0.0,0.0,0.0,0.0,0.0,0.0,0.0,0.0,0.0,0.0,0.0,0.0,0.0,0.0,0.0,0.0,0.0,0.0,0.0,0.0,0.0,0.0,0.0,0.0,0.0,0.0,0.0,0.0,0.0,0.0,0.0,0.0,0.0,0.0,0.0,0.0,0.0,0.0,0.0,0.0,0.0,0.0,0.0,0.0,0.0,0.0,0.0,0.0,0.0,0.0,0.0,0.0,0.0,0.0,0.0,0.0,0.0,0.0,0.0,0.0,0.0,0.0,0.0,0.0,0.0,0.0,0.0,0.0,0.0,0.0,0.0,0.0,0.0,0.0,0.0,0.0,0.0,0.0,0.0,0.0,-2.9525,-2.9327,-2.854,0.0,0.0,0.0,0.0,0.0,0.0,0.0,0.0,0.0,0.0,0.0,0.0,0.0,0.0,0.0,0.0,0.0,0.0,0.0,0.0,0.0,0.0,0.0,0.0,0.0,0.0,0.0,0.0,0.0,0.0,0.0,0.0,0.0,0.0,0.0,0.0,0.0,0.0,0.0,0.0,0.0,0.0,0.0,0.0,0.0,0.0,0.0,0.0,0.0,0.0,0.0,0.0,0.0,0.0,0.0,0.0,0.0,0.0,0.0,0.0,0.0,0.0,0.0,0.0,0.0,0.0,0.0,0.0,0.0,0.0,0.0,0.0,0.0,0.0,0.0,0.0,0.0,0.0,0.0,0.0,0.0,0.0,0.0,0.0,0.0,0.0,0.0,0.0,0.0,0.0,0.0,0.0,0.0,0.0,0.0,0.0,0.0,0.0,0.0,0.0,0.0,0.0,0.0,0.0,0.0,0.0,0.0,0.0,0.0,0.0,-2.9177,-2.9977,-3.1336,0.0,-3.0934,0.0,0.0,0.0,0.0,0.0,0.0,0.0,0.0,0.0,0.0,0.0,0.0,0.0,0.0,0.0,0.0,0.0,0.0,0.0,0.0,0.0,0.0,0.0,0.0,0.0,0.0,0.0,0.0,0.0,0.0,0.0,0.0,0.0,0.0,0.0,0.0,0.0,0.0,0.0,0.0,0.0,0.0,0.0,0.0,0.0,0.0,0.0,0.0,0.0,0.0,0.0,0.0,0.0,0.0,0.0,0.0,0.0,0.0,0.0,0.0,0.0,0.0,0.0,0.0,0.0,0.0,0.0,0.0,0.0,0.0,0.0,0.0,0.0,0.0,0.0,0.0,0.0,0.0,0.0,0.0,0.0,0.0,0.0,0.0,0.0,0.0,0.0,0.0,0.0,0.0,0.0,0.0,0.0,0.0,0.0,0.0,0.0,0.0,0.0,0.0,0.0,0.0,0.0,0.0,0.0,0.0,0.0,0.0,0.0,0.0,-2.843,-2.9251,-2.9883,-2.9837,0.0,0.0,0.0,0.0,0.0,0.0,0.0,0.0,0.0,0.0,0.0,0.0,0.0,0.0,0.0,0.0,0.0,0.0,0.0,0.0,0.0,0.0,0.0,0.0,0.0,0.0,0.0,0.0,0.0,0.0,0.0,0.0,0.0,0.0,0.0,0.0,0.0,0.0,0.0,0.0,0.0,0.0,0.0,0.0,0.0,0.0,0.0,0.0,0.0,0.0,0.0,0.0,0.0,0.0,0.0,0.0,0.0,0.0,0.0,0.0,0.0,0.0,0.0,0.0,0.0,0.0,0.0,0.0,0.0,0.0,0.0,0.0,0.0,0.0,0.0,0.0,0.0,0.0,0.0,0.0,0.0,0.0,0.0,0.0,0.0,0.0,0.0,0.0,0.0,0.0,0.0,0.0,0.0,0.0,0.0,0.0,0.0,0.0,0.0,0.0,0.0,0.0,0.0,0.0,0.0,0.0,0.0,0.0,0.0,0.0,-2.7752,-2.8446,-2.9593,-2.8836,-2.8199,-2.7828,0.0,0.0,0.0,0.0,0.0,0.0,0.0,0.0,0.0,0.0,0.0,0.0,0.0,0.0,0.0,0.0,0.0,0.0,0.0,0.0,0.0,0.0,0.0,0.0,0.0,0.0,0.0,0.0,0.0,0.0,0.0,0.0,0.0,0.0,0.0,0.0,0.0,0.0,0.0,0.0,0.0,0.0,0.0,0.0,0.0,0.0,0.0,0.0,0.0,0.0,0.0,0.0,0.0,0.0,0.0,0.0,0.0,0.0,0.0,0.0,0.0,0.0,0.0,0.0,0.0,0.0,0.0,0.0,0.0,0.0,0.0,0.0,0.0,0.0,0.0,0.0,0.0,0.0,0.0,0.0,0.0,0.0,0.0,0.0,0.0,0.0,0.0,0.0,0.0,0.0,0.0,0.0,0.0,0.0,0.0,0.0,0.0,0.0,0.0,0.0,0.0,0.0,0.0,0.0,0.0,0.0,0.0,0.0,-3.0635,-2.9404,-2.9783,-3.1981,-2.9193,-2.7904,0.0,0.0,0.0,0.0,0.0,0.0,0.0,0.0,0.0,0.0,0.0,0.0,0.0,0.0,0.0,0.0,0.0,0.0,0.0,0.0,0.0,0.0,0.0,0.0,0.0,0.0,0.0,0.0,0.0,0.0,0.0,0.0,0.0,0.0,0.0,0.0,0.0,0.0,0.0,0.0,0.0,0.0,0.0,0.0,0.0,0.0,0.0,0.0,0.0,0.0,0.0,0.0,0.0,0.0,0.0,0.0,0.0,0.0,0.0,0.0,0.0,0.0,0.0,0.0,0.0,0.0,0.0,0.0,0.0,0.0,0.0,0.0,0.0,0.0,0.0,0.0,0.0,0.0,0.0,0.0,0.0,0.0,0.0,0.0,0.0,0.0,0.0,0.0,0.0,0.0,0.0,0.0,0.0,0.0,0.0,0.0,0.0,0.0,0.0,0.0,0.0,0.0,0.0,0.0,0.0,0.0,0.0,0.0,0.0,-2.7157,-2.7669,-2.8843,-3.0635,-2.8643,-2.7885,0.0,0.0,0.0,0.0,0.0,0.0,0.0,0.0,0.0,0.0,0.0,0.0,0.0,0.0,0.0,0.0,0.0,0.0,0.0,0.0,0.0,0.0,0.0,0.0,0.0,0.0,0.0,0.0,0.0,0.0,0.0,0.0,0.0,0.0,0.0,0.0,0.0,0.0,0.0,0.0,0.0,0.0,0.0,0.0,0.0,0.0,0.0,0.0,0.0,0.0,0.0,0.0,0.0,0.0,0.0,0.0,0.0,0.0,0.0,0.0,0.0,0.0,0.0,0.0,0.0,0.0,0.0,0.0,0.0,0.0,0.0,0.0,0.0,0.0,0.0,0.0,0.0,0.0,0.0,0.0,0.0,0.0,0.0,0.0,0.0,0.0,0.0,0.0,0.0,0.0,0.0,0.0,0.0,0.0,0.0,0.0,0.0,0.0,0.0,0.0,0.0,0.0,0.0,0.0,0.0,0.0,0.0,0.0,0.0,-2.6209,0.0,-2.9241,-2.9423,-2.8207,-2.7505,0.0,0.0,0.0,0.0,0.0,0.0,0.0,0.0,0.0,0.0,0.0,0.0,0.0,0.0,0.0,0.0,0.0,0.0,0.0,0.0,0.0,0.0,0.0,0.0,0.0,0.0,0.0,0.0,0.0,0.0,0.0,0.0,0.0,0.0,0.0,0.0,0.0,0.0,0.0,0.0,0.0,0.0,0.0,0.0,0.0,0.0,0.0,0.0,0.0,0.0,0.0,0.0,0.0,0.0,0.0,0.0,0.0,0.0,0.0,0.0,0.0,0.0,0.0,0.0,0.0,0.0,0.0,0.0,0.0,0.0,0.0,0.0,0.0,0.0,0.0,0.0,0.0,0.0,0.0,0.0,0.0,0.0,0.0,0.0,0.0,0.0,0.0,0.0,0.0,0.0,0.0,0.0,0.0,0.0,0.0,0.0,0.0,0.0,0.0,0.0,0.0,0.0,0.0,0.0,0.0,0.0,0.0,0.0,-2.6228,-2.8551,-3.092,-3.0977,-2.8817,-2.7922,-2.6754,0.0,0.0,0.0,0.0,0.0,0.0,0.0,0.0,0.0,0.0,0.0,0.0,0.0,0.0,0.0,0.0,0.0,0.0,0.0,0.0,0.0,0.0,0.0,0.0,0.0,0.0,0.0,0.0,0.0,0.0,0.0,0.0,0.0,0.0,0.0,0.0,0.0,0.0,0.0,0.0,0.0,0.0,0.0,0.0,0.0,0.0,0.0,0.0,0.0,0.0,0.0,0.0,0.0,0.0,0.0,0.0,0.0,0.0,0.0,0.0,0.0,0.0,0.0,0.0,0.0,0.0,0.0,0.0,0.0,0.0,0.0,0.0,0.0,0.0,0.0,0.0,0.0,0.0,0.0,0.0,0.0,0.0,0.0,0.0,0.0,0.0,0.0,0.0,0.0,0.0,0.0,0.0,0.0,0.0,0.0,0.0,0.0,0.0,0.0,0.0,0.0,0.0,0.0,0.0,0.0,0.0,0.0,0.0,0.0,-2.6247,-2.857,-2.9764,-2.9472,-2.7631,-2.7157,0.0,0.0,0.0,0.0,0.0,0.0,0.0,0.0,0.0,0.0,0.0,0.0,0.0,0.0,0.0,0.0,0.0,0.0,0.0,0.0,0.0,0.0,0.0,0.0,0.0,0.0,0.0,0.0,0.0,0.0,0.0,0.0,0.0,0.0,0.0,0.0,0.0,0.0,0.0,0.0,0.0,0.0,0.0,0.0,0.0,0.0,0.0,0.0,0.0,0.0,0.0,0.0,0.0,0.0,0.0,0.0,0.0,0.0,0.0,0.0,0.0,0.0,0.0,0.0,0.0,0.0,0.0,0.0,0.0,0.0,0.0,0.0,0.0,0.0,0.0,0.0,0.0,0.0,0.0,0.0,0.0,0.0,0.0,0.0,0.0,0.0,0.0,0.0,0.0,0.0,0.0,0.0,0.0,0.0,0.0,0.0,0.0,0.0,0.0,0.0,0.0,0.0,0.0,0.0,0.0,0.0,0.0,0.0,0.0,-2.7517,-2.9734,-3.0654,-2.9916,-2.8711,-2.818,-2.8446,0.0,0.0,0.0,0.0,0.0,0.0,0.0,0.0,0.0,0.0,0.0,0.0,0.0,0.0,0.0,0.0,0.0,0.0,0.0,0.0,0.0,0.0,0.0,0.0,0.0,0.0,0.0,0.0,0.0,0.0,0.0,0.0,0.0,0.0,0.0,0.0,0.0,0.0,0.0,0.0,0.0,0.0,0.0,0.0,0.0,0.0,0.0,0.0,0.0,0.0,0.0,0.0,0.0,0.0,0.0,0.0,0.0,0.0,0.0,0.0,0.0,0.0,0.0,0.0,0.0,0.0,0.0,0.0,0.0,0.0,0.0,0.0,0.0,0.0,0.0,0.0,0.0,0.0,0.0,0.0,0.0,0.0,0.0,0.0,0.0,0.0,0.0,0.0,0.0,0.0,0.0,0.0,0.0,0.0,0.0,0.0,0.0,0.0,0.0,0.0,0.0,0.0,0.0,0.0,0.0,0.0,0.0,0.0,-3.1302,-3.3838,-3.3601,-3.0351,-3.0882,-2.9772,0.0,0.0,0.0,0.0,0.0,0.0,0.0,0.0,0.0,0.0,0.0,0.0,0.0,0.0,0.0,0.0,0.0,0.0,0.0,0.0,0.0,0.0,0.0,0.0,0.0,0.0,0.0,0.0,0.0,0.0,0.0,0.0,0.0,0.0,0.0,0.0,0.0,0.0,0.0,0.0,0.0,0.0,0.0,0.0,0.0,0.0,0.0,0.0,0.0,0.0,0.0,0.0,0.0,0.0,0.0,0.0,0.0,0.0,0.0,0.0,0.0,0.0,0.0,0.0,0.0,0.0,0.0,0.0,0.0,0.0,0.0,0.0,0.0,0.0,0.0,0.0,0.0,0.0,0.0,0.0,0.0,0.0,0.0,0.0,0.0,0.0,0.0,0.0,0.0,0.0,0.0,0.0,0.0,0.0,0.0,0.0,0.0,0.0,0.0,0.0,0.0,0.0,0.0,0.0,0.0,0.0,0.0,0.0,0.0,-3.2594,-3.6621,-3.7141,-3.3733,-3.2625,-3.1393,0.0,0.0,0.0,0.0,0.0,0.0,0.0,0.0,0.0,0.0,0.0,0.0,0.0,0.0,0.0,0.0,0.0,0.0,0.0,0.0,0.0,0.0,0.0,0.0,0.0,0.0,0.0,0.0,0.0,0.0,0.0,0.0,0.0,0.0,0.0,0.0,0.0,0.0,0.0,0.0,0.0,0.0,0.0,0.0,0.0,0.0,0.0,0.0,0.0,0.0,0.0,0.0,0.0,0.0,0.0,0.0,0.0,0.0,0.0,0.0,0.0,0.0,0.0,0.0,0.0,0.0,0.0,0.0,0.0,0.0,0.0,0.0,0.0,0.0,0.0,0.0,0.0,0.0,0.0,0.0,0.0,0.0,0.0,0.0,0.0,0.0,0.0,0.0,0.0,0.0,0.0,0.0,0.0,0.0,0.0,0.0,0.0,0.0,0.0,0.0,0.0,0.0,0.0,0.0,0.0,0.0,0.0,0.0,-3.4153,-3.5477,-3.9555,-4.0412,-3.7699,-3.6344,-3.4172,0.0,0.0,0.0,0.0,0.0,0.0,0.0,0.0,0.0,0.0,0.0,0.0,0.0,0.0,0.0,0.0,0.0,0.0,0.0,0.0,0.0,0.0,0.0,0.0,0.0,0.0,0.0,0.0,0.0,0.0,0.0,0.0,0.0,0.0,0.0,0.0,0.0,0.0,0.0,0.0,0.0,0.0,0.0,0.0,0.0,0.0,0.0,0.0,0.0,0.0,0.0,0.0,0.0,0.0,0.0,0.0,0.0,0.0,0.0,0.0,0.0,0.0,0.0,0.0,0.0,0.0,0.0,0.0,0.0,0.0,0.0,0.0,0.0,0.0,0.0,0.0,0.0,0.0,0.0,0.0,0.0,0.0,0.0,0.0,0.0,0.0,0.0,0.0,0.0,0.0,0.0,0.0,0.0,0.0,0.0,0.0,0.0,0.0,0.0,0.0,0.0,0.0,0.0,0.0,0.0,0.0,0.0,0.0,-3.6776,-3.8872,-4.2149,-4.3074,-4.1477,-4.0478,-3.7198,0.0,0.0,0.0,0.0,0.0,0.0,0.0,0.0,0.0,0.0,0.0,0.0,0.0,0.0,0.0,0.0,0.0,0.0,0.0,0.0,0.0,0.0,0.0,0.0,0.0,0.0,0.0,0.0,0.0,0.0,0.0,0.0,0.0,0.0,0.0,0.0,0.0,0.0,0.0,0.0,0.0,0.0,0.0,0.0,0.0,0.0,0.0,0.0,0.0,0.0,0.0,0.0,0.0,0.0,0.0,0.0,0.0,0.0,0.0,0.0,0.0,0.0,0.0,0.0,0.0,0.0,0.0,0.0,0.0,0.0,0.0,0.0,0.0,0.0,0.0,0.0,0.0,0.0,0.0,0.0,0.0,0.0,0.0,0.0,0.0,0.0,0.0,0.0,0.0,0.0,0.0,0.0,0.0,0.0,0.0,0.0,0.0,0.0,0.0,0.0,0.0,0.0,0.0,0.0,0.0,0.0,0.0,0.0,-3.6776,-3.8387,-4.2068,-4.3269,-4.1667,-3.9934,-3.7317,0.0,0.0,0.0,0.0,0.0,0.0,0.0,0.0,0.0,0.0,0.0,0.0,0.0,0.0,0.0,0.0,0.0,0.0,0.0,0.0,0.0,0.0,0.0,0.0,0.0,0.0,0.0,0.0,0.0,0.0,0.0,0.0,0.0,0.0,0.0,0.0,0.0,0.0,0.0,0.0,0.0,0.0,0.0,0.0,0.0,0.0,0.0,0.0,-2.6808,0.0,0.0,0.0,0.0,0.0,0.0,0.0,0.0,0.0,0.0,0.0,0.0,0.0,0.0,0.0,0.0,0.0,0.0,0.0,0.0,0.0,0.0,0.0,0.0,0.0,0.0,0.0,0.0,0.0,0.0,0.0,0.0,0.0,0.0,0.0,0.0,0.0,0.0,0.0,0.0,0.0,0.0,0.0,0.0,0.0,0.0,0.0,0.0,0.0,0.0,0.0,0.0,0.0,0.0,0.0,0.0,0.0,0.0,0.0,-3.8059,-3.9787,-4.2154,-4.2982,-4.2116,-4.0274,-3.7823,0.0,0.0,0.0,0.0,0.0,0.0,0.0,0.0,0.0,0.0,0.0,0.0,0.0,0.0,0.0,0.0,0.0,0.0,0.0,0.0,0.0,0.0,0.0,0.0,0.0,0.0,0.0,0.0,0.0,0.0,0.0,0.0,0.0,0.0,0.0,0.0,0.0,0.0,0.0,0.0,0.0,0.0,0.0,0.0,0.0,0.0,0.0,0.0,0.0,0.0,0.0,0.0,0.0,0.0,0.0,0.0,0.0,0.0,0.0,0.0,0.0,0.0,0.0,0.0,0.0,0.0,0.0,0.0,0.0,0.0,0.0,0.0,0.0,0.0,0.0,0.0,0.0,0.0,0.0,0.0,0.0,0.0,0.0,0.0,0.0,0.0,0.0,0.0,0.0,0.0,0.0,0.0,0.0,0.0,0.0,0.0,0.0,0.0,0.0,0.0,0.0,0.0,0.0,0.0,0.0,0.0,0.0,-3.6346,-3.9302,-4.1341,-4.2345,-4.2701,-4.2411,-4.0926,-3.8492,-3.5052,0.0,0.0,0.0,0.0,0.0,0.0,0.0,0.0,0.0,0.0,0.0,0.0,0.0,0.0,0.0,0.0,0.0,0.0,0.0,0.0,0.0,0.0,0.0,0.0,0.0,0.0,0.0,0.0,0.0,0.0,0.0,0.0,0.0,0.0,0.0,0.0,0.0,0.0,-2.6139,-2.8316,0.0,0.0,0.0,0.0,0.0,0.0,0.0,0.0,-2.7496,0.0,0.0,0.0,0.0,0.0,0.0,0.0,0.0,0.0,0.0,0.0,0.0,0.0,0.0,0.0,0.0,0.0,0.0,0.0,0.0,0.0,0.0,0.0,0.0,0.0,0.0,0.0,0.0,0.0,0.0,0.0,0.0,0.0,0.0,0.0,0.0,0.0,0.0,0.0,0.0,0.0,0.0,0.0,0.0,0.0,0.0,0.0,0.0,0.0,0.0,0.0,0.0,0.0,0.0,0.0,0.0,-3.3216,-3.5898,-3.8319,-4.0564,-4.2674,-4.3086,-4.1674,-4.1312,-3.9068,-3.4775,0.0,0.0,0.0,0.0,0.0,0.0,0.0,0.0,0.0,0.0,0.0,0.0,0.0,0.0,0.0,0.0,0.0,0.0,0.0,0.0,0.0,0.0,0.0,0.0,0.0,0.0,0.0,0.0,0.0,0.0,0.0,0.0,0.0,0.0,0.0,0.0,0.0,0.0,0.0,-3.0261,-3.1314,0.0,0.0,0.0,0.0,0.0,0.0,0.0,0.0,-2.6728,0.0,0.0,0.0,0.0,0.0,0.0,0.0,0.0,0.0,0.0,0.0,0.0,0.0,0.0,0.0,0.0,0.0,0.0,0.0,0.0,0.0,0.0,0.0,0.0,0.0,0.0,0.0,0.0,0.0,0.0,0.0,0.0,0.0,0.0,0.0,0.0,0.0,0.0,0.0,0.0,0.0,0.0,0.0,0.0,0.0,0.0,0.0,0.0,0.0,0.0,0.0,0.0,0.0,0.0,0.0,-3.2726,-3.6251,-3.8779,-4.0218,-4.1369,-4.1546,-4.0621,-3.9459,-3.7398,0.0,0.0,0.0,0.0,0.0,0.0,0.0,0.0,0.0,0.0,0.0,0.0,0.0,0.0,0.0,0.0,0.0,0.0,0.0,0.0,0.0,0.0,0.0,0.0,0.0,0.0,0.0,0.0,0.0,0.0,0.0,0.0,0.0,0.0,0.0,0.0,0.0,0.0,0.0,0.0,-3.0896,-3.1814,-3.1457,0.0,0.0,0.0,0.0,0.0,0.0,-2.8149,-2.7472,0.0,0.0,0.0,0.0,0.0,0.0,0.0,0.0,0.0,0.0,0.0,0.0,0.0,0.0,0.0,0.0,0.0,0.0,0.0,0.0,0.0,0.0,0.0,0.0,0.0,0.0,0.0,0.0,0.0,0.0,0.0,0.0,0.0,0.0,0.0,0.0,0.0,0.0,0.0,0.0,0.0,0.0,0.0,0.0,0.0,0.0,0.0,0.0,0.0,0.0,0.0,0.0,0.0,0.0,0.0,-3.2085,-3.6353,-3.9031,-3.9818,-4.0015,-3.9976,-3.9664,-3.7719,-3.5826,0.0,0.0,0.0,0.0,0.0,0.0,0.0,0.0,0.0,0.0,0.0,0.0,0.0,0.0,0.0,0.0,0.0,0.0,0.0,0.0,0.0,0.0,0.0,0.0,0.0,0.0,0.0,0.0,0.0,0.0,0.0,0.0,0.0,0.0,0.0,0.0,0.0,0.0,0.0,0.0,0.0,-3.2249,-3.1392,-3.0678,0.0,0.0,0.0,0.0,-3.0665,-2.9723,0.0,0.0,0.0,0.0,0.0,0.0,0.0,0.0,0.0,0.0,0.0,0.0,0.0,0.0,0.0,0.0,0.0,0.0,0.0,0.0,0.0,0.0,0.0,0.0,0.0,0.0,0.0,0.0,0.0,0.0,0.0,0.0,0.0,0.0,0.0,0.0,0.0,0.0,0.0,0.0,0.0,0.0,0.0,0.0,0.0,0.0,0.0,0.0,0.0,0.0,0.0,0.0,0.0,0.0,0.0,0.0,-3.1933,-3.524,-3.7648,-3.8993,-3.9728,-3.9743,-3.895,-3.7969,-3.606,0.0,0.0,0.0,0.0,0.0,0.0,0.0,0.0,0.0,0.0,0.0,0.0,0.0,0.0,0.0,0.0,0.0,0.0,0.0,0.0,0.0,0.0,0.0,0.0,0.0,0.0,0.0,0.0,0.0,0.0,0.0,0.0,0.0,0.0,0.0,0.0,0.0,0.0,0.0,0.0,0.0,-3.34,-3.2,-3.1595,-3.1604,0.0,0.0,-3.064,-3.2214,-3.2739,0.0,0.0,0.0,0.0,0.0,0.0,0.0,0.0,0.0,0.0,0.0,0.0,0.0,0.0,0.0,0.0,0.0,0.0,0.0,0.0,0.0,0.0,0.0,0.0,0.0,0.0,0.0,0.0,0.0,0.0,0.0,0.0,0.0,0.0,0.0,0.0,0.0,0.0,0.0,0.0,0.0,0.0,0.0,0.0,0.0,0.0,0.0,0.0,0.0,0.0,0.0,0.0,0.0,0.0,0.0,-3.0417,-3.1849,-3.5376,-3.7506,-3.815,-3.8507,-3.8507,-3.8148,-3.606,-3.4078,0.0,0.0,0.0,0.0,0.0,0.0,0.0,0.0,0.0,0.0,0.0,0.0,0.0,0.0,0.0,0.0,0.0,0.0,0.0,0.0,0.0,0.0,0.0,0.0,0.0,0.0,0.0,0.0,0.0,0.0,0.0,0.0,0.0,0.0,0.0,0.0,0.0,0.0,0.0,0.0,0.0,0.0,-3.2217,-3.2675,0.0,0.0,0.0,-3.2811,-3.3301,0.0,0.0,0.0,0.0,0.0,0.0,0.0,0.0,0.0,0.0,0.0,0.0,0.0,0.0,0.0,0.0,0.0,0.0,0.0,0.0,0.0,0.0,0.0,0.0,0.0,0.0,0.0,0.0,0.0,0.0,0.0,0.0,0.0,0.0,0.0,0.0,0.0,0.0,0.0,0.0,0.0,0.0,0.0,0.0,0.0,0.0,0.0,0.0,0.0,0.0,0.0,0.0,0.0,0.0,0.0,0.0,0.0,-3.2028,-3.5506,-3.7416,-3.7595,-3.7595,-3.7523,-3.7256,-3.4632,0.0,0.0,0.0,0.0,0.0,0.0,0.0,0.0,0.0,0.0,0.0,0.0,0.0,0.0,0.0,0.0,0.0,0.0,0.0,0.0,0.0,0.0,0.0,0.0,0.0,0.0,0.0,-2.3505,0.0,0.0,0.0,0.0,0.0,0.0,0.0,0.0,0.0,0.0,0.0,0.0,0.0,0.0,-3.3317,-3.2715,-3.3822,-3.4622,0.0,0.0,-3.4667,-3.4461,-3.4391,-3.3498,0.0,0.0,0.0,0.0,0.0,0.0,0.0,0.0,0.0,0.0,0.0,0.0,0.0,0.0,0.0,0.0,0.0,0.0,0.0,0.0,0.0,0.0,0.0,0.0,0.0,0.0,0.0,0.0,0.0,0.0,0.0,0.0,0.0,0.0,0.0,0.0,0.0,0.0,0.0,0.0,0.0,0.0,0.0,0.0,0.0,0.0,0.0,0.0,0.0,0.0,0.0,0.0,0.0,0.0,0.0,-3.2811,-3.5221,-3.6845,-3.7577,-3.7595,-3.7256,-3.6488,-3.4882,-3.2938,0.0,0.0,0.0,0.0,0.0,0.0,0.0,0.0,0.0,0.0,0.0,0.0,0.0,0.0,0.0,0.0,0.0,0.0,0.0,0.0,0.0,0.0,0.0,0.0,0.0,0.0,0.0,0.0,0.0,0.0,0.0,0.0,0.0,0.0,0.0,0.0,0.0,0.0,0.0,0.0,0.0,-3.3906,-3.38,-3.4994,-3.6124,0.0,0.0,-3.5892,-3.5858,-3.697,-3.6158,-3.1196,0.0,0.0,0.0,0.0,0.0,0.0,0.0,0.0,0.0,0.0,0.0,0.0,0.0,0.0,0.0,0.0,0.0,0.0,0.0,0.0,0.0,0.0,0.0,0.0,0.0,0.0,0.0,0.0,0.0,0.0,0.0,0.0,0.0,0.0,0.0,0.0,0.0,0.0,0.0,0.0,0.0,0.0,0.0,0.0,0.0,0.0,0.0,0.0,0.0,0.0,0.0,0.0,0.0,-3.0594,-3.2882,-3.5221,-3.6774,-3.7559,-3.7595,-3.722,-3.6417,-3.4418,-3.2688,0.0,0.0,0.0,0.0,0.0,0.0,0.0,0.0,0.0,0.0,0.0,0.0,0.0,0.0,0.0,0.0,0.0,0.0,0.0,0.0,0.0,0.0,0.0,0.0,0.0,0.0,0.0,0.0,-2.4571,-2.4585,-2.3641,0.0,0.0,0.0,0.0,0.0,0.0,0.0,0.0,0.0,0.0,-3.4143,-3.4472,-3.5768,0.0,0.0,-3.6936,-3.6887,-3.5528,-3.6075,-3.5407,-3.1731,-3.0318,0.0,0.0,0.0,0.0,0.0,0.0,0.0,0.0,0.0,0.0,0.0,0.0,0.0,0.0,0.0,0.0,0.0,0.0,0.0,0.0,0.0,0.0,0.0,0.0,0.0,0.0,0.0,0.0,0.0,0.0,0.0,0.0,0.0,0.0,0.0,0.0,0.0,0.0,0.0,0.0,0.0,0.0,0.0,0.0,0.0,0.0,0.0,0.0,0.0,0.0,0.0,0.0,-3.0238,-3.2669,-3.4782,-3.629,-3.7151,-3.7169,-3.6766,-3.5847,-3.4018,-3.2505,0.0,0.0,0.0,0.0,0.0,0.0,0.0,0.0,0.0,0.0,0.0,0.0,0.0,0.0,0.0,0.0,0.0,0.0,0.0,0.0,0.0,0.0,0.0,0.0,0.0,0.0,0.0,0.0,-2.4243,-2.4084,-2.3718,0.0,0.0,0.0,0.0,0.0,0.0,0.0,0.0,0.0,0.0,-3.4263,-3.5098,-3.6125,-3.6671,-3.6373,-3.7019,-3.7003,-3.5462,-3.5737,-3.5152,-3.2342,0.0,0.0,0.0,0.0,0.0,0.0,0.0,0.0,0.0,0.0,0.0,0.0,0.0,0.0,0.0,0.0,0.0,0.0,0.0,0.0,0.0,0.0,0.0,0.0,0.0,0.0,0.0,-2.5887,0.0,0.0,-2.5813,0.0,0.0,0.0,0.0,0.0,0.0,0.0,0.0,0.0,0.0,0.0,0.0,0.0,0.0,0.0,0.0,0.0,0.0,0.0,0.0,0.0,0.0,-2.9556,-3.2196,-3.3844,-3.5161,-3.6205,-3.6253,-3.5746,-3.4702,-3.3827,-3.2489,-3.0603,0.0,0.0,0.0,0.0,0.0,0.0,0.0,0.0,0.0,0.0,0.0,0.0,0.0,0.0,0.0,0.0,0.0,0.0,0.0,0.0,0.0,0.0,0.0,0.0,0.0,0.0,-2.4119,-2.2938,-2.2609,0.0,0.0,0.0,0.0,0.0,0.0,0.0,0.0,0.0,0.0,-3.1934,-3.4319,-3.5727,-3.6009,-3.6324,-3.697,-3.6506,-3.6042,-3.5976,-3.653,-3.6042,0.0,0.0,0.0,0.0,0.0,0.0,0.0,0.0,0.0,0.0,0.0,0.0,0.0,0.0,0.0,0.0,0.0,0.0,0.0,0.0,0.0,0.0,0.0,0.0,0.0,0.0,0.0,-2.7437,-2.7366,0.0,0.0,0.0,0.0,0.0,0.0,0.0,0.0,0.0,0.0,0.0,-3.163,-3.2685,0.0,0.0,0.0,0.0,0.0,0.0,0.0,0.0,0.0,0.0,0.0,0.0,-2.9521,-3.2862,-3.3796,-3.4852,-3.6142,-3.6194,-3.5808,-3.4961,-3.3942,-3.2261,-2.9854,0.0,0.0,0.0,0.0,0.0,0.0,0.0,0.0,0.0,0.0,0.0,0.0,0.0,0.0,0.0,0.0,0.0,0.0,0.0,0.0,0.0,0.0,0.0,0.0,0.0,-2.6747,0.0,0.0,0.0,0.0,0.0,0.0,0.0,0.0,0.0,0.0,0.0,-2.874,-3.0621,-3.2994,-3.47,-3.5197,-3.6125,-3.6837,0.0,0.0,0.0,0.0,0.0,0.0,0.0,0.0,0.0,0.0,0.0,0.0,0.0,0.0,-3.5891,-3.1128,-2.8952,-2.8722,-3.1471,0.0,0.0,0.0,0.0,0.0,0.0,0.0,0.0,0.0,0.0,0.0,0.0,0.0,0.0,-2.9993,0.0,-2.9101,0.0,0.0,0.0,0.0,0.0,0.0,0.0,0.0,-3.2315,-3.3475,-3.3928,-3.5393,-3.4907,0.0,-3.2717,-3.1586,0.0,0.0,0.0,0.0,0.0,0.0,0.0,0.0,-3.0057,-3.2844,-3.3751,-3.4677,-3.5669,-3.5737,-3.5343,-3.45,-3.3382,-3.1987,-3.0253,-3.0447,-3.043,0.0,0.0,0.0,0.0,0.0,0.0,0.0,0.0,0.0,0.0,0.0,0.0,0.0,0.0,0.0,0.0,0.0,0.0,0.0,0.0,0.0,0.0,0.0,-2.6893,0.0,0.0,0.0,0.0,0.0,0.0,0.0,0.0,0.0,-2.7647,-2.8973,-3.0493,-3.215,-3.3839,-3.4982,-3.5247,0.0,0.0,0.0,0.0,0.0,0.0,0.0,-3.5844,-3.5686,-3.5406,-3.525,-3.544,-3.7056,-3.8424,-3.8628,0.0,0.0,-3.4702,-3.2644,-3.2411,-3.5201,-3.4316,-3.3599,-3.5114,-3.4701,-3.4082,0.0,0.0,0.0,0.0,0.0,0.0,0.0,0.0,-3.2943,-3.3318,0.0,-3.2321,0.0,0.0,0.0,0.0,0.0,-3.1129,0.0,0.0,-3.4809,-3.5796,-3.5145,-3.6345,-3.6275,-3.5211,-3.6197,-3.4981,-3.1638,-2.8733,0.0,0.0,0.0,0.0,0.0,0.0,-3.1018,-3.2174,-3.3625,-3.4555,-3.4913,-3.4923,-3.4401,-3.3347,-3.2344,-3.1764,-3.1695,-3.1643,-3.1005,-2.9558,-2.9741,0.0,0.0,0.0,0.0,0.0,0.0,0.0,0.0,0.0,0.0,0.0,0.0,0.0,0.0,0.0,0.0,0.0,0.0,0.0,0.0,-2.6521,0.0,0.0,0.0,0.0,0.0,0.0,0.0,0.0,0.0,0.0,-2.8757,-3.0962,-3.2967,-3.3673,0.0,0.0,0.0,0.0,-3.6059,-3.6108,-3.6688,-3.7152,-3.7135,-3.7656,-3.7897,-3.7235,0.0,0.0,-3.7213,-3.8243,-3.9007,-3.8309,-3.8789,-3.9411,-4.0614,-3.9117,-3.8427,-3.9413,-3.7838,-3.6832,-3.7343,-3.739,-3.7202,-3.6684,0.0,0.0,0.0,0.0,-3.3367,-3.4237,-3.5963,-3.4809,-3.4482,-3.4642,-3.3096,0.0,0.0,0.0,0.0,0.0,0.0,-3.3309,-3.4861,-3.6311,-3.7216,-3.7706,-3.8649,-3.8441,-3.7259,-3.6057,-3.4795,-3.3478,-3.1355,-2.9328,-2.7466,0.0,0.0,0.0,0.0,-3.1021,-3.287,-3.3634,-3.4276,-3.4866,-3.4899,-3.4378,-3.333,-3.2998,-3.2468,-3.1728,-3.1414,-3.1208,-3.1039,-2.9846,0.0,0.0,0.0,0.0,0.0,0.0,0.0,0.0,0.0,0.0,0.0,0.0,0.0,0.0,0.0,0.0,0.0,0.0,0.0,-2.7961,-2.7394,-2.6985,0.0,0.0,0.0,0.0,0.0,0.0,0.0,0.0,0.0,-3.205,-3.252,-3.2984,0.0,0.0,-3.4965,-3.5197,-3.6108,-3.697,-3.7516,-3.7739,0.0,-3.7897,-3.7632,-3.7533,-3.7822,-3.8941,-3.9847,-4.0111,-4.0541,-4.0915,-4.1176,-4.0903,-4.0753,-4.0944,-3.9409,-3.8383,-3.9095,-3.8439,-3.7837,-3.845,-3.8545,-3.8372,-3.9825,-3.7413,-3.5809,-3.5406,-3.5784,-3.5338,-3.6118,-3.7657,-3.6702,-3.6479,-3.6732,-3.5194,-3.4246,-3.3728,-3.2387,0.0,0.0,0.0,-3.4716,-3.6541,-3.7293,-3.813,-3.9008,-3.9674,-3.937,-3.8205,-3.7045,-3.5964,-3.4961,-3.3881,-3.2495,-3.0864,0.0,0.0,-3.0355,-3.1093,-3.2106,-3.346,-3.3977,-3.4452,-3.4883,-3.4601,-3.401,-3.3108,-3.2772,-3.2176,-3.1271,-3.0985,-3.0965,-3.1203,-3.0277,-2.9534,0.0,0.0,0.0,0.0,0.0,0.0,0.0,0.0,0.0,0.0,0.0,-2.5104,-2.3919,0.0,0.0,0.0,-2.708,-2.7827,-2.8752,-2.8428,0.0,0.0,0.0,0.0,0.0,0.0,0.0,-3.1156,-3.1636,-3.2299,-3.3607,-3.3657,-3.3839,-3.4584,-3.5048,-3.5446,-3.5744,0.0,-3.7301,-3.7728,-3.7834,-3.7877,-3.7877,-3.7503,-3.7373,-3.7796,-3.9048,-4.0086,-4.0582,-4.1099,-4.1739,-4.2299,-4.1933,-4.1459,-4.1754,-4.0119,-3.8983,-3.9861,-3.9692,-3.9404,-3.9534,-3.9431,-3.9216,-4.2203,-4.197,-3.8877,-3.7591,-3.754,-3.7591,-3.7974,-3.8551,-3.8545,-3.8946,-3.9444,-3.7979,-3.7254,-3.7065,-3.4937,0.0,-3.4656,-3.5305,-3.6207,-3.7301,-3.798,-3.8642,-3.9309,-3.9714,-3.9369,-3.8295,-3.8656,-3.7942,-3.6249,-3.6108,-3.5711,-3.4949,-3.3624,-3.2663,-3.2152,-3.3327,-3.3995,-3.3972,-3.4634,-3.4965,-3.4899,-3.4237,-3.3491,-3.2735,-3.205,-3.1317,-3.0539,-3.0489,-3.0489,-3.051,-3.0861,-3.04,-2.9046,0.0,0.0,0.0,0.0,0.0,0.0,0.0,0.0,0.0,0.0,0.0,0.0,0.0,0.0,0.0,-2.7581,0.0,-2.9367,-2.9496,0.0,0.0,0.0,-2.9595,-2.9645,-3.0853,-3.1984,-3.2718,0.0,0.0,-3.3889,-3.4468,-3.5131,-3.5761,-3.5935,-3.6266,-3.6993,-3.7133,-3.7203,-3.7273,-3.7336,-3.7397,-3.7438,-3.7393,-3.7363,-3.7478,-3.8492,-3.9313,-3.9409,-4.0307,-4.1436,-4.2077,-4.1724,-4.1396,-4.2173,-4.0984,-4.0393,-4.0823,-4.0906,-4.0735,-4.009,-3.9852,-3.9592,-4.2425,-4.232,-4.0971,-4.0107,-3.9699,-4.0207,-4.0234,-3.9926,-3.9926,-3.9709,-3.9283,-3.7803,-3.685,-3.6315,-3.63,-3.6661,-3.7294,-3.7461,-3.7974,-3.8768,-3.8967,-3.9149,-3.9299,-3.9415,-3.9332,-3.9017,-3.8574,-3.8142,-3.7665,-3.7119,-3.6473,-3.5744,-3.5396,-3.4873,-3.4233,-3.5055,-3.5479,-3.5462,-3.5661,-3.5462,-3.4899,-3.4733,-3.4005,-3.2735,-3.2531,-3.1835,-3.0555,-3.0489,-3.0489,-3.0506,-3.0593,-3.0468,-3.0098,-2.8657,0.0,0.0,0.0,0.0,0.0,0.0,0.0,0.0,0.0,-2.6133,-2.3363,0.0,-2.811,0.0,-3.0124,-3.1056,-2.9582,-3.0406,0.0,0.0,-3.0638,-3.1283,-3.1851,-3.2216,-3.2713,-3.3464,-3.369,-3.4005,-3.4568,-3.4783,-3.4805,-3.4619,-3.5399,-3.6265,-3.7047,-3.7199,-3.7242,-3.7294,-3.7284,-3.7383,-3.7324,-3.7383,-3.7364,-3.7375,-3.8122,-3.8716,-3.8711,-3.8987,-3.9441,-4.0037,-3.9625,-3.9466,-4.0078,-4.0235,-4.004,-3.9332,-3.8967,-3.8848,-3.8828,-3.8737,-3.854,-4.2969,-4.2953,-4.2539,-4.1988,-4.1326,-4.1392,-4.1193,-4.0845,-4.0829,-4.0613,-4.015,-3.904,-3.8328,-3.7989,-3.803,-3.8295,-3.8676,-3.8676,-3.8917,-3.9299,-3.9315,-3.9315,-3.9315,-3.9315,-3.9315,-3.9282,-3.8874,-3.8692,-3.8659,-3.8278,-3.7864,-3.745,-3.745,-3.7276,-3.6846,-3.5959,-3.5495,-3.5495,-3.5512,-3.5297,-3.4916,-3.4899,-3.4187,-3.2768,-3.2685,-3.2,-3.0555,-3.0489,-3.0357,-3.0026,-3.0009,-2.988,-2.9582,-2.8481,-2.7952,0.0,0.0,0.0,0.0,0.0,0.0,0.0,0.0,0.0,0.0,0.0,-3.0182,-2.9864,-3.1591,-3.205,-3.0522,-3.1437,-3.1918,-3.152,-3.1851,-3.2365,-3.3094,-3.3176,-3.3475,-3.4187,-3.4286,-3.4435,-3.4833,-3.4691,-3.4562,-3.4531,-3.4955,-3.5396,-3.5803,-3.5912,-3.5966,-3.6054,-3.6085,-3.6245,-3.6492,-3.6554,-3.6569,-3.6589,-3.7134,-3.7632,-3.761,-3.7831,-3.8235,-3.8839,-3.8459,-3.8202,-3.8841,-3.902,-3.8834,-3.8187,-3.7664,-3.757,-3.7863,-3.8107,-3.8231,-4.3664,-4.3615,-4.3615,-4.3218,-4.2572,-4.1943,-4.1562,-4.1397,-4.1397,-4.1309,-4.1094,-4.0525,-4.0276,-4.0227,-3.9597,-3.9315,-3.9315,-3.9315,-3.9315,-3.9315,-3.9315,-3.9315,-3.9315,-3.9315,-3.9315,-3.9315,-3.9315,-3.9315,-3.9315,-3.9315,-3.9249,-3.9166,-3.9149,-3.9116,-3.8917,-3.6456,-3.5181,-3.5181,-3.5181,-3.5098,-3.4899,-3.4899,-3.4187,-3.2801,-3.2685,-3.2,-3.0572,-3.0489,-3.0208,-2.9595,-2.9529,-2.9334,-2.882,-2.874,-2.9201,0.0,-2.9314,0.0,0.0,0.0,0.0,0.0,0.0,0.0,0.0,-3.1421,-3.2464,-3.1912,-3.2547,-3.263,-3.1813,-3.2481,-3.295,-3.2851,-3.2934,-3.3226,-3.3839,-3.3945,-3.4187,-3.4833,-3.4899,-3.4899,-3.4899,-3.448,-3.4444,-3.4781,-3.4583,-3.4351,-3.4221,-3.4407,-3.4517,-3.4324,-3.4424,-3.4946,-3.5454,-3.5554,-3.5569,-3.5612,-3.6037,-3.6375,-3.6409,-3.6795,-3.7368,-3.7979,-3.7676,-3.7534,-3.8233,-3.7842,-3.7439,-3.7315,-3.6911,-3.6761,-3.7195,-3.7674,-3.8123,-4.4141,-4.3615,-4.3615,-4.3515,-4.3367,-4.3234,-4.2489,-4.1397,-4.1397,-4.0763,-3.9713,-3.9564,-3.9514,-3.9497,-3.9365,-3.9315,-3.9315,-3.9315,-3.9315,-3.9315,-3.9315,-3.9315,-3.9315,-3.9315,-3.9315,-3.9315,-3.9315,-3.9315,-3.9315,-3.9315,-3.9,-3.8427,-3.8411,-3.8112,-3.7533,0.0,0.0,0.0,-3.6688,-3.6108,-3.4949,-3.4899,-3.4187,-3.2768,-3.2685,0.0,-3.0588,-3.0489,-3.0439,-3.029,-3.029,0.0,0.0,0.0,0.0,0.0,0.0,0.0,0.0,0.0,0.0,0.0,-3.189,-3.121,-2.9632,-3.1421,-3.2878,-3.3342,-3.4038,-3.3938,-3.2646,-3.369,-3.4237,-3.369,-3.4104,-3.4535,-3.4667,-3.4684,-3.475,-3.4866,-3.4899,-3.4899,-3.4899,-3.4804,-3.4619,-3.437,-3.4219,-3.3931,-3.3499,-3.3948,-3.4175,-3.3819,-3.4101,-3.4743,-3.54,-3.5459,-3.5489,-3.5519,-3.5579,-3.5684,-3.5729,-3.5774,-3.6103,-3.6755,-3.6772,-3.687,-3.7474,-3.7473,-3.718,-3.6761,-3.6567,-3.6522,-3.6641,-3.6761,-3.6836,-4.3959,0.0,-4.3615,-4.3615,0.0,-4.3615,-4.2953,-4.1988,-4.2324,-4.186,-4.0845,-4.016,-4.0028,-4.0282,-3.9613,-3.9497,-3.9829,-3.9464,-3.9315,-3.9315,-3.9315,-3.9315,-3.9315,-3.9315,-3.9315,-3.9315,-3.9315,-3.9315,-3.9315,-3.9315,-3.9133,-3.8742,-3.8742,-3.856,-3.8179,-3.8179,-3.7814,-3.7119,-3.7119,-3.6572,-3.5512,-3.5446,-3.475,-3.3315,-3.2862,0.0,0.0,0.0,0.0,0.0,0.0,0.0,0.0,-3.0704,0.0,-3.152,-3.1239,-3.1355,-3.205,-3.21,-3.2597,-3.3673,-3.4104,-3.369,-3.2232,-3.3143,-3.3922,-3.4303,-3.47,-3.4601,-3.3905,-3.4468,-3.475,-3.4419,-3.4667,-3.4899,-3.4899,-3.4899,-3.4899,-3.4899,-3.4899,-3.4899,-3.4883,-3.4643,-3.4423,-3.4126,-3.3841,-3.3594,-3.3272,-3.331,-3.329,-3.3096,-3.3904,-3.4488,-3.4562,-3.5145,-3.534,-3.5115,-3.4996,-3.5145,-3.5459,-3.522,-3.5205,-3.5833,-3.5998,-3.6133,-3.6372,-3.6462,-3.6372,-3.6088,-3.5998,-3.5998,-3.6028,-3.6252,-3.6492,-4.3698,-4.3615,-4.3615,-4.3615,-4.3615,-4.3615,-4.3251,-4.2704,0.0,0.0,0.0,-4.1077,-4.0878,-4.1309,-4.0061,-3.9829,-4.0343,-3.963,-3.9315,-3.9315,-3.9315,-3.9315,-3.9315,-3.9315,-3.9315,-3.9315,-3.9315,-3.9315,-3.9315,-3.9315,-3.9315,-3.9315,-3.9315,-3.9315,-3.9315,-3.9315,-3.8718,-3.7549,-3.7367,-3.6887,-3.6042,-3.6009,-3.5297,-3.3839,-3.3232,-3.2547,-3.1813,-3.1222,-3.087,-3.0907,-3.087,-3.0936,-3.1068,-3.109,-3.1686,-3.2945,-3.3077,-3.3591,-3.48,-3.4899,-3.4899,-3.4899,-3.5578,-3.5694,-3.4965,-3.5015,-3.5032,-3.4916,-3.4899,-3.4899,-3.4899,-3.4899,-3.4899,-3.4899,-3.4899,-3.4899,-3.4899,-3.4899,-3.4899,-3.4899,-3.4899,-3.4899,-3.4899,-3.4546,-3.425,-3.4201,-3.3942,-3.3459,-3.3303,-3.2985,-3.2792,-3.3026,-3.3848,-3.4288,-3.4137,-3.4727,-3.5131,-3.4618,-3.4496,-3.4628,-3.4923,-3.4681,-3.4577,-3.4981,-3.5145,-3.513,-3.5145,-3.528,-3.531,-3.5325,-3.5429,-3.5489,-3.5534,-3.5923,-3.6267,-4.4175,-4.3615,-4.3615,-4.3615,-4.3615,-4.3615,-4.3532,-4.3333,-4.2208,-4.1645,-4.1529,-4.1331,-4.1326,-4.1347,-4.058,-4.031,-4.0343,-3.963,-3.9315,-3.9315,-3.9315,-3.9315,-3.9315,-3.9315,-3.9315,-3.9315,-3.9315,-3.9315,-3.9315,-3.9315,-3.9315,-3.9315,-3.9315,-3.9315,-3.9315,-3.9315,-3.9199,-3.8984,-3.8361,-3.7384,-3.6059,-3.6009,-3.5297,-3.3872,-3.3707,-3.3315,-3.2586,-3.2431,-3.2365,-3.2381,-3.2381,-3.2663,-3.3276,-3.3309,-3.3707,-3.4502,-3.4584,-3.4684,-3.4899,-3.4899,-3.4899,-3.4932,-3.5578,-3.5694,-3.4998,-3.5479,-3.5578,-3.4998,-3.4932,-3.4899,-3.4899,-3.4899,-3.4899,-3.4899,-3.4899,-3.4899,-3.4899,-3.4899,-3.4899,-3.4899,-3.4899,-3.4899,-3.4899,-3.4828,-3.4756,-3.4756,-3.4554,-3.4456,-3.3993,-3.3449,-3.3365,-3.3811,-3.4112,-3.4429,-3.4628,-3.5042,-3.5,-3.4419,-3.4329,-3.4256,-3.4135,-3.3923,-3.3863,-3.386,-3.4042,-3.3966,-3.3966,-3.4262,-3.4658,-3.4794,-3.517,-3.5529,-3.5576,-3.5709,-3.5767,-4.3896,-4.3615,-4.3615,-4.3615,-4.3615,-4.3615,-4.3615,-4.3549,-4.2886,-4.234,-4.196,-4.1591,-4.1612,-4.1939,-4.1276,-4.0945,-4.0912,-4.0199,-3.9696,-3.9315,-3.9315,-3.9315,-3.9315,-3.9315,-3.9315,-3.9315,-3.9315,-3.9315,-3.9315,-3.9315,-3.9315,-3.9315,-3.9315,-3.9315,-3.9315,-3.9315,-3.9315,-3.9299,-3.8984,-3.8261,-3.7235,-3.7201,-3.6688,-3.5611,-3.4849,-3.4237,-3.3912,-3.3149,-3.2901,-3.3276,-3.3292,-3.3647,-3.4336,-3.4386,-3.4733,-3.5429,-3.5495,-3.5678,-3.6075,-3.6108,-3.5926,-3.5578,-3.6555,-3.6887,-3.6141,-3.6406,-3.629,-3.5578,-3.5495,-3.5313,-3.4949,-3.4899,-3.4899,-3.4899,-3.4899,-3.4899,-3.4899,-3.4899,-3.4899,-3.4899,-3.4899,-3.4899,-3.4899,-3.4899,-3.4899,-3.4899,-3.4899,-3.4787,-3.457,-3.4292,-3.3982,-3.3779,-3.425,-3.4459,-3.4309,-3.479,-3.4855,-3.4363,-3.4257,-3.4299,-3.4303,-3.4152,-3.4029,-3.4351,-3.4383,-3.4428,-3.4383,-3.4659,-3.4859,-3.4967,-3.5444,-3.586,-3.5953,-3.623,-3.6399,-4.3929,-4.4078,-4.3956,-4.392,-4.3933,-4.3754,-4.3658,-4.3658,-4.3641,-4.3343,-4.2734,-4.2125,-4.222,-4.2638,-4.1976,-4.1629,-4.1529,-4.0928,-4.0233,-3.9597,-3.9547,-3.9464,-3.9315,-3.9315,-3.9315,-3.9315,-3.9315,-3.9325,-3.9325,-3.9352,-3.9352,-3.9379,-3.9405,-3.9379,-3.9405,-3.9352,-3.9325,-3.9325,-3.9299,-3.8924,-3.8245,-3.8212,-3.7847,-3.7085,-3.6009,-3.5396,-3.533,-3.4137,-3.3707,-3.4237,-3.4137,-3.4319,-3.4866,-3.5048,-3.5413,-3.5943,-3.6158,-3.6489,-3.7036,-3.7119,-3.687,-3.634,-3.7466,-3.7937,-3.7466,-3.7516,-3.7218,-3.6406,-3.6075,-3.5744,-3.528,-3.4982,-3.4899,-3.4899,-3.4899,-3.4899,-3.4899,-3.4899,-3.4899,-3.4899,-3.4899,-3.4899,-3.4899,-3.4899,-3.4899,-3.4899,-3.4899,-3.4899,-3.4899,-3.4899,-3.4505,-3.412,-3.4468,-3.4713,-3.3802,-3.4409,-3.4776,-3.4287,-3.4186,-3.4268,-3.4443,-3.4211,-3.4159,-3.4455,-3.4624,-3.4549,-3.4683,-3.4829,-3.4879,-3.4917,-3.5404,-3.6025,-3.6232,-3.6607,-3.7018,-4.497,-4.5481,-4.5053,-4.4936,-4.4892,-4.4206,-4.3868,-4.3868,-4.3868,-4.373,-4.3462,-4.3416,-4.3413,-4.3383,-4.275,-4.2419,-4.2319,-4.1657,-4.0928,-4.0343,-4.031,-3.9945,-3.9358,-3.9299,-3.9315,-3.9299,-3.9299,-3.9379,-3.9484,-3.9501,-3.9554,-3.9651,-3.9677,-3.9651,-3.9651,-3.9537,-3.9484,-3.9458,-3.9369,-3.8924,-3.8278,-3.8212,-3.7864,-3.7135,-3.6986,-3.6903,-3.6837,-3.6141,-3.5727,-3.5744,-3.5148,-3.4833,-3.4965,-3.5528,-3.5943,-3.6059,-3.6655,-3.7036,-3.7119,-3.7119,-3.7119,-3.7085,-3.7739,-3.8212,-3.8146,-3.8676,-3.8486,-3.7301,-3.6439,-3.6075,-3.586,-3.5346,-3.4998,-3.4916,-3.4998,-3.4899,-3.4965,-3.4899,-3.4899,-3.4899,-3.5032,-3.4916,-3.4982,-3.4932,-3.4899,-3.4899,-3.4899,-3.4899,-3.4899,-3.4899,-3.4899,-3.4715,-3.4929,-3.4881,-3.4676,-3.4789,-3.4734,-3.4279,-3.4154,-3.4114,-3.3894,-3.3662,-3.3398,-3.4011,-3.3694,-3.3768,-3.381,-3.3851,-3.4367,-3.4609,-3.5058,-3.5572,-3.6124,-3.6527,-3.678,-4.5824,-4.6024,-4.5414,-4.4905,-4.4516,-4.4173,-4.4027,-4.4027,-4.4027,-4.3969,-4.3894,-4.3894,-4.3835,-4.3747,-4.3343,-4.3036,-4.276,-4.2392,-4.1671,-4.0704,-4.0638,-4.0238,-3.9587,-3.9547,-3.952,-3.952,-3.9537,-3.9547,-3.9599,-3.9616,-3.9642,-3.9703,-3.9703,-3.9703,-3.9703,-3.9625,-3.9616,-3.9599,-3.9547,-3.937,-3.9111,-3.8999,-3.884,-3.8524,-3.8109,-3.7825,-3.7698,-3.7052,-3.6655,-3.6638,-3.6357,-3.6208,-3.6208,-3.6489,-3.6854,-3.7284,-3.7996,-3.8212,-3.7798,-3.8146,-3.8212,-3.7798,-3.8427,-3.8868,-3.8841,-3.9149,-3.9017,-3.8444,-3.7748,-3.7003,-3.6191,-3.6108,-3.586,-3.523,-3.5644,-3.6025,-3.5595,-3.5943,-3.6224,-3.6191,-3.5827,-3.5562,-3.5479,-3.5164,-3.4932,-3.4899,-3.4899,-3.4899,-3.4899,-3.4899,-3.4899,-3.4899,-3.4899,-3.4899,-3.4899,-3.4899,-3.478,-3.4659,-3.4586,-3.4407,-3.4267,-3.4185,-3.4243,-3.4177,-3.4127,-3.4127,-3.4333,-3.4356,-3.4623,-3.4718,-3.5256,-3.6101,-3.7731,-3.7703,-3.7942,-4.6726,-4.6742,-4.5888,-4.5127,-4.4514,-4.4267,-4.4155,-4.4155,-4.4155,-4.4155,-4.4097,-4.4097,-4.4068,-4.3981,-4.3822,-4.3577,-4.3299,-4.318,-4.2557,-4.1452,-4.1201,-4.0715,-4.0038,-3.977,-3.9821,-3.9955,-3.9804,-3.972,-3.9755,-3.9807,-3.9807,-3.9807,-3.9807,-3.9807,-3.9807,-3.9781,-3.9755,-3.9755,-3.9729,-3.9729,-3.9729,-3.9668,-3.9606,-3.953,-3.9063,-3.8711,-3.8607,-3.7884,-3.7502,-3.7502,-3.7319,-3.7203,-3.7178,-3.7335,-3.7757,-3.8444,-3.9,-3.9083,-3.8543,-3.9017,-3.9083,-3.8626,-3.9033,-3.9315,-3.9315,-3.9315,-3.9315,-3.9232,-3.8808,-3.7947,-3.6936,-3.6903,-3.6589,-3.5727,-3.6522,-3.6854,-3.6423,-3.682,-3.7069,-3.7052,-3.6589,-3.6307,-3.6208,-3.5711,-3.5263,-3.5247,-3.5048,-3.4899,-3.4899,-3.4899,-3.4899,-3.4899,-3.4899,-3.4899,-3.4899,-3.4899,-3.4899,-3.4899,-3.4875,-3.4851,-3.4899,-3.4899,-3.4899,-3.4578,-3.4828,-3.4875,-3.4691,-3.482,-3.4885,-3.4998,-3.5388,-3.6299,-3.784,-3.8011,-3.855,-4.7764,-4.8147,-4.6857,-4.6018,-4.5573,-4.4737,-4.436,-4.4444,-4.436,-4.4241,-4.4176,-4.4126,-4.4184,-4.4281,-4.4126,-4.4051,-4.403,-4.3997,-4.3545,-4.2752,-4.2166,-4.1469,-4.0759,-4.0055,-4.0089,-4.0618,-4.0098,-3.9831,-3.9918,-3.9995,-4.007,-4.007,-4.0045,-4.0087,-4.0045,-3.9952,-3.9901,-3.9884,-3.9781,-3.9755,-3.9858,-3.9884,-3.9824,-3.9703,-3.9653,-3.9577,-3.9527,-3.8915,-3.853,-3.853,-3.7928,-3.7477,-3.7411,-3.7969,-3.8617,-3.9143,-3.9265,-3.9282,-3.9232,-3.9292,-3.9292,-3.9232,-3.9276,-3.9315,-3.9325,-3.9325,-3.9352,-3.9299,-3.9259,-3.8861,-3.8155,-3.7641,-3.7201,-3.692,-3.7036,-3.7185,-3.7069,-3.7201,-3.7135,-3.7201,-3.7152,-3.7019,-3.7003,-3.6423,-3.6025,-3.5843,-3.5396,-3.5032,-3.5114,-3.5032,-3.4982,-3.4965,-3.4949,-3.4899,-3.4899,-3.4899,-3.4899,-3.4899,-3.4899,-3.4899,-3.4899,-3.4899,-3.4899,-3.4899,-3.4899,-3.4899,-3.4899,-3.4899,-3.4916,-3.4932,-3.4932,-3.5893,-3.7682,-3.735,-3.7963,-4.8293,-4.8074,-4.7551,-4.6954,-4.6397,-4.6034,-4.5887,-4.5882,-4.538,-4.5166,-4.5053,-4.4648,-4.4457,-4.4485,-4.4457,-4.4429,-4.4429,-4.4298,-4.3878,-4.3288,-4.2985,-4.2463,-4.1755,-4.1478,-4.1182,-4.1013,-4.0778,-4.0416,-4.0071,-4.007,-4.0113,-4.0113,-4.0113,-4.0113,-4.007,-4.0062,-4.0037,-4.0011,-3.9986,-3.9969,-4.0011,-4.0037,-4.0011,-3.9944,-3.9858,-3.9781,-3.9703,-3.9452,-3.9318,-3.9301,-3.9033,-3.8891,-3.8882,-3.9074,-3.9298,-3.9513,-3.9547,-3.9547,-3.9547,-3.9563,-3.9547,-3.9547,-3.9547,-3.9547,-3.9563,-3.9547,-3.9547,-3.9547,-3.9563,-3.9397,-3.9178,-3.8757,-3.8138,-3.74,-3.793,-3.8288,-3.803,-3.8195,-3.8493,-3.8427,-3.8146,-3.7665,-3.7251,-3.687,-3.6721,-3.6688,-3.6473,-3.629,-3.6208,-3.5926,-3.5595,-3.5528,-3.5214,-3.4899,-3.4899,-3.4899,-3.4899,-3.4899,-3.4899,-3.4899,-3.4899,-3.4899,-3.4899,-3.4899,-3.4899,-3.4899,-3.4899,-3.4899,-3.4899,-3.4899,-3.4899,-3.5678,-3.7466,-3.7284,-3.8096,-4.8578,-4.7956,-4.7906,-4.7479,-4.6819,-4.6786,-4.6786,-4.6735,-4.6278,-4.5923,-4.5635,-4.5145,-4.4852,-4.4632,-4.4598,-4.4598,-4.457,-4.4468,-4.4198,-4.3792,-4.3538,-4.3132,-4.2692,-4.2405,-4.2185,-4.1965,-4.1914,-4.1424,-4.0527,-4.0443,-4.035,-4.013,-4.0113,-4.0113,-4.0113,-4.0113,-4.0113,-4.0113,-4.0113,-4.0113,-4.0113,-4.0113,-4.0113,-4.007,-4.0011,-3.991,-3.9833,-3.9833,-3.9833,-3.9833,-3.9833,-3.9807,-3.9772,-3.9713,-3.9703,-3.9703,-3.9703,-3.9703,-3.9703,-3.9703,-3.9703,-3.9703,-3.9703,-3.9703,-3.9703,-3.9703,-3.9703,-3.9703,-3.9703,-3.9703,-3.9677,-3.952,-3.9016,-3.8234,-3.885,-3.9232,-3.879,-3.9132,-3.9375,-3.9325,-3.8983,-3.8484,-3.8026,-3.7743,-3.761,-3.7594,-3.7394,-3.7245,-3.7145,-3.6821,-3.6414,-3.6348,-3.5752,-3.5413,-3.5247,-3.5164,-3.4998,-3.4949,-3.4899,-3.4899,-3.4899,-3.4899,-3.4899,-3.4899,-3.4899,-3.4899,-3.4899,-3.4899,-3.4899,-3.4899,-3.5015,-3.5512,-3.6622,-3.735,-3.8212,-4.8595,-4.8007,-4.7906,-4.7597,-4.7039,-4.6921,-4.6836,-4.6955,-4.6786,-4.6346,-4.5855,-4.5669,-4.5196,-4.4716,-4.4598,-4.4598,-4.4598,-4.457,-4.4536,-4.4401,-4.3809,-4.3494,-4.3386,-4.2828,-4.2777,-4.3139,-4.3223,-4.2506,-4.117,-4.1001,-4.0679,-4.0197,-4.0113,-4.0113,-4.0113,-4.0113,-4.0113,-4.0113,-4.0113,-4.0113,-4.0113,-4.0113,-4.0113,-4.0113,-4.0087,-4.0087,-4.007,-4.007,-4.0045,-4.007,-4.0087,-4.002,-3.991,-3.9807,-3.9746,-3.9729,-3.9729,-3.9703,-3.9729,-3.9729,-3.9755,-3.9755,-3.9729,-3.9755,-3.9755,-3.9755,-3.9755,-3.9755,-3.9755,-3.9729,-3.9729,-3.9703,-3.9627,-3.9627,-3.9618,-3.9601,-3.9627,-3.9644,-3.9703,-3.9677,-3.9551,-3.9661,-3.9493,-3.8982,-3.8572,-3.843,-3.8087,-3.7753,-3.772,-3.7519,-3.7328,-3.7128,-3.6605,-3.6042,-3.5744,-3.5462,-3.5214,-3.5015,-3.4949,-3.4899,-3.4899,-3.4899,-3.4899,-3.4899,-3.4899,-3.4899,-3.4899,-3.4899,-3.4899,-3.4932,-3.5098,-3.5462,-3.6456,-3.74,-3.8063,-4.8866,-4.868,-4.8663,-4.8545,-4.8257,-4.78,-4.7834,-4.8156,-4.7276,-4.6667,-4.6397,-4.5923,-4.528,-4.4705,-4.4598,-4.4598,-4.4598,-4.4598,-4.4598,-4.4564,-4.4299,-4.4181,-4.4175,-4.3972,-4.369,-4.324,-4.2327,-4.1694,-4.1238,-4.073,-4.0299,-4.013,-4.0113,-4.0113,-4.0113,-4.0113,-4.0113,-4.0113,-4.0113,-4.0113,-4.0113,-4.0113,-4.0113,-4.0113,-4.0113,-4.0113,-4.0113,-4.0113,-4.0113,-4.0113,-4.0113,-4.0087,-4.0037,-4.0011,-3.9986,-3.9969,-3.9969,-3.9969,-3.9969,-3.9969,-3.9944,-3.9969,-3.9986,-3.9986,-3.9969,-3.9986,-3.9961,-3.9986,-3.9969,-3.9969,-3.9969,-3.9969,-3.9893,-3.9687,-3.9703,-3.9703,-3.9729,-3.9703,-3.9703,-3.9703,-3.9703,-3.9703,-3.9687,-3.9385,-3.9292,-3.9215,-3.9032,-3.8907,-3.8805,-3.8371,-3.8078,-3.7986,-3.7319,-3.6796,-3.6597,-3.6398,-3.6125,-3.5711,-3.5413,-3.5164,-3.5098,-3.4899,-3.4899,-3.4899,-3.4899,-3.4899,-3.4899,-3.4899,-3.4899,-3.5065,-3.528,-3.5959,-3.687,-3.7533,-3.8063,-4.9199,-4.9032,-4.9243,-4.9199,-4.8951,-4.8494,-4.8578,-4.8798,-4.775,-4.7056,-4.6684,-4.6024,-4.528,-4.4716,-4.4598,-4.4598,-4.4598,-4.4598,-4.4598,-4.4598,-4.4598,-4.4598,-4.4598,-4.4598,-4.4367,-4.3741,-4.2625,-4.188,-4.1593,-4.1119,-4.0654,-4.0214,-4.0383,-4.0367,-4.0146,-4.0113,-4.0113,-4.0113,-4.0113,-4.0113,-4.0113,-4.0113,-4.0113,-4.0113,-4.0113,-4.0113,-4.0113,-4.0113,-4.0113,-4.0113,-4.0113,-4.0113,-4.0113,-4.0113,-4.0113,-4.0113,-4.0113,-4.0096,-4.0113,-4.007,-4.0113,-4.0113,-4.0113,-4.0113,-4.0113,-4.0113,-4.0113,-4.0113,-4.0113,-4.0113,-4.0096,-4.0113,-3.9995,-3.9867,-3.9858,-3.9858,-3.9858,-3.9858,-3.9841,-3.9858,-3.9858,-3.9841,-3.9841,-3.9841,-3.9816,-3.9755,-3.9781,-3.9833,-3.9645,-3.9276,-3.9049,-3.8721,-3.8136,-3.7785,-3.7601,-3.7352,-3.7085,-3.6555,-3.6025,-3.5711,-3.5495,-3.5081,-3.4899,-3.4899,-3.4899,-3.4899,-3.4899,-3.4899,-3.4916,-3.5181,-3.5346,-3.5777,-3.6373,-3.7126,-3.7765,-4.9555,-4.9138,-4.9615,-4.9432,-4.8897,-4.8748,-4.8714,-4.8765,-4.797,-4.7259,-4.6701,-4.6024,-4.528,-4.4716,-4.4598,-4.4598,-4.4598,-4.4598,-4.4598,-4.4598,-4.4598,-4.4598,-4.4598,-4.4598,-4.4547,-4.4395,-4.3656,-4.2929,-4.2185,-4.1948,-4.1551,-4.0434,-4.0798,-4.0849,-4.0375,-4.0197,-4.0197,-4.0113,-4.0113,-4.0113,-4.0113,-4.0113,-4.0113,-4.0113,-4.0113,-4.0113,-4.0113,-4.0113,-4.0113,-4.0113,-4.0113,-4.0113,-4.0113,-4.0113,-4.0113,-4.0113,-4.0113,-4.0113,-4.0113,-4.0113,-4.0113,-4.0113,-4.0113,-4.0113,-4.0113,-4.0113,-4.0113,-4.0113,-4.0113,-4.0113,-4.0113,-4.0113,-4.007,-4.0096,-4.0062,-4.0062,-4.0087,-4.0087,-4.0062,-4.0045,-4.0113,-4.0096,-4.0045,-4.0045,-4.0045,-4.002,-4.0037,-4.002,-3.9952,-3.9766,-3.985,-3.9445,-3.8856,-3.8662,-3.8444,-3.8242,-3.7991,-3.7775,-3.7086,-3.6506,-3.6009,-3.5528,-3.5164,-3.5131,-3.5015,-3.4982,-3.4899,-3.4916,-3.4899,-3.4998,-3.5164,-3.5346,-3.6009,-3.6953,-3.7897,-4.9803,-4.9644,-4.9364,-4.8833,-4.8156,-4.7631,-4.7733,-4.7986,-4.6853,-4.662,-4.6561,-4.6024,-4.5275,-4.4649,-4.4598,-4.4598,-4.4626,-4.4632,-4.4598,-4.4598,-4.4598,-4.4598,-4.4598,-4.4598,-4.4598,-4.4496,-4.3792,-4.3031,-4.2313,-4.1897,-4.1373,-4.095,-4.1119,-4.1136,-4.0933,-4.0849,-4.0595,-4.018,-4.0113,-4.0113,-4.0113,-4.0113,-4.0113,-4.0113,-4.0113,-4.0113,-4.0113,-4.0113,-4.0113,-4.0113,-4.0113,-4.0113,-4.0113,-4.0113,-4.0113,-4.0113,-4.0113,-4.0113,-4.0113,-4.0113,-4.0113,-4.0113,-4.0113,-4.0113,-4.0113,-4.0113,-4.0113,-4.0113,-4.0113,-4.0113,-4.0113,-4.0113,-4.0113,-4.0113,-4.0113,-4.0113,-4.0113,-4.0113,-4.0113,-4.0113,-4.0113,-4.0113,-4.0113,-4.0113,-4.0062,-4.0011,-4.002,-4.007,-3.9995,-3.9961,-3.9926,-3.9858,-3.9504,-3.941,-3.9308,-3.9094,-3.8959,-3.8899,-3.8273,-3.7466,-3.6854,-3.6191,-3.5909,-3.5744,-3.5479,-3.5379,-3.5098,-3.4932,-3.4916,-3.5065,-3.5512,-3.5976,-3.6489,-3.7284,-3.8295,-5.0113,-4.989,-4.9526,-4.8804,-4.7932,-4.7678,-4.7675,-4.7597,-4.6803,-4.6405,-4.6504,-4.5868,-4.5288,-4.4913,-4.4692,-4.4703,-4.4886,-4.5004,-4.4902,-4.4598,-4.4598,-4.4598,-4.4598,-4.4598,-4.4598,-4.4513,-4.3792,-4.3234,-4.2794,-4.232,-4.1999,-4.1711,-4.1644,-4.1525,-4.1136,-4.0849,-4.0544,-4.0163,-4.0113,-4.0113,-4.0113,-4.0113,-4.0113,-4.0113,-4.0113,-4.0113,-4.0113,-4.0113,-4.0113,-4.0113,-4.0113,-4.0113,-4.0113,-4.0113,-4.0113,-4.0113,-4.0113,-4.0113,-4.0113,-4.0113,-4.0113,-4.0113,-4.0113,-4.0113,-4.0113,-4.0113,-4.0113,-4.0113,-4.0113,-4.0113,-4.0113,-4.0113,-4.0113,-4.0113,-4.0113,-4.0113,-4.0113,-4.0113,-4.0113,-4.0113,-4.0113,-4.0113,-4.0113,-4.0113,-4.0045,-4.002,-4.0062,-4.0045,-4.0011,-3.9986,-3.9977,-3.9935,-3.9858,-3.9714,-3.9577,-3.9406,-3.9251,-3.9242,-3.9082,-3.8297,-3.7575,-3.6879,-3.6655,-3.639,-3.6042,-3.5777,-3.5644,-3.5479,-3.5429,-3.5711,-3.6174,-3.6357,-3.6671,-3.7615,-3.8652,-5.0297,-4.9798,-4.9769,-4.9003,-4.792,-4.8266,-4.8031,-4.7561,-4.6995,-4.6717,-4.6379,-4.5593,-4.5157,-4.5205,-4.4748,-4.4814,-4.5186,-4.5275,-4.5066,-4.475,-4.4598,-4.4598,-4.4598,-4.4598,-4.4598,-4.4513,-4.3826,-4.3521,-4.3318,-4.3257,-4.3014,-4.2489,-4.232,-4.1948,-4.1424,-4.0713,-4.0248,-4.013,-4.0113,-4.0113,-4.0113,-4.0113,-4.0113,-4.0113,-4.0113,-4.0113,-4.0113,-4.0113,-4.0113,-4.0113,-4.0113,-4.0113,-4.0113,-4.0113,-4.0113,-4.0113,-4.0113,-4.0113,-4.0113,-4.0113,-4.0113,-4.0113,-4.0113,-4.0113,-4.0113,-4.0113,-4.0113,-4.0113,-4.0113,-4.0113,-4.0113,-4.0113,-4.0113,-4.0113,-4.0113,-4.0113,-4.0113,-4.0113,-4.0113,-4.0113,-4.0113,-4.0113,-4.0113,-4.0113,-4.0113,-4.0045,-4.0087,-4.0087,-4.0045,-4.0062,-4.0062,-4.0062,-3.9986,-3.9884,-3.9755,-3.9651,-3.9487,-3.9391,-3.9418,-3.8916,-3.8225,-3.7626,-3.7376,-3.7085,-3.6704,-3.6605,-3.6671,-3.6489,-3.6208,-3.6241,-3.6622,-3.6357,-3.6241,-3.7715,-3.8934,-4.9671,-4.9039,-4.8965,-4.8122,-4.7021,-4.7299,-4.743,-4.7212,-4.6178,-4.61,-4.6153,-4.5258,-4.4831,-4.4786,-4.4682,-4.4665,-4.4797,-4.4902,-4.4716,-4.4649,-4.4598,-4.4598,-4.4598,-4.4598,-4.4598,-4.4519,-4.4434,-4.4012,-4.3589,-4.3477,-4.3341,-4.3105,-4.254,-4.2219,-4.1914,-4.1136,-4.0629,-4.0231,-4.0113,-4.0113,-4.0113,-4.0113,-4.0113,-4.0113,-4.0113,-4.0113,-4.0113,-4.0113,-4.0113,-4.0113,-4.0113,-4.0113,-4.0113,-4.0113,-4.0113,-4.0113,-4.0113,-4.0113,-4.0113,-4.0113,-4.0113,-4.0113,-4.0113,-4.0113,-4.0113,-4.0113,-4.0113,-4.0113,-4.0113,-4.0113,-4.0113,-4.0113,-4.0113,-4.0113,-4.0113,-4.0113,-4.0113,-4.0113,-4.0113,-4.0113,-4.0113,-4.0113,-4.0113,-4.0113,-4.0113,-4.0113,-4.0113,-4.0113,-4.0113,-4.0113,-4.0113,-4.0113,-4.0062,-3.9961,-3.9875,-3.9772,-3.9625,-3.9547,-3.952,-3.9661,-3.8968,-3.84,-3.8124,-3.7757,-3.7342,-3.7375,-3.7566,-3.7201,-3.687,-3.6986,-3.7052,-3.692,-3.7135,-3.8311,-3.8907,-4.949,-4.9107,-4.8715,-4.7944,-4.7109,-4.7151,-4.7062,-4.6751,-4.6029,-4.578,-4.5776,-4.5162,-4.4961,-4.4889,-4.472,-4.4692,-4.4841,-4.4709,-4.4818,-4.4942,-4.4835,-4.4598,-4.4598,-4.4598,-4.4598,-4.4598,-4.4581,-4.4282,-4.4062,-4.391,-4.3792,-4.3341,-4.2675,-4.2066,-4.1728,-4.1102,-4.0493,-4.0197,-4.0113,-4.0113,-4.0113,-4.0113,-4.0113,-4.0113,-4.0113,-4.0113,-4.0113,-4.0113,-4.0113,-4.0113,-4.0113,-4.0113,-4.0113,-4.0113,-4.0113,-4.0113,-4.0113,-4.0113,-4.0113,-4.0113,-4.0113,-4.0113,-4.0113,-4.0113,-4.0113,-4.0113,-4.0113,-4.0113,-4.0113,-4.0113,-4.0113,-4.0113,-4.0113,-4.0113,-4.0113,-4.0113,-4.0113,-4.0113,-4.0113,-4.0113,-4.0113,-4.0113,-4.0113,-4.0113,-4.0113,-4.0113,-4.0113,-4.0113,-4.0113,-4.0113,-4.0113,-4.0113,-4.0113,-4.0062,-3.9961,-3.9875,-3.9729,-3.9677,-3.9651,-3.9924,-3.9844,-3.9325,-3.8847,-3.8555,-3.8271,-3.8328,-3.8377,-3.7963,-3.7599,-3.7599,-3.7632,-3.7665,-3.7947,-3.8626,-3.9033,-4.9451,-4.9276,-4.8513,-4.7884,-4.7382,-4.7116,-4.6793,-4.6447,-4.6089,-4.5674,-4.5346,-4.5241,-4.5062,-4.5089,-4.4759,-4.4852,-4.4971,-4.4892,-4.4919,-4.5449,-4.4902,-4.4784,-4.4784,-4.4733,-4.4598,-4.4598,-4.4598,-4.4547,-4.4547,-4.4564,-4.4181,-4.3572,-4.2861,-4.2269,-4.1457,-4.0679,-4.0316,-4.0146,-4.0113,-4.0113,-4.0113,-4.0113,-4.0113,-4.0113,-4.0113,-4.0113,-4.0113,-4.0113,-4.0113,-4.0113,-4.0113,-4.0113,-4.0113,-4.0113,-4.0113,-4.0113,-4.0113,-4.0113,-4.0113,-4.0113,-4.0113,-4.0113,-4.0113,-4.0113,-4.0113,-4.0113,-4.0113,-4.0113,-4.0113,-4.0113,-4.0113,-4.0113,-4.0113,-4.0113,-4.0113,-4.0113,-4.0113,-4.0113,-4.0113,-4.0113,-4.0113,-4.0113,-4.0113,-4.0113,-4.0113,-4.0113,-4.0113,-4.0113,-4.0113,-4.0113,-4.0113,-4.0113,-4.0113,-4.0113,-4.0037,-3.9986,-3.9858,-3.9833,-3.9781,-3.9995,-4.0301,-3.9797,-3.9311,-3.9472,-3.9352,-3.9226,-3.9,-3.8642,-3.8377,-3.8261,-3.8228,-3.8278,-3.8543,-3.8907,-3.9166,-4.9118,-4.8503,-4.774,-4.6981,-4.643,-4.6295,-4.6237,-4.6093,-4.5658,-4.5381,-4.5267,-4.4906,-4.4731,-4.4692,-4.4665,-4.4682,-4.4816,-4.4795,-4.5106,-4.5568,-4.5128,-4.5004,-4.5263,-4.4925,-4.4682,-4.4598,-4.4598,-4.4598,-4.4598,-4.4564,-4.4429,-4.4181,-4.3555,-4.2777,-4.2016,-4.1373,-4.0739,-4.035,-4.0299,-4.0333,-4.013,-4.0113,-4.0113,-4.0113,-4.0113,-4.0113,-4.0113,-4.0113,-4.0113,-4.0113,-4.0113,-4.0113,-4.0113,-4.0113,-4.0113,-4.0113,-4.0113,-4.0113,-4.0113,-4.0113,-4.0113,-4.0113,-4.0113,-4.0113,-4.0113,-4.0113,-4.0113,-4.0113,-4.0113,-4.0113,-4.0113,-4.0113,-4.0113,-4.0113,-4.0113,-4.0113,-4.0113,-4.0113,-4.0113,-4.0113,-4.0113,-4.0113,-4.0113,-4.0113,-4.0113,-4.0113,-4.0113,-4.0113,-4.0113,-4.0113,-4.0113,-4.0113,-4.0113,-4.0113,-4.0087,-4.0087,-4.0037,-3.9995,-3.9977,-3.9976,-4.01,-3.9897,-3.9726,-3.9874,-3.9684,-3.9299,-3.9166,-3.91,-3.9033,-3.8791,-3.8841,-3.8917,-3.9083,-3.9232,-3.9365,-4.8733,-4.7809,-4.7671,-4.7139,-4.6334,-4.5847,-4.5754,-4.5774,-4.5223,-4.4944,-4.4879,-4.4692,-4.4598,-4.4598,-4.4598,-4.4784,-4.5106,-4.5162,-4.5585,-4.6007,-4.5923,-4.5618,-4.5771,-4.5297,-4.4953,-4.4716,-4.4598,-4.4632,-4.4598,-4.4598,-4.4429,-4.3944,-4.3555,-4.3047,-4.2405,-4.1931,-4.1356,-4.0865,-4.0976,-4.0823,-4.0197,-4.0113,-4.0113,-4.0113,-4.0113,-4.0113,-4.0113,-4.0113,-4.0113,-4.0113,-4.0113,-4.0113,-4.0113,-4.0113,-4.0113,-4.0113,-4.0113,-4.0113,-4.0113,-4.0113,-4.0113,-4.0113,-4.0113,-4.0113,-4.0113,-4.0113,-4.0113,-4.0113,-4.0113,-4.0113,-4.0113,-4.0113,-4.0113,-4.0113,-4.0113,-4.0113,-4.0113,-4.0113,-4.013,-4.0146,-4.0113,-4.0113,-4.0113,-4.0113,-4.0113,-4.0113,-4.0113,-4.0113,-4.0113,-4.0113,-4.0113,-4.0113,-4.0113,-4.0113,-4.0113,-4.0113,-4.0113,-4.007,-4.0079,-4.0079,-4.0034,-3.988,-4.0014,-4.0182,-3.9862,-3.9348,-3.9299,-3.9216,-3.9282,-3.9348,-3.9265,-3.9249,-3.9381,-3.9514,-3.968,-4.8309,-4.7239,-4.7444,-4.7021,-4.6218,-4.5596,-4.536,-4.5377,-4.5124,-4.4906,-4.4759,-4.4896,-4.4934,-4.4958,-4.5145,-4.5476,-4.5915,-4.6067,-4.6698,-4.7066,-4.6963,-4.6583,-4.6104,-4.5838,-4.5568,-4.5026,-4.5179,-4.4886,-4.4615,-4.4598,-4.4215,-4.3995,-4.3707,-4.3267,-4.2692,-4.2557,-4.2066,-4.183,-4.1897,-4.1542,-4.0654,-4.018,-4.0113,-4.0113,-4.0113,-4.0113,-4.0113,-4.0113,-4.0113,-4.0113,-4.0113,-4.0113,-4.0113,-4.0113,-4.0113,-4.0113,-4.0113,-4.0113,-4.0113,-4.0113,-4.0113,-4.0113,-4.0113,-4.0113,-4.0113,-4.0113,-4.0113,-4.0113,-4.0113,-4.0113,-4.0113,-4.0113,-4.0113,-4.0113,-4.0113,-4.0113,-4.0113,-4.0146,-4.0299,-4.0265,-4.018,-4.0163,-4.0214,-4.0113,-4.0113,-4.0113,-4.0113,-4.0113,-4.0113,-4.0113,-4.0113,-4.0113,-4.0113,-4.0113,-4.0113,-4.0113,-4.0113,-4.0096,-4.0054,-4.0062,-4.0025,-3.9926,-4.0151,-4.0325,-3.9763,-3.9315,-3.9315,-3.9481,-3.9696,-3.9746,-3.9597,-3.973,-4.0117,-4.0166,-4.021,-4.7873,-4.7204,-4.6126,-4.5546,-4.5484,-4.5381,-4.5096,-4.4922,-4.5572,-4.5657,-4.5241,-4.5665,-4.5843,-4.5914,-4.6532,-4.6639,-4.6836,-4.7434,-4.8082,-4.8323,-4.786,-4.7249,-4.6726,-4.6667,-4.6244,-4.5703,-4.6075,-4.5686,-4.5111,-4.4806,-4.4682,-4.4536,-4.4434,-4.4096,-4.3538,-4.3335,-4.2895,-4.232,-4.2252,-4.1914,-4.117,-4.051,-4.0231,-4.018,-4.0113,-4.0163,-4.0197,-4.018,-4.013,-4.018,-4.013,-4.0113,-4.0113,-4.0113,-4.0113,-4.0113,-4.0113,-4.0113,-4.0113,-4.0113,-4.0113,-4.0113,-4.0113,-4.0113,-4.0113,-4.0113,-4.0113,-4.0113,-4.0113,-4.0113,-4.0113,-4.0146,-4.013,-4.0248,-4.0383,-4.0333,-4.0299,-4.0722,-4.0807,-4.0823,-4.0874,-4.0553,-4.0383,-4.0231,-4.0113,-4.0113,-4.013,-4.0197,-4.0214,-4.0316,-4.035,-4.04,-4.0417,-4.0417,-4.0434,-4.0383,-4.0502,-4.04,-4.0392,-4.0365,-4.0411,-4.0481,-4.0198,-4.019,-3.9727,-3.9524,-3.9591,-3.9806,-4.0127,-4.016,-3.9995,-4.0448,-4.111,-4.1028,-4.0862,-4.6846,-4.6632,-4.6804,-4.6427,-4.5792,-4.5749,-4.5657,-4.5554,-4.5893,-4.595,-4.58,-4.5992,-4.6116,-4.6242,-4.6645,-4.7135,-4.7631,-4.8407,-4.8955,-4.9223,-4.8706,-4.806,-4.7539,-4.7378,-4.7039,-4.6481,-4.6218,-4.6079,-4.5665,-4.5761,-4.5821,-4.571,-4.541,-4.5128,-4.4546,-4.4259,-4.3656,-4.3031,-4.2574,-4.2388,-4.2117,-4.139,-4.0739,-4.0705,-4.035,-4.0383,-4.0544,-4.0265,-4.0383,-4.0502,-4.0375,-4.0113,-4.0113,-4.0113,-4.0113,-4.0113,-4.0113,-4.0113,-4.0113,-4.0113,-4.0113,-4.0113,-4.0113,-4.0113,-4.0113,-4.0113,-4.0113,-4.0113,-4.0113,-4.013,-4.0265,-4.0519,-4.0663,-4.0781,-4.0976,-4.1119,-4.117,-4.1322,-4.1542,-4.1542,-4.1542,-4.1339,-4.1145,-4.1001,-4.1035,-4.1136,-4.1145,-4.1128,-4.0984,-4.0832,-4.0849,-4.0815,-4.0815,-4.0798,-4.0849,-4.0865,-4.128,-4.1288,-4.1403,-4.1341,-4.1271,-4.1171,-4.0913,-4.0815,-4.0761,-4.049,-4.0136,-4.0032,-4.0194,-4.031,-4.0409,-4.0994,-4.1607,-4.1939,-4.1922,-4.643,-4.6387,-4.7234,-4.7008,-4.6158,-4.622,-4.6213,-4.6098,-4.643,-4.643,-4.631,-4.6328,-4.6277,-4.6448,-4.6977,-4.7823,-4.8504,-4.9164,-4.9541,-4.9706,-4.9482,-4.8822,-4.8269,-4.8009,-4.7963,-4.7073,-4.6752,-4.6622,-4.6834,-4.689,-4.6847,-4.663,-4.5946,-4.5761,-4.562,-4.523,-4.4641,-4.3963,-4.3078,-4.2993,-4.3117,-4.1942,-4.1587,-4.1325,-4.1002,-4.0696,-4.1221,-4.0781,-4.0764,-4.0882,-4.0443,-4.0113,-4.0113,-4.0113,-4.0113,-4.0113,-4.0113,-4.0248,-4.0299,-4.0299,-4.0146,-4.0113,-4.0113,-4.0113,-4.0113,-4.0113,-4.0113,-4.0113,-4.0375,-4.0375,-4.0536,-4.1052,-4.1373,-4.1627,-4.1873,-4.2117,-4.2303,-4.2202,-4.2236,-4.2354,-4.2405,-4.2584,-4.2347,-4.2049,-4.2049,-4.2202,-4.2168,-4.2033,-4.1813,-4.1559,-4.1491,-4.1491,-4.1474,-4.1457,-4.1474,-4.1576,-4.1931,-4.2151,-4.2247,-4.2149,-4.1927,-4.1822,-4.1674,-4.1653,-4.1671,-4.1555,-4.13,-4.0724,-4.0266,-4.0895,-4.1425,-4.1574,-4.1988,-4.2419,-4.2738,-4.728,-4.6799,-4.6429,-4.6259,-4.6147,-4.6637,-4.6548,-4.6189,-4.7084,-4.7107,-4.6707,-4.6801,-4.6607,-4.6882,-4.7959,-4.8723,-4.8862,-5.062,-5.0474,-5.0248,-5.0167,-4.9332,-4.8775,-4.8724,-4.8941,-4.7979,-4.7496,-4.7526,-4.77,-4.7406,-4.6979,-4.6288,-4.6282,-4.6141,-4.5933,-4.5615,-4.5294,-4.4658,-4.3841,-4.3596,-4.3464,-4.2619,-4.1903,-4.2424,-4.1878,-4.1457,-4.2134,-4.1441,-4.1119,-4.1271,-4.0553,-4.0113,-4.0113,-4.0113,-4.0113,-4.0282,-4.0299,-4.057,-4.0865,-4.0595,-4.0231,-4.0146,-4.0248,-4.0417,-4.0502,-4.0248,-4.0163,-4.04,-4.0865,-4.1085,-4.1322,-4.1711,-4.2168,-4.2354,-4.2574,-4.2777,-4.2861,-4.2726,-4.2794,-4.3064,-4.3234,-4.3379,-4.3481,-4.3166,-4.2912,-4.3031,-4.2675,-4.2523,-4.2574,-4.2388,-4.2269,-4.2236,-4.2219,-4.2219,-4.2219,-4.2371,-4.2557,-4.2743,-4.2875,-4.2686,-4.2385,-4.2347,-4.2633,-4.2467,-4.2468,-4.2468,-4.2394,-4.1953,-4.1785,-4.2154,-4.239,-4.2274,-4.2522,-4.3019,-4.3251,-4.6794,-4.6863,-4.6334,-4.6286,-4.6613,-4.6799,-4.6613,-4.6196,-4.6525,-4.6619,-4.6435,-4.6593,-4.6758,-4.7291,-4.8249,-4.9108,-4.9321,-5.0063,-5.0157,-4.9976,-4.9646,-4.9219,-4.8883,-4.8944,-4.9029,-4.8524,-4.8189,-4.8107,-4.8311,-4.767,-4.7572,-4.7187,-4.6792,-4.6234,-4.5973,-4.5552,-4.515,-4.492,-4.4476,-4.4323,-4.4102,-4.3389,-4.2782,-4.3085,-4.2447,-4.2303,-4.2692,-4.1762,-4.1644,-4.1457,-4.0756,-4.04,-4.0265,-4.0248,-4.0434,-4.0696,-4.0764,-4.1153,-4.1576,-4.1271,-4.0984,-4.139,-4.1484,-4.1416,-4.128,-4.139,-4.1424,-4.1576,-4.1644,-4.1863,-4.1965,-4.2506,-4.3014,-4.3115,-4.325,-4.3436,-4.3498,-4.3396,-4.3436,-4.3724,-4.3927,-4.4107,-4.4209,-4.4231,-4.4039,-4.3836,-4.3386,-4.3064,-4.3166,-4.3183,-4.3064,-4.2997,-4.298,-4.298,-4.298,-4.3081,-4.3166,-4.3335,-4.3521,-4.3365,-4.3209,-4.3652,-4.3799,-4.3564,-4.325,-4.3171,-4.3146,-4.3144,-4.3011,-4.2783,-4.2704,-4.2704,-4.3102,-4.3565,-4.3615,-4.6454,-4.6613,-4.6244,-4.631,-4.6637,-4.666,-4.6454,-4.6165,-4.614,-4.615,-4.6226,-4.6446,-4.6857,-4.7546,-4.8352,-4.897,-4.9325,-4.9729,-4.9734,-4.9644,-4.9453,-4.9168,-4.9124,-4.9168,-4.9269,-4.8907,-4.8338,-4.8107,-4.8275,-4.7364,-4.7292,-4.743,-4.7427,-4.6834,-4.6169,-4.5295,-4.4814,-4.4814,-4.4654,-4.472,-4.4667,-4.3857,-4.3702,-4.3739,-4.3131,-4.3064,-4.3267,-4.276,-4.232,-4.2134,-4.1627,-4.0942,-4.0807,-4.084,-4.106,-4.1322,-4.161,-4.188,-4.2219,-4.2049,-4.1796,-4.2033,-4.2151,-4.2185,-4.2303,-4.2303,-4.2066,-4.2211,-4.2388,-4.2625,-4.2675,-4.3284,-4.3724,-4.3842,-4.3995,-4.4192,-4.4225,-4.4175,-4.4259,-4.4412,-4.4513,-4.4462,-4.4496,-4.453,-4.4479,-4.4293,-4.4073,-4.3842,-4.3944,-4.3927,-4.3809,-4.3775,-4.3758,-4.3758,-4.3775,-4.3792,-4.3809,-4.3927,-4.4124,-4.4276,-4.4316,-4.4598,-4.4564,-4.4142,-4.3895,-4.39,-4.3791,-4.3652,-4.3327,-4.2999,-4.3032,-4.3069,-4.3234,-4.3615,-4.3615,-4.6613,-4.614,-4.6137,-4.6137,-4.6154,-4.6116,-4.6074,-4.596,-4.6055,-4.6186,-4.6372,-4.6522,-4.7033,-4.7846,-4.8517,-4.8917,-4.915,-4.9576,-4.9585,-4.9273,-4.9424,-4.9364,-4.9333,-4.9333,-4.9303,-4.8907,-4.8443,-4.8135,-4.8094,-4.7764,-4.7551,-4.7381,-4.7488,-4.7317,-4.7003,-4.591,-4.5345,-4.5222,-4.4827,-4.4852,-4.4807,-4.4068,-4.4201,-4.435,-4.3916,-4.3775,-4.391,-4.3453,-4.3047,-4.2929,-4.2354,-4.188,-4.188,-4.1914,-4.2049,-4.2236,-4.2269,-4.2642,-4.3206,-4.2642,-4.254,-4.2625,-4.2828,-4.2726,-4.2472,-4.2439,-4.2608,-4.2939,-4.3098,-4.3369,-4.3656,-4.3995,-4.4265,-4.4445,-4.4547,-4.4598,-4.4598,-4.4598,-4.4598,-4.4598,-4.4615,-4.4615,-4.4632,-4.4649,-4.4699,-4.4649,-4.4598,-4.4598,-4.4581,-4.4496,-4.4293,-4.4231,-4.4198,-4.4215,-4.4198,-4.4412,-4.4496,-4.4598,-4.4598,-4.4598,-4.4598,-4.4598,-4.4547,-4.4451,-4.4333,-4.4142,-4.4123,-4.415,-4.3764,-4.3427,-4.3442,-4.3482,-4.3582,-4.3615,-4.3615,-4.7265,-4.707,-4.6718,-4.6278,-4.5853,-4.5641,-4.5399,-4.5218,-4.561,-4.5911,-4.6187,-4.6907,-4.7534,-4.8056,-4.8574,-4.8974,-4.9057,-4.9094,-4.9077,-4.9094,-4.9273,-4.9168,-4.9138,-4.9168,-4.9229,-4.9012,-4.868,-4.8578,-4.8663,-4.8274,-4.8257,-4.8156,-4.7627,-4.7075,-4.6726,-4.6027,-4.5563,-4.5433,-4.5004,-4.4665,-4.4797,-4.4455,-4.4359,-4.4835,-4.4342,-4.431,-4.4558,-4.3881,-4.3582,-4.3518,-4.2918,-4.2516,-4.2465,-4.2492,-4.2608,-4.2895,-4.3047,-4.3403,-4.3927,-4.3921,-4.3826,-4.3785,-4.3701,-4.3667,-4.3802,-4.3836,-4.3853,-4.3768,-4.3859,-4.4096,-4.4344,-4.435,-4.453,-4.453,-4.4598,-4.4598,-4.4598,-4.4598,-4.4598,-4.4598,-4.4598,-4.5083,-4.5281,-4.5337,-4.5371,-4.5247,-4.5213,-4.4806,-4.4699,-4.4626,-4.4496,-4.4496,-4.4496,-4.4547,-4.4598,-4.4598,-4.4598,-4.4598,-4.4598,-4.4598,-4.4598,-4.4598,-4.4581,-4.453,-4.4435,-4.4367,-4.4281,-4.4196,-4.4097,-4.3935,-4.3776,-4.3658,-4.3658,-4.3645,-4.3615,-4.7481,-4.7284,-4.6961,-4.6532,-4.6048,-4.5634,-4.5261,-4.5139,-4.5754,-4.621,-4.6667,-4.753,-4.8088,-4.8359,-4.8731,-4.9018,-4.9018,-4.9001,-4.9001,-4.9018,-4.9001,-4.9032,-4.9001,-4.9018,-4.9063,-4.9018,-4.9018,-4.8984,-4.8917,-4.8528,-4.8545,-4.8545,-4.8054,-4.7877,-4.7331,-4.6624,-4.5862,-4.5777,-4.5529,-4.5072,-4.4998,-4.4767,-4.4564,-4.4609,-4.4575,-4.4665,-4.4595,-4.4306,-4.3966,-4.3914,-4.3622,-4.3175,-4.3175,-4.3223,-4.3389,-4.369,-4.3859,-4.4096,-4.4412,-4.4513,-4.4395,-4.4445,-4.4598,-4.4598,-4.4598,-4.4429,-4.4462,-4.4479,-4.4649,-4.4649,-4.4666,-4.4682,-4.4733,-4.4733,-4.4733,-4.4733,-4.501,-4.5043,-4.5252,-4.5185,-4.5388,-4.579,-4.6119,-4.6089,-4.6174,-4.6016,-4.5841,-4.5411,-4.4997,-4.4924,-4.4913,-4.4913,-4.4761,-4.4699,-4.4666,-4.4598,-4.4598,-4.4598,-4.4598,-4.4598,-4.4598,-4.4598,-4.4598,-4.4598,-4.4525,-4.444,-4.431,-4.4196,-4.4126,-4.3981,-4.3793,-4.3734,-4.3704,-4.3674,-4.3615,-4.737,-4.6925,-4.6883,-4.6946,-4.6718,-4.6184,-4.5862,-4.5891,-4.6586,-4.7251,-4.7911,-4.7975,-4.8386,-4.8897,-4.9032,-4.9063,-4.9018,-4.9018,-4.9018,-4.9018,-4.9018,-4.9018,-4.9018,-4.9018,-4.9018,-4.9018,-4.9018,-4.9001,-4.8984,-4.8849,-4.89,-4.8951,-4.8595,-4.8494,-4.797,-4.7225,-4.6515,-4.6515,-4.5957,-4.5568,-4.5382,-4.4936,-4.4666,-4.4626,-4.4692,-4.4852,-4.4838,-4.4726,-4.4988,-4.5067,-4.4925,-4.4888,-4.4875,-4.4824,-4.4665,-4.4581,-4.453,-4.4699,-4.4784,-4.4835,-4.497,-4.5106,-4.4953,-4.4767,-4.4649,-4.4733,-4.4857,-4.4925,-4.5021,-4.4936,-4.4869,-4.4936,-4.4987,-4.4987,-4.4987,-4.5241,-4.5635,-4.5884,-4.6162,-4.6367,-4.6646,-4.6999,-4.7272,-4.7301,-4.7066,-4.6969,-4.68,-4.6458,-4.6031,-4.5599,-4.5589,-4.551,-4.5297,-4.4897,-4.4818,-4.4902,-4.4666,-4.4699,-4.4615,-4.4598,-4.4598,-4.4598,-4.4598,-4.4598,-4.4598,-4.4497,-4.4338,-4.4224,-4.4155,-4.3998,-4.3968,-4.3876,-4.3892,-4.3691,-4.3615,-4.8762,-4.8992,-4.8975,-4.8485,-4.7627,-4.7348,-4.7432,-4.774,-4.8086,-4.8375,-4.8563,-4.9095,-4.9185,-4.9046,-4.9453,-4.9333,-4.9138,-4.9018,-4.9018,-4.9032,-4.9063,-4.9032,-4.9032,-4.9063,-4.9032,-4.9032,-4.9032,-4.9001,-4.9001,-4.9001,-4.9032,-4.8968,-4.8765,-4.8785,-4.8551,-4.7851,-4.7704,-4.7263,-4.6542,-4.5986,-4.5579,-4.5049,-4.4761,-4.4637,-4.4852,-4.4954,-4.4879,-4.5008,-4.5178,-4.4961,-4.4814,-4.4731,-4.472,-4.4682,-4.4598,-4.4682,-4.5004,-4.5399,-4.5466,-4.5855,-4.6058,-4.6003,-4.6024,-4.5427,-4.5156,-4.5089,-4.5365,-4.5449,-4.5652,-4.572,-4.5737,-4.5754,-4.5754,-4.5754,-4.5799,-4.6007,-4.638,-4.6549,-4.6857,-4.7334,-4.7649,-4.8031,-4.8321,-4.8226,-4.8019,-4.796,-4.7785,-4.7449,-4.7048,-4.6587,-4.6268,-4.6206,-4.5971,-4.5642,-4.5449,-4.5483,-4.5089,-4.4784,-4.4784,-4.4699,-4.4598,-4.4598,-4.4598,-4.457,-4.4525,-4.444,-4.4338,-4.4241,-4.4114,-4.429,-4.429,-4.4147,-4.4038,-4.4019,-4.4059,-4.9406,-4.9526,-4.9526,-4.918,-4.875,-4.8699,-4.8964,-4.9274,-4.9039,-4.9074,-4.9545,-4.978,-4.9815,-4.9739,-4.9815,-4.9686,-4.9394,-4.9124,-4.9001,-4.9063,-4.9212,-4.9364,-4.9364,-4.9333,-4.9394,-4.932,-4.9155,-4.9001,-4.9077,-4.9303,-4.9394,-4.9389,-4.8949,-4.9279,-4.9447,-4.9315,-4.912,-4.8466,-4.7609,-4.6589,-4.5943,-4.5343,-4.4895,-4.4732,-4.4995,-4.4923,-4.4896,-4.5133,-4.4998,-4.4988,-4.4961,-4.472,-4.485,-4.4969,-4.5326,-4.5483,-4.5855,-4.6109,-4.6194,-4.6447,-4.6701,-4.6802,-4.6836,-4.6329,-4.6024,-4.5969,-4.6075,-4.6177,-4.6481,-4.6718,-4.6752,-4.6769,-4.6752,-4.6718,-4.6802,-4.6887,-4.7056,-4.7208,-4.7631,-4.8157,-4.8558,-4.8985,-4.9113,-4.8988,-4.8946,-4.8888,-4.8694,-4.8388,-4.7916,-4.7415,-4.7129,-4.6968,-4.6732,-4.6447,-4.6295,-4.6092,-4.572,-4.5382,-4.5213,-4.5094,-4.479,-4.4604,-4.4621,-4.453,-4.4468,-4.4389,-4.437,-4.4205,-4.4123,-4.4399,-4.4757,-4.4767,-4.4823,-4.4929,-4.4967,-4.9585,-4.9107,-4.9032,-4.9346,-4.9861,-4.9722,-4.9998,-5.0497,-4.9423,-4.9593,-5.0324,-5.0096,-5.0056,-5.0011,-4.9942,-4.9803,-4.9466,-4.9168,-4.9001,-4.9032,-4.9526,-4.9744,-4.9774,-4.9948,-4.9959,-4.9774,-4.9615,-4.9479,-4.9406,-4.9656,-4.9942,-4.9988,-5.0139,-5.0223,-5.0122,-4.9964,-4.97,-4.9373,-4.8386,-4.7409,-4.684,-4.6071,-4.5216,-4.4964,-4.4986,-4.4995,-4.5128,-4.5147,-4.5086,-4.5397,-4.5422,-4.4995,-4.5386,-4.5682,-4.6133,-4.6498,-4.6718,-4.6853,-4.6955,-4.7175,-4.7208,-4.7175,-4.6972,-4.7107,-4.7107,-4.6836,-4.687,-4.6989,-4.7276,-4.7513,-4.7581,-4.7581,-4.7564,-4.7564,-4.7614,-4.7733,-4.7902,-4.8124,-4.8536,-4.9011,-4.9411,-4.9753,-4.9562,-4.9389,-4.9166,-4.9431,-4.9287,-4.8965,-4.8672,-4.8143,-4.7969,-4.7763,-4.7634,-4.7378,-4.7005,-4.6786,-4.6464,-4.616,-4.5889,-4.5669,-4.55,-4.5128,-4.466,-4.4739,-4.4845,-4.4567,-4.4423,-4.4503,-4.4732,-4.5023,-4.5283,-4.5407,-4.5559,-4.5794,-4.5846,-4.9803,-4.9644,-4.9199,-4.9364,-4.9803,-4.9424,-4.9538,-4.9999,-4.9333,-4.9389,-4.9988,-4.993,-4.9774,-4.9669,-4.9873,-4.9762,-4.9303,-4.9168,-4.9032,-4.9199,-4.9615,-4.989,-4.9988,-5.0198,-5.0359,-5.048,-5.0342,-5.0079,-5.0096,-5.0304,-5.0452,-5.0415,-5.0442,-5.0265,-5.0237,-4.9953,-4.9734,-4.9769,-4.9068,-4.8426,-4.8123,-4.718,-4.6343,-4.6169,-4.6136,-4.5744,-4.5689,-4.5404,-4.5446,-4.5595,-4.558,-4.5835,-4.6384,-4.6489,-4.6629,-4.6853,-4.7394,-4.7581,-4.775,-4.797,-4.8173,-4.8325,-4.8359,-4.8426,-4.8308,-4.7902,-4.7716,-4.7834,-4.7986,-4.8223,-4.8359,-4.8342,-4.8342,-4.8342,-4.8359,-4.8528,-4.868,-4.9031,-4.938,-4.9723,-5.0107,-5.0085,-4.9873,-4.9686,-4.9526,-4.9346,-4.9182,-4.8981,-4.8978,-4.8689,-4.8737,-4.8609,-4.8621,-4.8376,-4.7902,-4.753,-4.7225,-4.6887,-4.6599,-4.6397,-4.624,-4.5805,-4.5387,-4.5329,-4.5306,-4.511,-4.5114,-4.54,-4.561,-4.5796,-4.597,-4.6125,-4.6542,-4.6857,-4.684,-4.9555,-4.9039,-4.9019,-4.9199,-4.9394,-4.9138,-4.9199,-4.9325,-4.8799,-4.8863,-4.9509,-4.9744,-4.9786,-4.961,-4.9902,-4.9744,-4.9303,-4.9124,-4.9032,-4.9168,-4.9555,-4.9832,-5.0056,-5.0254,-5.0226,-5.0349,-5.0331,-5.0276,-5.0442,-5.0589,-5.0616,-5.0442,-5.017,-5.0181,-5.0153,-4.9867,-4.9622,-4.9792,-4.9344,-4.9223,-4.9097,-4.8049,-4.7041,-4.6902,-4.6651,-4.6391,-4.6317,-4.6027,-4.6085,-4.6145,-4.6189,-4.6599,-4.7081,-4.7276,-4.7496,-4.7817,-4.8173,-4.8392,-4.8511,-4.8714,-4.9018,-4.9018,-4.9001,-4.8798,-4.8798,-4.8426,-4.8392,-4.8494,-4.8545,-4.8731,-4.8731,-4.8731,-4.8731,-4.8731,-4.8731,-4.8815,-4.9033,-4.9334,-4.9368,-4.9295,-4.9656,-4.9815,-4.9598,-4.9364,-4.9229,-4.9199,-4.9032,-4.9094,-4.9077,-4.9316,-4.9346,-4.9303,-4.926,-4.906,-4.8562,-4.8257,-4.8054,-4.7699,-4.7323,-4.7035,-4.6794,-4.646,-4.6164,-4.6089,-4.5984,-4.5849,-4.5935,-4.6135,-4.6343,-4.6495,-4.6686,-4.6891,-4.7338,-4.7636,-4.752,-4.8922,-4.8067,-4.8595,-4.8917,-4.9001,-4.9018,-4.9032,-4.8931,-4.8376,-4.8413,-4.9043,-4.9555,-5.0039,-5.0153,-5.0039,-4.9873,-4.9615,-4.9168,-4.9032,-4.9168,-4.9644,-4.9832,-4.993,-5.0045,-5.0198,-5.0226,-5.0181,-5.0181,-5.0209,-5.0452,-5.0507,-5.0181,-5.0276,-5.0544,-5.0589,-5.0452,-5.0135,-4.9925,-4.9717,-4.9734,-4.9235,-4.8615,-4.7824,-4.7293,-4.6989,-4.6938,-4.6921,-4.692,-4.692,-4.7039,-4.7107,-4.753,-4.7817,-4.8071,-4.8325,-4.8612,-4.8714,-4.8849,-4.8934,-4.8934,-4.9018,-4.9018,-4.9018,-4.9035,-4.9052,-4.9035,-4.9001,-4.912,-4.9171,-4.9052,-4.9052,-4.9035,-4.9035,-4.9018,-4.9018,-4.9018,-4.926,-4.9436,-4.929,-4.9063,-4.9243,-4.9479,-4.9376,-4.9107,-4.9094,-4.9094,-4.9138,-4.9168,-4.9333,-4.9727,-4.9971,-4.9786,-4.9598,-4.9372,-4.9114,-4.8781,-4.8528,-4.8514,-4.812,-4.7734,-4.7429,-4.7213,-4.6989,-4.6802,-4.6696,-4.6589,-4.6602,-4.6717,-4.6924,-4.7178,-4.7301,-4.7421,-4.7651,-4.7917,-4.7918,-4.798,-4.7906,-4.8071,-4.846,-4.8951,-4.9018,-4.9018,-4.9001,-4.8849,-4.89,-4.8981,-4.9046,-4.9273,-4.9346,-4.9243,-4.9229,-4.9273,-4.9032,-4.9032,-4.9124,-4.9526,-4.9774,-4.9902,-4.9959,-5.0442,-5.0442,-5.0359,-5.048,-5.0237,-5.047,-5.0616,-5.0415,-4.9988,-5.0028,-4.9971,-4.9815,-4.9538,-4.9538,-4.9627,-4.9526,-4.9744,-4.9255,-4.8846,-4.8376,-4.8003,-4.7817,-4.7636,-4.7512,-4.7573,-4.781,-4.8156,-4.8443,-4.8578,-4.8663,-4.8832,-4.8883,-4.9018,-4.9018,-4.9018,-4.912,-4.9171,-4.9187,-4.9221,-4.9306,-4.9306,-4.9289,-4.9407,-4.9763,-4.9678,-4.9289,-4.9204,-4.9154,-4.9137,-4.9052,-4.9018,-4.9018,-4.9124,-4.9168,-4.9124,-4.9094,-4.9199,-4.9316,-4.9359,-4.9303,-4.9424,-4.9466,-4.9686,-4.9756,-4.9942,-5.0237,-5.0525,-5.0282,-4.9988,-4.9873,-4.9698,-4.9121,-4.8846,-4.8917,-4.8967,-4.8669,-4.8384,-4.8116,-4.7877,-4.7609,-4.7484,-4.7393,-4.7373,-4.7366,-4.7621,-4.7843,-4.7849,-4.7934,-4.8082,-4.8082,-4.8033]},{"header":{"parameterUnit":"m.s-1","parameterCategory":1,"la1":31.0,"la2":29.5877,"lo1":-88.7671,"lo2":-86.6584,"dy":0.0162,"dx":0.0185,"nx":115,"ny":88,"refTime":"2024-03-13T06:00:00:Z","depth":0,"parameterNumber":3,"parameterNumberName":"V-component_of_WINDS"},"data":[0.0,0.0,0.0,0.0,0.0,0.0,0.0,0.0,0.0,0.0,0.0,0.0,0.0,0.0,0.0,0.0,0.0,0.0,0.0,0.0,0.0,0.0,0.0,0.0,0.0,0.0,0.0,0.0,0.0,0.0,0.0,0.0,0.0,0.0,0.0,0.0,0.0,0.0,0.0,0.0,0.0,0.0,0.0,0.0,0.0,0.0,0.0,0.0,0.0,0.0,0.0,0.0,0.0,0.0,0.0,0.0,0.0,0.0,0.0,0.0,0.0,0.0,0.0,0.0,0.0,0.0,0.0,0.0,0.0,0.0,0.0,0.0,0.0,0.0,0.0,0.0,0.0,0.0,0.0,0.0,0.0,0.0,0.0,0.0,0.0,0.0,0.0,0.0,0.0,0.0,0.0,0.0,0.0,0.0,0.0,0.0,0.0,0.0,0.0,0.0,0.0,0.0,0.0,0.0,0.0,0.0,0.0,0.0,0.0,0.0,0.0,0.0,0.0,0.0,0.0,0.0,0.0,0.0,0.0,0.0,0.0,0.0,0.0,0.0,0.0,0.0,0.0,0.0,0.0,0.0,0.0,0.0,0.0,0.0,0.0,0.0,0.0,0.0,0.0,0.0,0.0,0.0,0.0,0.0,0.0,0.0,0.0,0.0,0.0,0.0,0.0,0.0,0.0,0.0,0.0,0.0,0.0,0.0,0.0,0.0,0.0,0.0,0.0,0.0,0.0,0.0,0.0,0.0,0.0,0.0,0.0,0.0,0.0,0.0,0.0,0.0,0.0,0.0,0.0,0.0,0.0,0.0,0.0,0.0,0.0,0.0,0.0,0.0,0.0,0.0,0.0,0.0,0.0,0.0,0.0,0.0,0.0,0.0,0.0,0.0,0.0,0.0,0.0,0.0,0.0,0.0,0.0,0.0,0.0,0.0,0.0,0.0,0.0,0.0,0.0,0.0,0.0,0.0,0.0,0.0,0.0,0.0,0.0,0.0,0.0,0.0,0.0,0.0,0.0,0.0,0.0,0.0,0.0,0.0,0.0,0.0,0.0,0.0,0.0,0.0,0.0,0.0,0.0,0.0,0.0,0.0,0.0,0.0,0.0,0.0,0.0,0.0,0.0,0.0,0.0,0.0,0.0,0.0,0.0,0.0,0.0,0.0,0.0,0.0,0.0,0.0,0.0,0.0,0.0,0.0,0.0,0.0,0.0,0.0,0.0,0.0,0.0,0.0,0.0,0.0,0.0,0.0,0.0,0.0,0.0,0.0,0.0,0.0,0.0,0.0,0.0,0.0,0.0,0.0,0.0,0.0,0.0,0.0,0.0,0.0,0.0,0.0,0.0,0.0,0.0,0.0,0.0,0.0,0.0,0.0,0.0,0.0,0.0,0.0,0.0,0.0,0.0,0.0,0.0,0.0,0.0,0.0,0.0,0.0,0.0,0.0,0.0,0.0,0.0,0.0,0.0,0.0,0.0,0.0,0.0,0.0,0.0,0.0,0.0,0.0,0.0,0.0,0.0,0.0,0.0,0.0,0.0,0.0,0.0,0.0,0.0,0.0,0.0,0.0,0.0,0.0,0.0,0.0,0.0,0.0,0.0,0.0,0.0,0.0,0.0,0.0,0.0,0.0,0.0,0.0,0.0,0.0,0.0,0.0,0.0,0.0,0.0,0.0,0.0,0.0,0.0,0.0,0.0,0.0,0.0,0.0,0.0,0.0,0.0,0.0,0.0,0.0,0.0,0.0,0.0,0.0,0.0,0.0,0.0,0.0,0.0,0.0,0.0,0.0,0.0,0.0,0.0,0.0,0.0,0.0,0.0,0.0,0.0,0.0,0.0,0.0,0.0,0.0,0.0,0.0,0.0,0.0,0.0,0.0,0.0,0.0,0.0,0.0,0.0,0.0,0.0,0.0,0.0,0.0,0.0,0.0,0.0,0.0,0.0,0.0,0.0,0.0,0.0,0.0,0.0,0.0,0.0,0.0,0.0,0.0,0.0,0.0,0.0,0.0,0.0,0.0,0.0,0.0,0.0,0.0,0.0,0.0,0.0,0.0,0.0,0.0,0.0,0.0,0.0,0.0,0.0,0.0,0.0,0.0,0.0,0.0,0.0,0.0,0.0,0.0,0.0,0.0,0.0,0.0,0.0,0.0,0.0,0.0,0.0,0.0,0.0,0.0,0.0,0.0,0.0,0.0,0.0,0.0,0.0,0.0,0.0,0.0,0.0,0.0,0.0,0.0,0.0,0.0,0.0,0.0,0.0,0.0,0.0,0.0,0.0,0.0,0.0,0.0,0.0,0.0,0.0,0.0,0.0,0.0,0.0,0.0,0.0,0.0,0.0,0.0,0.0,0.0,0.0,0.0,0.0,0.0,0.0,0.0,0.0,0.0,0.0,0.0,0.0,0.0,0.0,0.0,0.0,0.0,0.0,0.0,0.0,0.0,0.0,0.0,0.0,0.0,0.0,0.0,0.0,0.0,0.0,0.0,0.0,0.0,0.0,0.0,0.0,0.0,0.0,0.0,0.0,0.0,0.0,0.0,0.0,0.0,0.0,0.0,0.0,0.0,0.0,0.0,0.0,0.0,0.0,0.0,0.0,0.0,0.0,0.0,0.0,0.0,0.0,0.0,0.0,0.0,0.0,0.0,0.0,0.0,0.0,0.0,0.0,0.0,0.0,0.0,0.0,0.0,0.0,0.0,0.0,0.0,0.0,0.0,0.0,0.0,0.0,0.0,0.0,0.0,0.0,0.0,0.0,0.0,0.0,0.0,0.0,0.0,0.0,0.0,0.0,0.0,0.0,0.0,0.0,0.0,0.0,0.0,0.0,0.0,0.0,0.0,0.0,0.0,0.0,0.0,0.0,0.0,0.0,0.0,0.0,0.0,0.0,0.0,0.0,0.0,0.0,0.0,0.0,0.0,0.0,0.0,0.0,0.0,0.0,0.0,0.0,0.0,0.0,0.0,0.0,0.0,0.0,0.0,0.0,0.0,0.0,0.0,0.0,0.0,0.0,0.0,0.0,0.0,0.0,0.0,0.0,0.0,0.0,0.0,0.0,0.0,0.0,0.0,0.0,0.0,0.0,0.0,0.0,0.0,0.0,0.0,0.0,0.0,0.0,0.0,0.0,0.0,0.0,0.0,0.0,0.0,0.0,0.0,0.0,0.0,0.0,0.0,0.0,0.0,0.0,0.0,0.0,0.0,0.0,0.0,0.0,0.0,0.0,0.0,0.0,0.0,0.0,0.0,0.0,0.0,0.0,0.0,0.0,0.0,0.0,0.0,0.0,0.0,0.0,0.0,0.0,0.0,0.0,0.0,0.0,0.0,0.0,0.0,0.0,0.0,0.0,0.0,0.0,0.0,0.0,0.0,0.0,0.0,0.0,0.0,0.0,0.0,0.0,0.0,0.0,0.0,0.0,0.0,0.0,0.0,0.0,0.0,0.0,0.0,0.0,0.0,0.0,0.0,0.0,0.0,0.0,0.0,0.0,0.0,0.0,0.0,0.0,0.0,0.0,0.0,0.0,0.0,0.0,0.0,0.0,0.0,0.0,0.0,0.0,0.0,0.0,0.0,0.0,0.0,0.0,0.0,0.0,0.0,0.0,0.0,0.0,0.0,0.0,0.0,0.0,0.0,0.0,0.0,0.0,0.0,0.0,0.0,0.0,0.0,0.0,0.0,0.0,0.0,0.0,0.0,0.0,0.0,0.0,0.0,0.0,0.0,0.0,0.0,0.0,0.0,0.0,0.0,0.0,0.0,0.0,0.0,0.0,0.0,0.0,0.0,0.0,0.0,0.0,0.0,0.0,0.0,0.0,0.0,0.0,0.0,0.0,0.0,0.0,0.0,0.0,0.0,0.0,0.0,0.0,0.0,0.0,0.0,0.0,0.0,0.0,0.0,0.0,0.0,0.0,0.0,0.0,0.0,0.0,0.0,0.0,0.0,0.0,0.0,0.0,0.0,0.0,0.0,0.0,0.0,0.0,0.0,0.0,0.0,0.0,0.0,0.0,0.0,0.0,0.0,0.0,0.0,0.0,0.0,0.0,0.0,0.0,0.0,0.0,0.0,0.0,0.0,0.0,0.0,0.0,0.0,0.0,0.0,0.0,0.0,0.0,0.0,0.0,0.0,0.0,0.0,0.0,0.0,0.0,0.0,0.0,0.0,0.0,0.0,0.0,0.0,0.0,0.0,0.0,0.0,0.0,0.0,0.0,0.0,0.0,0.0,0.0,0.0,0.0,0.0,0.0,0.0,0.0,0.0,0.0,0.0,0.5739,0.0,0.0,0.0,0.0,0.0,0.0,0.0,0.0,0.0,0.0,0.0,0.0,0.0,0.0,0.0,0.0,0.0,0.0,0.0,0.0,0.0,0.0,0.0,0.0,0.0,0.0,0.0,0.0,0.0,0.0,0.0,0.0,0.0,0.0,0.0,0.0,0.0,0.0,0.0,0.0,0.0,0.0,0.0,0.0,0.0,0.0,0.0,0.0,0.0,0.0,0.0,0.0,0.0,0.0,0.0,0.0,0.0,0.0,0.0,0.0,0.0,0.0,0.0,0.0,0.0,0.0,0.0,0.0,0.0,0.0,0.0,0.0,0.0,0.0,0.0,0.0,0.0,0.0,0.0,0.0,0.0,0.0,0.0,0.0,0.0,0.0,0.0,0.0,0.0,0.0,0.0,0.0,0.0,0.0,0.0,0.0,0.0,0.0,0.0,0.0,0.0,0.0,0.0,0.0,0.0,0.0,0.0,0.0,0.0,0.0,0.5747,0.598,0.6125,0.6098,0.5926,0.0,0.0,0.0,0.0,0.0,0.0,0.0,0.0,0.0,0.0,0.0,0.0,0.0,0.0,0.0,0.0,0.0,0.0,0.0,0.0,0.0,0.0,0.0,0.0,0.0,0.0,0.0,0.0,0.0,0.0,0.0,0.0,0.0,0.0,0.0,0.0,0.0,0.0,0.0,0.0,0.0,0.0,0.0,0.0,0.0,0.0,0.0,0.0,0.0,0.0,0.0,0.0,0.0,0.0,0.0,0.0,0.0,0.0,0.0,0.0,0.0,0.0,0.0,0.0,0.0,0.0,0.0,0.0,0.0,0.0,0.0,0.0,0.0,0.0,0.0,0.0,0.0,0.0,0.0,0.0,0.0,0.0,0.0,0.0,0.0,0.0,0.0,0.0,0.0,0.0,0.0,0.0,0.0,0.0,0.0,0.0,0.0,0.0,0.0,0.0,0.0,0.0,0.0,0.0,0.0,0.0,0.0,0.0,0.0,0.0,0.0,0.0,0.6512,0.6502,0.6262,0.0,0.0,0.0,0.0,0.0,0.0,0.0,0.0,0.0,0.0,0.0,0.0,0.0,0.0,0.0,0.0,0.0,0.0,0.0,0.0,0.0,0.0,0.0,0.0,0.0,0.0,0.0,0.0,0.0,0.0,0.0,0.0,0.0,0.0,0.0,0.0,0.0,0.0,0.0,0.0,0.0,0.0,0.0,0.0,0.0,0.0,0.0,0.0,0.0,0.0,0.0,0.0,0.0,0.0,0.0,0.0,0.0,0.0,0.0,0.0,0.0,0.0,0.0,0.0,0.0,0.0,0.0,0.0,0.0,0.0,0.0,0.0,0.0,0.0,0.0,0.0,0.0,0.0,0.0,0.0,0.0,0.0,0.0,0.0,0.0,0.0,0.0,0.0,0.0,0.0,0.0,0.0,0.0,0.0,0.0,0.0,0.0,0.0,0.0,0.0,0.0,0.0,0.0,0.0,0.0,0.0,0.0,0.0,0.0,0.0,0.6635,0.6817,0.7523,0.0,0.7355,0.0,0.0,0.0,0.0,0.0,0.0,0.0,0.0,0.0,0.0,0.0,0.0,0.0,0.0,0.0,0.0,0.0,0.0,0.0,0.0,0.0,0.0,0.0,0.0,0.0,0.0,0.0,0.0,0.0,0.0,0.0,0.0,0.0,0.0,0.0,0.0,0.0,0.0,0.0,0.0,0.0,0.0,0.0,0.0,0.0,0.0,0.0,0.0,0.0,0.0,0.0,0.0,0.0,0.0,0.0,0.0,0.0,0.0,0.0,0.0,0.0,0.0,0.0,0.0,0.0,0.0,0.0,0.0,0.0,0.0,0.0,0.0,0.0,0.0,0.0,0.0,0.0,0.0,0.0,0.0,0.0,0.0,0.0,0.0,0.0,0.0,0.0,0.0,0.0,0.0,0.0,0.0,0.0,0.0,0.0,0.0,0.0,0.0,0.0,0.0,0.0,0.0,0.0,0.0,0.0,0.0,0.0,0.0,0.0,0.0,0.6826,0.709,0.7381,0.7405,0.0,0.0,0.0,0.0,0.0,0.0,0.0,0.0,0.0,0.0,0.0,0.0,0.0,0.0,0.0,0.0,0.0,0.0,0.0,0.0,0.0,0.0,0.0,0.0,0.0,0.0,0.0,0.0,0.0,0.0,0.0,0.0,0.0,0.0,0.0,0.0,0.0,0.0,0.0,0.0,0.0,0.0,0.0,0.0,0.0,0.0,0.0,0.0,0.0,0.0,0.0,0.0,0.0,0.0,0.0,0.0,0.0,0.0,0.0,0.0,0.0,0.0,0.0,0.0,0.0,0.0,0.0,0.0,0.0,0.0,0.0,0.0,0.0,0.0,0.0,0.0,0.0,0.0,0.0,0.0,0.0,0.0,0.0,0.0,0.0,0.0,0.0,0.0,0.0,0.0,0.0,0.0,0.0,0.0,0.0,0.0,0.0,0.0,0.0,0.0,0.0,0.0,0.0,0.0,0.0,0.0,0.0,0.0,0.0,0.0,0.6887,0.7092,0.7413,0.7223,0.7031,0.6906,0.0,0.0,0.0,0.0,0.0,0.0,0.0,0.0,0.0,0.0,0.0,0.0,0.0,0.0,0.0,0.0,0.0,0.0,0.0,0.0,0.0,0.0,0.0,0.0,0.0,0.0,0.0,0.0,0.0,0.0,0.0,0.0,0.0,0.0,0.0,0.0,0.0,0.0,0.0,0.0,0.0,0.0,0.0,0.0,0.0,0.0,0.0,0.0,0.0,0.0,0.0,0.0,0.0,0.0,0.0,0.0,0.0,0.0,0.0,0.0,0.0,0.0,0.0,0.0,0.0,0.0,0.0,0.0,0.0,0.0,0.0,0.0,0.0,0.0,0.0,0.0,0.0,0.0,0.0,0.0,0.0,0.0,0.0,0.0,0.0,0.0,0.0,0.0,0.0,0.0,0.0,0.0,0.0,0.0,0.0,0.0,0.0,0.0,0.0,0.0,0.0,0.0,0.0,0.0,0.0,0.0,0.0,0.0,0.7674,0.7365,0.746,0.8011,0.7245,0.6925,0.0,0.0,0.0,0.0,0.0,0.0,0.0,0.0,0.0,0.0,0.0,0.0,0.0,0.0,0.0,0.0,0.0,0.0,0.0,0.0,0.0,0.0,0.0,0.0,0.0,0.0,0.0,0.0,0.0,0.0,0.0,0.0,0.0,0.0,0.0,0.0,0.0,0.0,0.0,0.0,0.0,0.0,0.0,0.0,0.0,0.0,0.0,0.0,0.0,0.0,0.0,0.0,0.0,0.0,0.0,0.0,0.0,0.0,0.0,0.0,0.0,0.0,0.0,0.0,0.0,0.0,0.0,0.0,0.0,0.0,0.0,0.0,0.0,0.0,0.0,0.0,0.0,0.0,0.0,0.0,0.0,0.0,0.0,0.0,0.0,0.0,0.0,0.0,0.0,0.0,0.0,0.0,0.0,0.0,0.0,0.0,0.0,0.0,0.0,0.0,0.0,0.0,0.0,0.0,0.0,0.0,0.0,0.0,0.0,0.6771,0.6899,0.7191,0.7674,0.7108,0.692,0.0,0.0,0.0,0.0,0.0,0.0,0.0,0.0,0.0,0.0,0.0,0.0,0.0,0.0,0.0,0.0,0.0,0.0,0.0,0.0,0.0,0.0,0.0,0.0,0.0,0.0,0.0,0.0,0.0,0.0,0.0,0.0,0.0,0.0,0.0,0.0,0.0,0.0,0.0,0.0,0.0,0.0,0.0,0.0,0.0,0.0,0.0,0.0,0.0,0.0,0.0,0.0,0.0,0.0,0.0,0.0,0.0,0.0,0.0,0.0,0.0,0.0,0.0,0.0,0.0,0.0,0.0,0.0,0.0,0.0,0.0,0.0,0.0,0.0,0.0,0.0,0.0,0.0,0.0,0.0,0.0,0.0,0.0,0.0,0.0,0.0,0.0,0.0,0.0,0.0,0.0,0.0,0.0,0.0,0.0,0.0,0.0,0.0,0.0,0.0,0.0,0.0,0.0,0.0,0.0,0.0,0.0,0.0,0.0,0.6535,0.0,0.7291,0.737,0.7,0.6826,0.0,0.0,0.0,0.0,0.0,0.0,0.0,0.0,0.0,0.0,0.0,0.0,0.0,0.0,0.0,0.0,0.0,0.0,0.0,0.0,0.0,0.0,0.0,0.0,0.0,0.0,0.0,0.0,0.0,0.0,0.0,0.0,0.0,0.0,0.0,0.0,0.0,0.0,0.0,0.0,0.0,0.0,0.0,0.0,0.0,0.0,0.0,0.0,0.0,0.0,0.0,0.0,0.0,0.0,0.0,0.0,0.0,0.0,0.0,0.0,0.0,0.0,0.0,0.0,0.0,0.0,0.0,0.0,0.0,0.0,0.0,0.0,0.0,0.0,0.0,0.0,0.0,0.0,0.0,0.0,0.0,0.0,0.0,0.0,0.0,0.0,0.0,0.0,0.0,0.0,0.0,0.0,0.0,0.0,0.0,0.0,0.0,0.0,0.0,0.0,0.0,0.0,0.0,0.0,0.0,0.0,0.0,0.0,0.6539,0.7152,0.7745,0.7759,0.7218,0.693,0.6609,0.0,0.0,0.0,0.0,0.0,0.0,0.0,0.0,0.0,0.0,0.0,0.0,0.0,0.0,0.0,0.0,0.0,0.0,0.0,0.0,0.0,0.0,0.0,0.0,0.0,0.0,0.0,0.0,0.0,0.0,0.0,0.0,0.0,0.0,0.0,0.0,0.0,0.0,0.0,0.0,0.0,0.0,0.0,0.0,0.0,0.0,0.0,0.0,0.0,0.0,0.0,0.0,0.0,0.0,0.0,0.0,0.0,0.0,0.0,0.0,0.0,0.0,0.0,0.0,0.0,0.0,0.0,0.0,0.0,0.0,0.0,0.0,0.0,0.0,0.0,0.0,0.0,0.0,0.0,0.0,0.0,0.0,0.0,0.0,0.0,0.0,0.0,0.0,0.0,0.0,0.0,0.0,0.0,0.0,0.0,0.0,0.0,0.0,0.0,0.0,0.0,0.0,0.0,0.0,0.0,0.0,0.0,0.0,0.0,0.6544,0.7157,0.7455,0.7416,0.6889,0.6771,0.0,0.0,0.0,0.0,0.0,0.0,0.0,0.0,0.0,0.0,0.0,0.0,0.0,0.0,0.0,0.0,0.0,0.0,0.0,0.0,0.0,0.0,0.0,0.0,0.0,0.0,0.0,0.0,0.0,0.0,0.0,0.0,0.0,0.0,0.0,0.0,0.0,0.0,0.0,0.0,0.0,0.0,0.0,0.0,0.0,0.0,0.0,0.0,0.0,0.0,0.0,0.0,0.0,0.0,0.0,0.0,0.0,0.0,0.0,0.0,0.0,0.0,0.0,0.0,0.0,0.0,0.0,0.0,0.0,0.0,0.0,0.0,0.0,0.0,0.0,0.0,0.0,0.0,0.0,0.0,0.0,0.0,0.0,0.0,0.0,0.0,0.0,0.0,0.0,0.0,0.0,0.0,0.0,0.0,0.0,0.0,0.0,0.0,0.0,0.0,0.0,0.0,0.0,0.0,0.0,0.0,0.0,0.0,0.0,0.6861,0.7414,0.7679,0.7493,0.7158,0.7026,0.7092,0.0,0.0,0.0,0.0,0.0,0.0,0.0,0.0,0.0,0.0,0.0,0.0,0.0,0.0,0.0,0.0,0.0,0.0,0.0,0.0,0.0,0.0,0.0,0.0,0.0,0.0,0.0,0.0,0.0,0.0,0.0,0.0,0.0,0.0,0.0,0.0,0.0,0.0,0.0,0.0,0.0,0.0,0.0,0.0,0.0,0.0,0.0,0.0,0.0,0.0,0.0,0.0,0.0,0.0,0.0,0.0,0.0,0.0,0.0,0.0,0.0,0.0,0.0,0.0,0.0,0.0,0.0,0.0,0.0,0.0,0.0,0.0,0.0,0.0,0.0,0.0,0.0,0.0,0.0,0.0,0.0,0.0,0.0,0.0,0.0,0.0,0.0,0.0,0.0,0.0,0.0,0.0,0.0,0.0,0.0,0.0,0.0,0.0,0.0,0.0,0.0,0.0,0.0,0.0,0.0,0.0,0.0,0.0,0.7986,0.8633,0.8534,0.7603,0.7735,0.7423,0.0,0.0,0.0,0.0,0.0,0.0,0.0,0.0,0.0,0.0,0.0,0.0,0.0,0.0,0.0,0.0,0.0,0.0,0.0,0.0,0.0,0.0,0.0,0.0,0.0,0.0,0.0,0.0,0.0,0.0,0.0,0.0,0.0,0.0,0.0,0.0,0.0,0.0,0.0,0.0,0.0,0.0,0.0,0.0,0.0,0.0,0.0,0.0,0.0,0.0,0.0,0.0,0.0,0.0,0.0,0.0,0.0,0.0,0.0,0.0,0.0,0.0,0.0,0.0,0.0,0.0,0.0,0.0,0.0,0.0,0.0,0.0,0.0,0.0,0.0,0.0,0.0,0.0,0.0,0.0,0.0,0.0,0.0,0.0,0.0,0.0,0.0,0.0,0.0,0.0,0.0,0.0,0.0,0.0,0.0,0.0,0.0,0.0,0.0,0.0,0.0,0.0,0.0,0.0,0.0,0.0,0.0,0.0,0.0,1.016,1.1415,1.0913,0.8489,0.8172,0.7864,0.0,0.0,0.0,0.0,0.0,0.0,0.0,0.0,0.0,0.0,0.0,0.0,0.0,0.0,0.0,0.0,0.0,0.0,0.0,0.0,0.0,0.0,0.0,0.0,0.0,0.0,0.0,0.0,0.0,0.0,0.0,0.0,0.0,0.0,0.0,0.0,0.0,0.0,0.0,0.0,0.0,0.0,0.0,0.0,0.0,0.0,0.0,0.0,0.0,0.0,0.0,0.0,0.0,0.0,0.0,0.0,0.0,0.0,0.0,0.0,0.0,0.0,0.0,0.0,0.0,0.0,0.0,0.0,0.0,0.0,0.0,0.0,0.0,0.0,0.0,0.0,0.0,0.0,0.0,0.0,0.0,0.0,0.0,0.0,0.0,0.0,0.0,0.0,0.0,0.0,0.0,0.0,0.0,0.0,0.0,0.0,0.0,0.0,0.0,0.0,0.0,0.0,0.0,0.0,0.0,0.0,0.0,0.0,1.0605,1.1784,1.3139,1.2839,1.081,1.0507,0.9718,0.0,0.0,0.0,0.0,0.0,0.0,0.0,0.0,0.0,0.0,0.0,0.0,0.0,0.0,0.0,0.0,0.0,0.0,0.0,0.0,0.0,0.0,0.0,0.0,0.0,0.0,0.0,0.0,0.0,0.0,0.0,0.0,0.0,0.0,0.0,0.0,0.0,0.0,0.0,0.0,0.0,0.0,0.0,0.0,0.0,0.0,0.0,0.0,0.0,0.0,0.0,0.0,0.0,0.0,0.0,0.0,0.0,0.0,0.0,0.0,0.0,0.0,0.0,0.0,0.0,0.0,0.0,0.0,0.0,0.0,0.0,0.0,0.0,0.0,0.0,0.0,0.0,0.0,0.0,0.0,0.0,0.0,0.0,0.0,0.0,0.0,0.0,0.0,0.0,0.0,0.0,0.0,0.0,0.0,0.0,0.0,0.0,0.0,0.0,0.0,0.0,0.0,0.0,0.0,0.0,0.0,0.0,0.0,1.164,1.3148,1.4308,1.4622,1.3979,1.3642,1.2176,0.0,0.0,0.0,0.0,0.0,0.0,0.0,0.0,0.0,0.0,0.0,0.0,0.0,0.0,0.0,0.0,0.0,0.0,0.0,0.0,0.0,0.0,0.0,0.0,0.0,0.0,0.0,0.0,0.0,0.0,0.0,0.0,0.0,0.0,0.0,0.0,0.0,0.0,0.0,0.0,0.0,0.0,0.0,0.0,0.0,0.0,0.0,0.0,0.0,0.0,0.0,0.0,0.0,0.0,0.0,0.0,0.0,0.0,0.0,0.0,0.0,0.0,0.0,0.0,0.0,0.0,0.0,0.0,0.0,0.0,0.0,0.0,0.0,0.0,0.0,0.0,0.0,0.0,0.0,0.0,0.0,0.0,0.0,0.0,0.0,0.0,0.0,0.0,0.0,0.0,0.0,0.0,0.0,0.0,0.0,0.0,0.0,0.0,0.0,0.0,0.0,0.0,0.0,0.0,0.0,0.0,0.0,0.0,1.3567,1.4831,1.6359,1.6826,1.6203,1.4486,1.2441,0.0,0.0,0.0,0.0,0.0,0.0,0.0,0.0,0.0,0.0,0.0,0.0,0.0,0.0,0.0,0.0,0.0,0.0,0.0,0.0,0.0,0.0,0.0,0.0,0.0,0.0,0.0,0.0,0.0,0.0,0.0,0.0,0.0,0.0,0.0,0.0,0.0,0.0,0.0,0.0,0.0,0.0,0.0,0.0,0.0,0.0,0.0,0.0,1.1866,0.0,0.0,0.0,0.0,0.0,0.0,0.0,0.0,0.0,0.0,0.0,0.0,0.0,0.0,0.0,0.0,0.0,0.0,0.0,0.0,0.0,0.0,0.0,0.0,0.0,0.0,0.0,0.0,0.0,0.0,0.0,0.0,0.0,0.0,0.0,0.0,0.0,0.0,0.0,0.0,0.0,0.0,0.0,0.0,0.0,0.0,0.0,0.0,0.0,0.0,0.0,0.0,0.0,0.0,0.0,0.0,0.0,0.0,0.0,1.4705,1.6227,1.7353,1.7804,1.7445,1.6221,1.4283,0.0,0.0,0.0,0.0,0.0,0.0,0.0,0.0,0.0,0.0,0.0,0.0,0.0,0.0,0.0,0.0,0.0,0.0,0.0,0.0,0.0,0.0,0.0,0.0,0.0,0.0,0.0,0.0,0.0,0.0,0.0,0.0,0.0,0.0,0.0,0.0,0.0,0.0,0.0,0.0,0.0,0.0,0.0,0.0,0.0,0.0,0.0,0.0,0.0,0.0,0.0,0.0,0.0,0.0,0.0,0.0,0.0,0.0,0.0,0.0,0.0,0.0,0.0,0.0,0.0,0.0,0.0,0.0,0.0,0.0,0.0,0.0,0.0,0.0,0.0,0.0,0.0,0.0,0.0,0.0,0.0,0.0,0.0,0.0,0.0,0.0,0.0,0.0,0.0,0.0,0.0,0.0,0.0,0.0,0.0,0.0,0.0,0.0,0.0,0.0,0.0,0.0,0.0,0.0,0.0,0.0,0.0,1.377,1.5333,1.7071,1.7757,1.807,1.8003,1.7848,1.624,1.3105,0.0,0.0,0.0,0.0,0.0,0.0,0.0,0.0,0.0,0.0,0.0,0.0,0.0,0.0,0.0,0.0,0.0,0.0,0.0,0.0,0.0,0.0,0.0,0.0,0.0,0.0,0.0,0.0,0.0,0.0,0.0,0.0,0.0,0.0,0.0,0.0,0.0,0.0,1.1638,1.2607,0.0,0.0,0.0,0.0,0.0,0.0,0.0,0.0,1.2242,0.0,0.0,0.0,0.0,0.0,0.0,0.0,0.0,0.0,0.0,0.0,0.0,0.0,0.0,0.0,0.0,0.0,0.0,0.0,0.0,0.0,0.0,0.0,0.0,0.0,0.0,0.0,0.0,0.0,0.0,0.0,0.0,0.0,0.0,0.0,0.0,0.0,0.0,0.0,0.0,0.0,0.0,0.0,0.0,0.0,0.0,0.0,0.0,0.0,0.0,0.0,0.0,0.0,0.0,0.0,0.0,1.3252,1.4276,1.5482,1.6854,1.7731,1.8012,1.769,1.7643,1.6483,1.4138,0.0,0.0,0.0,0.0,0.0,0.0,0.0,0.0,0.0,0.0,0.0,0.0,0.0,0.0,0.0,0.0,0.0,0.0,0.0,0.0,0.0,0.0,0.0,0.0,0.0,0.0,0.0,0.0,0.0,0.0,0.0,0.0,0.0,0.0,0.0,0.0,0.0,0.0,0.0,1.3473,1.3942,0.0,0.0,0.0,0.0,0.0,0.0,0.0,0.0,1.19,0.0,0.0,0.0,0.0,0.0,0.0,0.0,0.0,0.0,0.0,0.0,0.0,0.0,0.0,0.0,0.0,0.0,0.0,0.0,0.0,0.0,0.0,0.0,0.0,0.0,0.0,0.0,0.0,0.0,0.0,0.0,0.0,0.0,0.0,0.0,0.0,0.0,0.0,0.0,0.0,0.0,0.0,0.0,0.0,0.0,0.0,0.0,0.0,0.0,0.0,0.0,0.0,0.0,0.0,0.0,1.3472,1.5016,1.6212,1.7072,1.756,1.7742,1.7715,1.7157,1.6116,0.0,0.0,0.0,0.0,0.0,0.0,0.0,0.0,0.0,0.0,0.0,0.0,0.0,0.0,0.0,0.0,0.0,0.0,0.0,0.0,0.0,0.0,0.0,0.0,0.0,0.0,0.0,0.0,0.0,0.0,0.0,0.0,0.0,0.0,0.0,0.0,0.0,0.0,0.0,0.0,1.4202,1.4962,1.471,0.0,0.0,0.0,0.0,0.0,0.0,1.2977,1.2811,0.0,0.0,0.0,0.0,0.0,0.0,0.0,0.0,0.0,0.0,0.0,0.0,0.0,0.0,0.0,0.0,0.0,0.0,0.0,0.0,0.0,0.0,0.0,0.0,0.0,0.0,0.0,0.0,0.0,0.0,0.0,0.0,0.0,0.0,0.0,0.0,0.0,0.0,0.0,0.0,0.0,0.0,0.0,0.0,0.0,0.0,0.0,0.0,0.0,0.0,0.0,0.0,0.0,0.0,0.0,1.3537,1.5431,1.6668,1.7262,1.7347,1.7486,1.766,1.6794,1.5764,0.0,0.0,0.0,0.0,0.0,0.0,0.0,0.0,0.0,0.0,0.0,0.0,0.0,0.0,0.0,0.0,0.0,0.0,0.0,0.0,0.0,0.0,0.0,0.0,0.0,0.0,0.0,0.0,0.0,0.0,0.0,0.0,0.0,0.0,0.0,0.0,0.0,0.0,0.0,0.0,0.0,1.6123,1.5566,1.5421,0.0,0.0,0.0,0.0,1.4422,1.4577,0.0,0.0,0.0,0.0,0.0,0.0,0.0,0.0,0.0,0.0,0.0,0.0,0.0,0.0,0.0,0.0,0.0,0.0,0.0,0.0,0.0,0.0,0.0,0.0,0.0,0.0,0.0,0.0,0.0,0.0,0.0,0.0,0.0,0.0,0.0,0.0,0.0,0.0,0.0,0.0,0.0,0.0,0.0,0.0,0.0,0.0,0.0,0.0,0.0,0.0,0.0,0.0,0.0,0.0,0.0,0.0,1.3596,1.5004,1.6126,1.6904,1.7223,1.7384,1.7342,1.6905,1.6008,0.0,0.0,0.0,0.0,0.0,0.0,0.0,0.0,0.0,0.0,0.0,0.0,0.0,0.0,0.0,0.0,0.0,0.0,0.0,0.0,0.0,0.0,0.0,0.0,0.0,0.0,0.0,0.0,0.0,0.0,0.0,0.0,0.0,0.0,0.0,0.0,0.0,0.0,0.0,0.0,0.0,1.7433,1.6569,1.6711,1.7026,0.0,0.0,1.655,1.7128,1.7637,0.0,0.0,0.0,0.0,0.0,0.0,0.0,0.0,0.0,0.0,0.0,0.0,0.0,0.0,0.0,0.0,0.0,0.0,0.0,0.0,0.0,0.0,0.0,0.0,0.0,0.0,0.0,0.0,0.0,0.0,0.0,0.0,0.0,0.0,0.0,0.0,0.0,0.0,0.0,0.0,0.0,0.0,0.0,0.0,0.0,0.0,0.0,0.0,0.0,0.0,0.0,0.0,0.0,0.0,0.0,1.3068,1.389,1.5428,1.6406,1.6786,1.6944,1.6994,1.6935,1.6008,1.5128,0.0,0.0,0.0,0.0,0.0,0.0,0.0,0.0,0.0,0.0,0.0,0.0,0.0,0.0,0.0,0.0,0.0,0.0,0.0,0.0,0.0,0.0,0.0,0.0,0.0,0.0,0.0,0.0,0.0,0.0,0.0,0.0,0.0,0.0,0.0,0.0,0.0,0.0,0.0,0.0,0.0,0.0,1.7858,1.844,0.0,0.0,0.0,1.8517,1.8034,0.0,0.0,0.0,0.0,0.0,0.0,0.0,0.0,0.0,0.0,0.0,0.0,0.0,0.0,0.0,0.0,0.0,0.0,0.0,0.0,0.0,0.0,0.0,0.0,0.0,0.0,0.0,0.0,0.0,0.0,0.0,0.0,0.0,0.0,0.0,0.0,0.0,0.0,0.0,0.0,0.0,0.0,0.0,0.0,0.0,0.0,0.0,0.0,0.0,0.0,0.0,0.0,0.0,0.0,0.0,0.0,0.0,1.426,1.5762,1.661,1.6689,1.6689,1.6657,1.6539,1.5374,0.0,0.0,0.0,0.0,0.0,0.0,0.0,0.0,0.0,0.0,0.0,0.0,0.0,0.0,0.0,0.0,0.0,0.0,0.0,0.0,0.0,0.0,0.0,0.0,0.0,0.0,0.0,1.0496,0.0,0.0,0.0,0.0,0.0,0.0,0.0,0.0,0.0,0.0,0.0,0.0,0.0,0.0,1.9479,1.9271,2.0122,2.0649,0.0,0.0,2.042,1.9448,2.0157,1.9979,0.0,0.0,0.0,0.0,0.0,0.0,0.0,0.0,0.0,0.0,0.0,0.0,0.0,0.0,0.0,0.0,0.0,0.0,0.0,0.0,0.0,0.0,0.0,0.0,0.0,0.0,0.0,0.0,0.0,0.0,0.0,0.0,0.0,0.0,0.0,0.0,0.0,0.0,0.0,0.0,0.0,0.0,0.0,0.0,0.0,0.0,0.0,0.0,0.0,0.0,0.0,0.0,0.0,0.0,0.0,1.4565,1.5682,1.6404,1.6681,1.6689,1.6539,1.6246,1.5531,1.4665,0.0,0.0,0.0,0.0,0.0,0.0,0.0,0.0,0.0,0.0,0.0,0.0,0.0,0.0,0.0,0.0,0.0,0.0,0.0,0.0,0.0,0.0,0.0,0.0,0.0,0.0,0.0,0.0,0.0,0.0,0.0,0.0,0.0,0.0,0.0,0.0,0.0,0.0,0.0,0.0,0.0,2.0777,2.0763,2.1655,2.2463,0.0,0.0,2.2319,2.2189,2.2989,2.2594,1.9588,0.0,0.0,0.0,0.0,0.0,0.0,0.0,0.0,0.0,0.0,0.0,0.0,0.0,0.0,0.0,0.0,0.0,0.0,0.0,0.0,0.0,0.0,0.0,0.0,0.0,0.0,0.0,0.0,0.0,0.0,0.0,0.0,0.0,0.0,0.0,0.0,0.0,0.0,0.0,0.0,0.0,0.0,0.0,0.0,0.0,0.0,0.0,0.0,0.0,0.0,0.0,0.0,0.0,1.3541,1.4597,1.5635,1.6373,1.6673,1.6689,1.6523,1.6214,1.5324,1.4554,0.0,0.0,0.0,0.0,0.0,0.0,0.0,0.0,0.0,0.0,0.0,0.0,0.0,0.0,0.0,0.0,0.0,0.0,0.0,0.0,0.0,0.0,0.0,0.0,0.0,0.0,0.0,0.0,1.1819,1.2191,1.2111,0.0,0.0,0.0,0.0,0.0,0.0,0.0,0.0,0.0,0.0,2.1025,2.1384,2.2296,0.0,0.0,2.308,2.3049,2.2201,2.2762,2.2503,2.0021,1.9222,0.0,0.0,0.0,0.0,0.0,0.0,0.0,0.0,0.0,0.0,0.0,0.0,0.0,0.0,0.0,0.0,0.0,0.0,0.0,0.0,0.0,0.0,0.0,0.0,0.0,0.0,0.0,0.0,0.0,0.0,0.0,0.0,0.0,0.0,0.0,0.0,0.0,0.0,0.0,0.0,0.0,0.0,0.0,0.0,0.0,0.0,0.0,0.0,0.0,0.0,0.0,0.0,1.3621,1.4974,1.5943,1.6778,1.7472,1.748,1.7144,1.6478,1.5593,1.477,0.0,0.0,0.0,0.0,0.0,0.0,0.0,0.0,0.0,0.0,0.0,0.0,0.0,0.0,0.0,0.0,0.0,0.0,0.0,0.0,0.0,0.0,0.0,0.0,0.0,0.0,0.0,0.0,1.252,1.2907,1.2844,0.0,0.0,0.0,0.0,0.0,0.0,0.0,0.0,0.0,0.0,2.1203,2.1932,2.2573,2.2915,2.2729,2.3132,2.3122,2.2159,2.2603,2.2394,2.0407,0.0,0.0,0.0,0.0,0.0,0.0,0.0,0.0,0.0,0.0,0.0,0.0,0.0,0.0,0.0,0.0,0.0,0.0,0.0,0.0,0.0,0.0,0.0,0.0,0.0,0.0,0.0,1.129,0.0,0.0,1.1459,0.0,0.0,0.0,0.0,0.0,0.0,0.0,0.0,0.0,0.0,0.0,0.0,0.0,0.0,0.0,0.0,0.0,0.0,0.0,0.0,0.0,0.0,1.3704,1.5834,1.6598,1.7723,1.9149,1.9225,1.8509,1.7066,1.6544,1.5497,1.3665,0.0,0.0,0.0,0.0,0.0,0.0,0.0,0.0,0.0,0.0,0.0,0.0,0.0,0.0,0.0,0.0,0.0,0.0,0.0,0.0,0.0,0.0,0.0,0.0,0.0,0.0,1.2589,1.2682,1.2988,0.0,0.0,0.0,0.0,0.0,0.0,0.0,0.0,0.0,0.0,1.9955,2.1445,2.2325,2.2501,2.2697,2.3101,2.2811,2.2522,2.248,2.2882,2.2631,0.0,0.0,0.0,0.0,0.0,0.0,0.0,0.0,0.0,0.0,0.0,0.0,0.0,0.0,0.0,0.0,0.0,0.0,0.0,0.0,0.0,0.0,0.0,0.0,0.0,0.0,0.0,1.218,1.2148,0.0,0.0,0.0,0.0,0.0,0.0,0.0,0.0,0.0,0.0,0.0,1.5256,1.5721,0.0,0.0,0.0,0.0,0.0,0.0,0.0,0.0,0.0,0.0,0.0,0.0,1.4279,1.6161,1.722,1.8239,1.9268,1.9295,1.8939,1.8199,1.7016,1.5431,1.3331,0.0,0.0,0.0,0.0,0.0,0.0,0.0,0.0,0.0,0.0,0.0,0.0,0.0,0.0,0.0,0.0,0.0,0.0,0.0,0.0,0.0,0.0,0.0,0.0,0.0,1.4674,0.0,0.0,0.0,0.0,0.0,0.0,0.0,0.0,0.0,0.0,0.0,1.7915,1.9181,2.0617,2.1683,2.1994,2.2573,2.3018,0.0,0.0,0.0,0.0,0.0,0.0,0.0,0.0,0.0,0.0,0.0,0.0,0.0,0.0,2.3197,2.0022,1.8892,1.8921,2.0535,0.0,0.0,0.0,0.0,0.0,0.0,0.0,0.0,0.0,0.0,0.0,0.0,0.0,0.0,1.3354,0.0,1.2957,0.0,0.0,0.0,0.0,0.0,0.0,0.0,0.0,1.55,1.6508,1.7474,1.7695,1.7834,0.0,1.7305,1.6007,0.0,0.0,0.0,0.0,0.0,0.0,0.0,0.0,1.5522,1.7189,1.823,1.9222,2.0129,2.0168,1.9793,1.8977,1.7424,1.5904,1.447,1.5097,1.5131,0.0,0.0,0.0,0.0,0.0,0.0,0.0,0.0,0.0,0.0,0.0,0.0,0.0,0.0,0.0,0.0,0.0,0.0,0.0,0.0,0.0,0.0,0.0,1.5762,0.0,0.0,0.0,0.0,0.0,0.0,0.0,0.0,0.0,1.7234,1.806,1.9054,2.0089,2.1145,2.1859,2.2025,0.0,0.0,0.0,0.0,0.0,0.0,0.0,2.2616,2.2353,2.2286,2.2349,2.2524,2.355,2.442,2.4609,0.0,0.0,2.2482,2.1453,2.1452,2.286,2.2713,2.2663,2.3908,2.3682,2.3479,0.0,0.0,0.0,0.0,0.0,0.0,0.0,0.0,1.4796,1.5009,0.0,1.456,0.0,0.0,0.0,0.0,0.0,1.5436,0.0,0.0,1.8654,1.9334,1.9182,1.8669,1.8633,1.9019,1.8443,1.7776,1.7044,1.552,0.0,0.0,0.0,0.0,0.0,0.0,1.7282,1.8764,1.961,2.0609,2.1711,2.1769,2.0978,1.935,1.7791,1.6934,1.6897,1.6869,1.6573,1.5882,1.5154,0.0,0.0,0.0,0.0,0.0,0.0,0.0,0.0,0.0,0.0,0.0,0.0,0.0,0.0,0.0,0.0,0.0,0.0,0.0,0.0,1.5778,0.0,0.0,0.0,0.0,0.0,0.0,0.0,0.0,0.0,0.0,1.7926,1.93,2.055,2.1041,0.0,0.0,0.0,0.0,2.2532,2.2563,2.2925,2.3215,2.3205,2.3587,2.3681,2.3267,0.0,0.0,2.3594,2.4305,2.485,2.4347,2.501,2.5594,2.6501,2.6076,2.5737,2.584,2.5945,2.6393,2.6821,2.6855,2.7215,1.839,0.0,0.0,0.0,0.0,1.737,1.7728,1.8472,1.8024,1.7807,1.7794,1.7,0.0,0.0,0.0,0.0,0.0,0.0,1.7897,1.8928,1.9613,2.0523,2.1605,2.1644,2.1971,2.2443,2.1292,2.0241,1.928,1.8654,1.6975,1.445,0.0,0.0,0.0,0.0,1.791,1.9121,2.0209,2.1107,2.1787,2.1807,2.1015,1.934,1.886,1.809,1.6959,1.7413,1.7343,1.6634,1.6374,0.0,0.0,0.0,0.0,0.0,0.0,0.0,0.0,0.0,0.0,0.0,0.0,0.0,0.0,0.0,0.0,0.0,0.0,0.0,1.6718,1.6787,1.6781,0.0,0.0,0.0,0.0,0.0,0.0,0.0,0.0,0.0,2.0027,2.0271,2.056,0.0,0.0,2.1849,2.1994,2.2563,2.3101,2.3443,2.3639,0.0,2.3681,2.3515,2.3453,2.3691,2.4333,2.5203,2.6486,2.6897,2.7146,2.7318,2.8244,2.9069,2.9205,2.7723,2.6565,2.6494,2.7166,2.7934,2.8386,2.8652,2.8915,2.1736,1.9997,1.9392,1.9274,1.9479,1.9237,1.9559,2.0287,1.9876,1.9755,1.9737,1.901,1.8546,1.8313,1.7631,0.0,0.0,0.0,1.9791,2.1044,2.1423,2.2237,2.3323,2.3195,2.3365,2.3815,2.2645,2.1716,2.111,2.0966,1.9864,1.7909,0.0,0.0,1.7305,1.8407,1.9339,2.0005,2.0923,2.1528,2.1797,2.1621,2.0944,1.9795,1.9595,1.8953,1.7828,1.8206,1.824,1.7789,1.748,1.7009,0.0,0.0,0.0,0.0,0.0,0.0,0.0,0.0,0.0,0.0,0.0,1.2895,1.2551,0.0,0.0,0.0,1.5595,1.6638,1.7749,1.7678,0.0,0.0,0.0,0.0,0.0,0.0,0.0,1.9468,1.9768,2.0182,2.1,2.1031,2.1145,2.1611,2.1901,2.2149,2.2335,0.0,2.4108,2.4384,2.4864,2.5189,2.5189,2.4941,2.4854,2.5135,2.5968,2.6911,2.8022,2.8578,2.8821,2.8868,2.9635,3.026,2.9852,2.9148,2.8584,2.8302,2.8772,2.9492,3.013,3.0393,3.0639,2.4674,2.4415,2.1716,2.057,2.0542,2.057,2.0726,2.0932,2.0983,2.1146,2.1416,2.0675,2.0333,2.023,1.9316,0.0,2.0516,2.0952,2.1917,2.3308,2.3732,2.4146,2.4444,2.3627,2.3481,2.3929,2.2998,2.2517,2.2596,2.2563,2.2315,2.1838,2.101,2.0262,1.9751,2.0674,2.1191,2.1228,2.1642,2.1849,2.1807,2.1393,2.0928,2.0405,2.0027,1.9616,1.9129,1.9098,1.9098,1.9065,1.8452,1.7773,1.711,0.0,0.0,0.0,0.0,0.0,0.0,0.0,0.0,0.0,0.0,0.0,0.0,0.0,0.0,0.0,1.6819,0.0,1.835,1.8476,0.0,0.0,0.0,1.8538,1.8569,1.9326,1.9986,2.0395,0.0,0.0,2.1176,2.1538,2.1952,2.2455,2.2509,2.2716,2.3284,2.4403,2.5212,2.5318,2.6325,2.7046,2.6889,2.6919,2.696,2.7167,2.8031,2.8497,2.883,2.9487,2.9693,2.9122,2.9693,3.0214,2.9257,3.0674,3.1701,3.0693,3.0615,3.0906,3.1676,3.1913,3.2204,2.6126,2.5998,2.4984,2.4338,2.4031,2.4398,2.4355,2.4109,2.4109,2.3978,2.3662,2.2827,2.2251,2.1928,2.2028,2.2411,2.3022,2.3125,2.3557,2.4166,2.429,2.4404,2.4497,2.4272,2.4221,2.4321,2.3812,2.3545,2.3536,2.3194,2.2791,2.2335,2.2118,2.1738,2.1288,2.1852,2.217,2.2159,2.2283,2.2159,2.1807,2.1704,2.1248,2.0405,2.0327,1.9893,1.9139,1.9098,1.9098,1.9108,1.8931,1.8762,1.858,1.7304,0.0,0.0,0.0,0.0,0.0,0.0,0.0,0.0,0.0,1.5088,1.3865,0.0,1.7226,0.0,1.8687,1.9406,1.8485,1.9046,0.0,0.0,1.9191,1.9596,1.9903,2.0131,2.0441,2.086,2.1052,2.1248,2.16,2.1735,2.2067,2.2751,2.2661,2.3047,2.4463,2.4973,2.5536,2.6418,2.6902,2.7098,2.718,2.7098,2.7522,2.8614,2.8402,2.8387,2.9503,2.9849,3.0059,3.0307,3.1098,3.1675,3.1879,3.1933,3.1707,3.178,3.198,3.2095,3.215,3.2289,3.2554,2.6915,2.6905,2.6646,2.6237,2.5823,2.5865,2.574,2.5523,2.5513,2.5378,2.5088,2.4395,2.395,2.3681,2.3764,2.3929,2.4167,2.4167,2.4259,2.4497,2.4507,2.4507,2.4507,2.4507,2.4507,2.4487,2.4291,2.4178,2.4157,2.3919,2.366,2.3401,2.3401,2.3236,2.2968,2.247,2.218,2.218,2.219,2.2056,2.1818,2.1807,2.1362,2.0426,2.0374,1.9996,1.9139,1.9098,1.9015,1.8808,1.8797,1.8671,1.8485,1.7667,1.7297,0.0,0.0,0.0,0.0,0.0,0.0,0.0,0.0,0.0,0.0,0.0,1.8814,1.8661,1.9693,2.0027,1.9119,1.9644,1.9944,1.9696,1.9903,2.0224,2.0679,2.0731,2.0917,2.1362,2.1424,2.1518,2.1766,2.2101,2.2552,2.3237,2.3411,2.3875,2.4837,2.5498,2.6191,2.6862,2.7502,2.8,2.8255,2.8303,2.857,2.93,2.9274,2.9335,3.0118,3.0499,3.0619,3.055,3.1213,3.1772,3.1734,3.1668,3.1588,3.176,3.1744,3.1735,3.1842,3.2189,3.2436,2.7351,2.732,2.732,2.7071,2.6667,2.6273,2.6034,2.593,2.593,2.5813,2.5678,2.5261,2.5106,2.5075,2.4683,2.4507,2.4507,2.4507,2.4507,2.4507,2.4507,2.4507,2.4507,2.4507,2.4507,2.4507,2.4507,2.4507,2.4507,2.4507,2.4466,2.4414,2.4404,2.4383,2.4259,2.278,2.1983,2.1983,2.1983,2.1932,2.1807,2.1807,2.1362,2.0447,2.0374,1.9996,1.915,1.9098,1.8922,1.8538,1.8497,1.833,1.8009,1.7915,1.8247,0.0,1.814,0.0,0.0,0.0,0.0,0.0,0.0,0.0,0.0,1.9634,2.0286,1.999,2.0338,2.0389,1.9927,2.0296,2.054,2.0478,2.0529,2.0762,2.1145,2.116,2.1362,2.1766,2.1807,2.1807,2.1807,2.2392,2.3015,2.346,2.3991,2.4389,2.4806,2.5869,2.6786,2.6938,2.8063,2.8936,2.9487,2.9702,2.9714,2.9816,3.0038,3.0455,3.0415,3.0806,3.0941,3.0345,3.0783,3.1078,3.0276,3.0918,3.1345,3.1311,3.0972,3.0846,3.121,3.1612,3.1989,2.7583,2.732,2.732,2.7258,2.7164,2.7081,2.6615,2.593,2.593,2.5471,2.4755,2.4662,2.4631,2.4621,2.4538,2.4507,2.4507,2.4507,2.4507,2.4507,2.4507,2.4507,2.4507,2.4507,2.4507,2.4507,2.4507,2.4507,2.4507,2.4507,2.4311,2.4012,2.4002,2.3815,2.3453,0.0,0.0,0.0,2.2925,2.2563,2.1838,2.1807,2.1362,2.0426,2.0374,0.0,1.916,1.9098,1.9067,1.8973,1.8973,0.0,0.0,0.0,0.0,0.0,0.0,0.0,0.0,0.0,0.0,0.0,1.9879,1.9455,1.8516,1.9634,2.0545,2.0834,2.1269,2.1207,2.04,2.1052,2.1393,2.1052,2.1311,2.158,2.1662,2.1673,2.1714,2.1787,2.1807,2.1807,2.1807,2.1959,2.2321,2.302,2.3244,2.3594,2.4171,2.5698,2.7002,2.7755,2.8425,2.9088,2.9704,2.9754,2.9779,2.9804,2.9854,2.9942,2.998,3.0018,3.0294,3.0366,3.0651,3.0869,3.1028,3.1304,3.1198,3.0846,3.0683,3.0645,3.0746,3.0846,3.0909,2.7469,0.0,2.732,2.732,0.0,2.732,2.6905,2.6237,2.6511,2.6221,2.5523,2.5034,2.4952,2.5171,2.4693,2.4621,2.4828,2.46,2.4507,2.4507,2.4507,2.4507,2.4507,2.4507,2.4507,2.4507,2.4507,2.4507,2.4507,2.4507,2.4394,2.4209,2.4209,2.4095,2.3857,2.3857,2.3629,2.3194,2.3194,2.2853,2.219,2.2149,2.1714,2.0767,2.0534,0.0,0.0,0.0,0.0,0.0,0.0,0.0,0.0,1.9233,0.0,1.9696,1.952,1.9592,2.0027,2.0058,2.0369,2.1041,2.1311,2.1052,2.0141,2.071,2.1197,2.1435,2.1683,2.1621,2.1186,2.1538,2.1714,2.1507,2.1662,2.1807,2.1807,2.1807,2.1807,2.1807,2.1807,2.1807,2.1797,2.2176,2.2515,2.2964,2.3313,2.3632,2.4118,2.5215,2.6421,2.7526,2.8386,2.8875,2.9001,2.949,2.9654,2.9465,2.9365,2.949,2.9754,2.9553,2.9541,3.0068,3.0206,3.0319,3.052,3.0595,3.052,3.0281,3.0206,3.0206,3.0231,3.0419,3.062,2.7372,2.732,2.732,2.732,2.732,2.732,2.7092,2.675,0.0,0.0,0.0,2.5668,2.5544,2.5813,2.4972,2.4828,2.5148,2.4704,2.4507,2.4507,2.4507,2.4507,2.4507,2.4507,2.4507,2.4507,2.4507,2.4507,2.4507,2.4507,2.4507,2.4507,2.4507,2.4507,2.4507,2.4507,2.4135,2.3463,2.335,2.3049,2.2522,2.2501,2.2056,2.1145,2.0715,2.0338,1.9927,1.951,1.9336,1.9313,1.9336,1.9378,1.9461,1.9427,1.9799,2.0586,2.0669,2.099,2.1745,2.1807,2.1807,2.1807,2.2232,2.2304,2.1849,2.188,2.189,2.1818,2.1807,2.1807,2.1807,2.1807,2.1807,2.1807,2.1807,2.1807,2.1807,2.1807,2.1807,2.1807,2.1807,2.1807,2.1807,2.2327,2.2777,2.2852,2.3165,2.3756,2.3975,2.4575,2.5505,2.6625,2.741,2.7952,2.7891,2.831,2.8896,2.8536,2.85,2.88,2.9239,2.9101,2.9013,2.9352,2.949,2.9478,2.949,2.9603,2.9628,2.9641,2.9729,2.9779,2.9817,3.0143,3.0432,2.7603,2.732,2.732,2.732,2.732,2.732,2.7268,2.7143,2.6438,2.6086,2.6013,2.5889,2.5823,2.5899,2.5357,2.5127,2.5148,2.4704,2.4507,2.4507,2.4507,2.4507,2.4507,2.4507,2.4507,2.4507,2.4507,2.4507,2.4507,2.4507,2.4507,2.4507,2.4507,2.4507,2.4507,2.4507,2.4435,2.4301,2.3971,2.336,2.2532,2.2501,2.2056,2.1166,2.1062,2.0767,2.0312,2.0265,2.0224,2.0234,2.0234,2.041,2.0793,2.0814,2.1062,2.1559,2.1611,2.1673,2.1807,2.1807,2.1807,2.1828,2.2232,2.2304,2.1869,2.217,2.2232,2.1869,2.1828,2.1807,2.1807,2.1807,2.1807,2.1807,2.1807,2.1807,2.1807,2.1807,2.1807,2.1807,2.1807,2.1807,2.1807,2.1921,2.2035,2.2035,2.2279,2.2429,2.3091,2.3804,2.452,2.5133,2.5415,2.5709,2.6094,2.6227,2.6735,2.7134,2.7184,2.7432,2.8139,2.8151,2.8101,2.8287,2.8313,2.8312,2.8312,2.875,2.8825,2.8874,2.9186,2.9549,2.9523,2.9699,2.9813,2.7496,2.732,2.732,2.732,2.732,2.732,2.732,2.7278,2.6864,2.6521,2.6283,2.5989,2.6065,2.6206,2.5792,2.5585,2.5564,2.5119,2.4745,2.4507,2.4507,2.4507,2.4507,2.4507,2.4507,2.4507,2.4507,2.4507,2.4507,2.4507,2.4507,2.4507,2.4507,2.4507,2.4507,2.4507,2.4507,2.4497,2.4301,2.3908,2.3267,2.3246,2.2925,2.2252,2.1776,2.1393,2.1139,2.0664,2.0509,2.0793,2.0803,2.0974,2.1455,2.1487,2.1704,2.2139,2.218,2.2294,2.2542,2.2563,2.2449,2.2232,2.2842,2.3049,2.2584,2.2749,2.2677,2.2232,2.218,2.2066,2.1838,2.1807,2.1807,2.1807,2.1807,2.1807,2.1807,2.1807,2.1807,2.1807,2.1807,2.1807,2.1807,2.1807,2.1807,2.1807,2.1807,2.1949,2.2289,2.2644,2.3246,2.4317,2.4998,2.5209,2.4984,2.5451,2.5791,2.5894,2.5873,2.6141,2.668,2.6683,2.6586,2.6777,2.6863,2.6837,2.6863,2.7018,2.7174,2.7258,2.763,2.7954,2.8026,2.8179,2.8502,2.7517,2.761,2.74,2.7311,2.7253,2.7208,2.7214,2.7214,2.7204,2.7018,2.6703,2.6387,2.6382,2.6708,2.6293,2.6076,2.6013,2.5575,2.514,2.4683,2.4652,2.46,2.4507,2.4507,2.4507,2.4507,2.4507,2.4454,2.4454,2.4411,2.4411,2.4368,2.4325,2.4368,2.4325,2.4411,2.4454,2.4454,2.4497,2.4322,2.3898,2.3877,2.365,2.3174,2.2501,2.2118,2.2076,2.1331,2.1062,2.1393,2.1331,2.1445,2.1787,2.1901,2.2128,2.2459,2.2594,2.2801,2.3143,2.3194,2.3039,2.2708,2.3412,2.3764,2.3412,2.3443,2.3256,2.2749,2.2542,2.2335,2.2045,2.1859,2.1807,2.1807,2.1807,2.1807,2.1807,2.1807,2.1807,2.1807,2.1807,2.1807,2.1807,2.1807,2.1807,2.1807,2.1807,2.1807,2.1807,2.1807,2.2354,2.3286,2.436,2.4419,2.3779,2.4206,2.4634,2.4513,2.4554,2.484,2.5197,2.5084,2.4989,2.5379,2.5446,2.5449,2.5431,2.5596,2.5692,2.5838,2.6198,2.6475,2.6688,2.6903,2.7267,2.81,2.8351,2.7744,2.7335,2.7107,2.6957,2.6948,2.6948,2.6948,2.7061,2.7158,2.7195,2.7127,2.7175,2.6713,2.6506,2.6444,2.603,2.5575,2.5148,2.5127,2.49,2.4475,2.4497,2.4507,2.4497,2.4497,2.4368,2.4196,2.4206,2.412,2.3884,2.3841,2.3884,2.3884,2.411,2.4196,2.4239,2.4421,2.4322,2.3919,2.3877,2.366,2.3205,2.3111,2.306,2.3018,2.2584,2.2325,2.2335,2.1963,2.1766,2.1849,2.2201,2.2459,2.2532,2.2904,2.3143,2.3194,2.3194,2.3194,2.3174,2.3639,2.3877,2.3836,2.4167,2.3991,2.3308,2.277,2.2542,2.2408,2.2087,2.1869,2.1818,2.1869,2.1807,2.1849,2.1807,2.1807,2.1807,2.189,2.1818,2.1859,2.1828,2.1807,2.1807,2.1807,2.1807,2.1807,2.1807,2.1807,2.2063,2.2199,2.2275,2.2197,2.2056,2.2718,2.3121,2.32,2.3501,2.3954,2.4178,2.421,2.4092,2.42,2.4198,2.434,2.465,2.4969,2.4801,2.518,2.5904,2.6306,2.6417,2.66,2.7944,2.8066,2.749,2.7048,2.6748,2.6673,2.6651,2.6651,2.6651,2.6747,2.6832,2.6832,2.6928,2.7071,2.7018,2.6697,2.6139,2.6105,2.5599,2.4822,2.4781,2.4537,2.414,2.4057,2.41,2.41,2.411,2.4057,2.397,2.398,2.3937,2.3797,2.3797,2.3797,2.3797,2.3927,2.398,2.397,2.4057,2.4008,2.3909,2.4016,2.3976,2.3781,2.3525,2.3464,2.3557,2.3153,2.2904,2.2894,2.2718,2.2625,2.2625,2.2801,2.3029,2.3298,2.3743,2.3877,2.3619,2.3836,2.3877,2.3619,2.4012,2.4228,2.4271,2.4404,2.4321,2.4022,2.3588,2.3122,2.2615,2.2563,2.2408,2.2014,2.2273,2.2511,2.2242,2.2459,2.2635,2.2615,2.2387,2.2221,2.217,2.1973,2.1828,2.1807,2.1807,2.1807,2.1807,2.1807,2.1807,2.1807,2.1807,2.1807,2.1807,2.1807,2.1997,2.2187,2.23,2.2505,2.2681,2.2734,2.2718,2.2782,2.2857,2.2857,2.2724,2.2901,2.3134,2.3308,2.3557,2.4122,2.5092,2.5133,2.5233,2.8076,2.8086,2.7573,2.6981,2.6483,2.6402,2.64,2.64,2.64,2.64,2.6496,2.6496,2.6544,2.6688,2.6986,2.6639,2.6081,2.6202,2.576,2.4907,2.4756,2.4464,2.3998,2.3837,2.3868,2.3948,2.3858,2.3807,2.3711,2.3624,2.3624,2.3624,2.3624,2.3624,2.3624,2.3667,2.3711,2.3711,2.3754,2.3754,2.3754,2.3894,2.4034,2.4046,2.3762,2.3664,2.3833,2.3443,2.3207,2.3207,2.3094,2.3022,2.3062,2.3216,2.3536,2.4022,2.4311,2.4363,2.4084,2.4321,2.4363,2.4136,2.4332,2.4507,2.4507,2.4507,2.4507,2.4456,2.425,2.3712,2.308,2.306,2.2863,2.2325,2.2822,2.3029,2.276,2.3008,2.3163,2.3153,2.2863,2.2687,2.2625,2.2315,2.2035,2.2025,2.1901,2.1807,2.1807,2.1807,2.1807,2.1807,2.1807,2.1807,2.1807,2.1807,2.1807,2.1807,2.1845,2.1883,2.1807,2.1807,2.1807,2.2241,2.1921,2.1845,2.2101,2.197,2.1904,2.1869,2.2167,2.2847,2.3991,2.3867,2.4147,2.8699,2.8858,2.8085,2.7242,2.6378,2.6221,2.613,2.618,2.613,2.6255,2.6478,2.6448,2.6352,2.6149,2.6448,2.6534,2.6456,2.6436,2.6164,2.5625,2.5273,2.4917,2.443,2.4008,2.4028,2.4285,2.3974,2.3697,2.3513,2.3266,2.3135,2.3135,2.3178,2.3144,2.3178,2.3416,2.3503,2.3493,2.3667,2.3711,2.3537,2.3493,2.3634,2.3797,2.3767,2.378,2.375,2.344,2.3209,2.3209,2.2846,2.2686,2.2869,2.3267,2.378,2.4341,2.4476,2.4487,2.4456,2.4433,2.4433,2.4456,2.4423,2.4507,2.4454,2.4454,2.4411,2.4497,2.4413,2.4165,2.3784,2.3464,2.3246,2.307,2.3143,2.3236,2.3163,2.3246,2.3205,2.3246,2.3215,2.3132,2.3122,2.276,2.2511,2.2397,2.2118,2.189,2.1942,2.189,2.1859,2.1849,2.1838,2.1807,2.1807,2.1807,2.1807,2.1807,2.1807,2.1807,2.1807,2.1807,2.1807,2.1807,2.1807,2.1807,2.1807,2.1807,2.1818,2.1828,2.1828,2.2428,2.3546,2.3339,2.3722,2.8305,2.8177,2.787,2.7383,2.6787,2.6712,2.6693,2.6624,2.6399,2.634,2.634,2.6103,2.5927,2.5878,2.5927,2.5975,2.5975,2.6159,2.591,2.5372,2.5194,2.4888,2.4473,2.425,2.4137,2.4038,2.39,2.3629,2.3251,2.3135,2.3101,2.3101,2.3101,2.3101,2.3135,2.3188,2.3232,2.3276,2.3319,2.3309,2.3276,2.3232,2.3276,2.3353,2.3537,2.3667,2.3797,2.3647,2.3566,2.3556,2.3396,2.3368,2.342,2.3594,2.3788,2.4036,2.4057,2.4057,2.4057,2.4067,2.4057,2.4057,2.4057,2.4057,2.4067,2.4057,2.4057,2.4057,2.4067,2.3965,2.3949,2.3925,2.3774,2.337,2.3701,2.3867,2.3764,2.3867,2.4053,2.4012,2.3836,2.3536,2.3277,2.3039,2.2946,2.2925,2.2791,2.2677,2.2625,2.2449,2.2242,2.2201,2.2004,2.1807,2.1807,2.1807,2.1807,2.1807,2.1807,2.1807,2.1807,2.1807,2.1807,2.1807,2.1807,2.1807,2.1807,2.1807,2.1807,2.1807,2.1807,2.2294,2.3412,2.3298,2.3805,2.8047,2.7757,2.7728,2.7412,2.7031,2.7012,2.7012,2.6982,2.6719,2.6514,2.6348,2.6064,2.583,2.5703,2.5684,2.5684,2.5732,2.5868,2.5711,2.5283,2.5137,2.4902,2.4648,2.4482,2.4355,2.4228,2.4199,2.3916,2.3398,2.335,2.3237,2.311,2.3101,2.3101,2.3101,2.3101,2.3101,2.3101,2.3101,2.3101,2.3101,2.3101,2.3101,2.3135,2.3276,2.345,2.358,2.358,2.358,2.358,2.358,2.3624,2.3721,2.3744,2.3797,2.3797,2.3797,2.3797,2.3797,2.3797,2.3797,2.3797,2.3797,2.3797,2.3797,2.3797,2.3797,2.3797,2.3797,2.3797,2.3841,2.41,2.4026,2.3545,2.3924,2.4159,2.3946,2.4098,2.4188,2.4157,2.4006,2.3698,2.3474,2.3299,2.3217,2.3207,2.3084,2.2991,2.293,2.2785,2.2589,2.2548,2.2286,2.2128,2.2025,2.1973,2.1869,2.1838,2.1807,2.1807,2.1807,2.1807,2.1807,2.1807,2.1807,2.1807,2.1807,2.1807,2.1807,2.1807,2.188,2.219,2.2884,2.3339,2.3877,2.8057,2.7787,2.7728,2.748,2.7158,2.709,2.7041,2.7109,2.7012,2.6758,2.6475,2.6367,2.6094,2.5752,2.5684,2.5684,2.5684,2.5732,2.5713,2.5635,2.5293,2.5174,2.5049,2.4727,2.4697,2.4969,2.5018,2.4541,2.3769,2.3672,2.3486,2.3149,2.3101,2.3101,2.3101,2.3101,2.3101,2.3101,2.3101,2.3101,2.3101,2.3101,2.3101,2.3101,2.3144,2.3144,2.3135,2.3135,2.3178,2.3135,2.3144,2.3222,2.345,2.3624,2.3764,2.3754,2.3754,2.3797,2.3754,2.3754,2.3711,2.3711,2.3754,2.3711,2.3711,2.3711,2.3711,2.3711,2.3711,2.3754,2.3754,2.3797,2.381,2.381,2.3864,2.3854,2.381,2.382,2.3797,2.3841,2.3823,2.3831,2.373,2.3481,2.3291,2.3262,2.2998,2.2796,2.2889,2.288,2.2819,2.2808,2.2652,2.2522,2.2335,2.2159,2.2004,2.188,2.1838,2.1807,2.1807,2.1807,2.1807,2.1807,2.1807,2.1807,2.1807,2.1807,2.1807,2.1828,2.1932,2.2159,2.278,2.337,2.3784,2.8213,2.8105,2.8096,2.8027,2.7861,2.7598,2.7617,2.7803,2.7295,2.6943,2.6787,2.6514,2.6143,2.581,2.5684,2.5684,2.5684,2.5684,2.5684,2.5664,2.5576,2.5508,2.544,2.5323,2.5225,2.5028,2.4499,2.4072,2.3809,2.3516,2.3208,2.311,2.3101,2.3101,2.3101,2.3101,2.3101,2.3101,2.3101,2.3101,2.3101,2.3101,2.3101,2.3101,2.3101,2.3101,2.3101,2.3101,2.3101,2.3101,2.3101,2.3144,2.3232,2.3276,2.3319,2.3309,2.3309,2.3309,2.3309,2.3309,2.3353,2.3309,2.3319,2.3319,2.3309,2.3319,2.3363,2.3319,2.3309,2.3309,2.3309,2.3309,2.344,2.3787,2.3797,2.3797,2.3754,2.3797,2.3797,2.3797,2.3797,2.3797,2.3787,2.3606,2.3609,2.3738,2.3511,2.3378,2.3547,2.3284,2.3277,2.3278,2.3094,2.2937,2.2813,2.2689,2.2573,2.2315,2.2128,2.1973,2.1932,2.1807,2.1807,2.1807,2.1807,2.1807,2.1807,2.1807,2.1807,2.1911,2.2045,2.247,2.3039,2.3453,2.3784,2.7906,2.8237,2.7789,2.7906,2.8262,2.7998,2.8047,2.8174,2.7568,2.7168,2.6953,2.6572,2.6143,2.5752,2.5684,2.5684,2.5684,2.5684,2.5684,2.5684,2.5684,2.5684,2.5684,2.5684,2.5615,2.5254,2.4609,2.418,2.4014,2.374,2.3413,2.3159,2.3257,2.3247,2.312,2.3101,2.3101,2.3101,2.3101,2.3101,2.3101,2.3101,2.3101,2.3101,2.3101,2.3101,2.3101,2.3101,2.3101,2.3101,2.3101,2.3101,2.3101,2.3101,2.3101,2.3101,2.3101,2.3091,2.3101,2.3135,2.3101,2.3101,2.3101,2.3101,2.3101,2.3101,2.3101,2.3101,2.3101,2.3101,2.3091,2.3101,2.3266,2.3484,2.3537,2.3537,2.3537,2.3537,2.3527,2.3537,2.3537,2.3527,2.3527,2.3527,2.357,2.3711,2.3667,2.358,2.3704,2.3599,2.3521,2.3497,2.337,2.3268,2.3268,2.3227,2.3174,2.2842,2.2511,2.2315,2.218,2.1921,2.1807,2.1807,2.1807,2.1807,2.1807,2.1807,2.1818,2.1983,2.2087,2.2356,2.2729,2.3255,2.3598,2.7187,2.8014,2.7079,2.733,2.816,2.8144,2.8125,2.8154,2.7695,2.7285,2.6963,2.6572,2.6143,2.5752,2.5684,2.5684,2.5684,2.5684,2.5684,2.5684,2.5684,2.5684,2.5684,2.5684,2.5654,2.5567,2.5205,2.4785,2.4355,2.4219,2.3929,2.3286,2.3555,2.3584,2.331,2.3149,2.3149,2.3101,2.3101,2.3101,2.3101,2.3101,2.3101,2.3101,2.3101,2.3101,2.3101,2.3101,2.3101,2.3101,2.3101,2.3101,2.3101,2.3101,2.3101,2.3101,2.3101,2.3101,2.3101,2.3101,2.3101,2.3101,2.3101,2.3101,2.3101,2.3101,2.3101,2.3101,2.3101,2.3101,2.3101,2.3101,2.3135,2.3091,2.3188,2.3188,2.3144,2.3144,2.3188,2.3178,2.3101,2.3091,2.3178,2.3178,2.3178,2.3222,2.3232,2.3222,2.3299,2.3424,2.3474,2.3467,2.3463,2.3519,2.3501,2.3607,2.3567,2.3433,2.3062,2.2811,2.2501,2.2201,2.1973,2.1952,2.188,2.1859,2.1807,2.1818,2.1807,2.1869,2.1973,2.2087,2.2501,2.3091,2.3681,2.669,2.7025,2.7574,2.7839,2.7803,2.75,2.7559,2.7705,2.7051,2.6713,2.6814,2.6572,2.6074,2.5713,2.5684,2.5684,2.5635,2.5703,2.5684,2.5684,2.5684,2.5684,2.5684,2.5684,2.5684,2.5625,2.5283,2.4844,2.4368,2.4189,2.3887,2.3643,2.374,2.375,2.3633,2.3584,2.3437,2.314,2.3101,2.3101,2.3101,2.3101,2.3101,2.3101,2.3101,2.3101,2.3101,2.3101,2.3101,2.3101,2.3101,2.3101,2.3101,2.3101,2.3101,2.3101,2.3101,2.3101,2.3101,2.3101,2.3101,2.3101,2.3101,2.3101,2.3101,2.3101,2.3101,2.3101,2.3101,2.3101,2.3101,2.3101,2.3101,2.3101,2.3101,2.3101,2.3101,2.3101,2.3101,2.3101,2.3101,2.3101,2.3101,2.3101,2.3188,2.3276,2.3222,2.3135,2.3266,2.3363,2.346,2.3537,2.3561,2.368,2.3735,2.3898,2.3932,2.3954,2.3742,2.3412,2.3029,2.2615,2.2439,2.2335,2.217,2.2108,2.1932,2.1828,2.1818,2.1911,2.219,2.248,2.2801,2.3298,2.3929,2.6018,2.6527,2.7241,2.7612,2.7604,2.6906,2.6631,2.6451,2.5544,2.5459,2.5844,2.5622,2.5298,2.5088,2.5479,2.5421,2.5137,2.5722,2.5859,2.5684,2.5684,2.5684,2.5684,2.5684,2.5684,2.5635,2.5283,2.4961,2.4707,2.4434,2.4248,2.4082,2.4043,2.3975,2.375,2.3584,2.3408,2.313,2.3101,2.3101,2.3101,2.3101,2.3101,2.3101,2.3101,2.3101,2.3101,2.3101,2.3101,2.3101,2.3101,2.3101,2.3101,2.3101,2.3101,2.3101,2.3101,2.3101,2.3101,2.3101,2.3101,2.3101,2.3101,2.3101,2.3101,2.3101,2.3101,2.3101,2.3101,2.3101,2.3101,2.3101,2.3101,2.3101,2.3101,2.3101,2.3101,2.3101,2.3101,2.3101,2.3101,2.3101,2.3101,2.3101,2.3178,2.3222,2.3188,2.3178,2.3276,2.3319,2.3373,2.3406,2.3537,2.3627,2.378,2.3912,2.4053,2.4106,2.4067,2.3815,2.3422,2.2988,2.2904,2.2739,2.2522,2.2356,2.2273,2.217,2.2139,2.2315,2.2604,2.2718,2.2915,2.3505,2.4094,2.5489,2.6408,2.6463,2.6814,2.7112,2.6206,2.5404,2.4957,2.401,2.3996,2.4725,2.4498,2.4646,2.4353,2.5382,2.5226,2.447,2.568,2.5888,2.5771,2.5684,2.5684,2.5684,2.5684,2.5684,2.5635,2.5303,2.5127,2.501,2.5037,2.4834,2.4531,2.4434,2.4219,2.3916,2.3506,2.3179,2.311,2.3101,2.3101,2.3101,2.3101,2.3101,2.3101,2.3101,2.3101,2.3101,2.3101,2.3101,2.3101,2.3101,2.3101,2.3101,2.3101,2.3101,2.3101,2.3101,2.3101,2.3101,2.3101,2.3101,2.3101,2.3101,2.3101,2.3101,2.3101,2.3101,2.3101,2.3101,2.3101,2.3101,2.3101,2.3101,2.3101,2.3101,2.3101,2.3101,2.3101,2.3101,2.3101,2.3101,2.3101,2.3101,2.3101,2.3101,2.3178,2.3144,2.3144,2.3178,2.3188,2.3188,2.3188,2.3319,2.3493,2.3711,2.3884,2.4079,2.4198,2.4155,2.3965,2.3597,2.334,2.3298,2.3174,2.2936,2.2873,2.2915,2.2801,2.2625,2.2646,2.2884,2.2718,2.2646,2.3567,2.427,2.6064,2.6006,2.6104,2.5857,2.5265,2.423,2.3712,2.3668,2.3847,2.4126,2.4734,2.5151,2.5235,2.5274,2.5538,2.5528,2.5216,2.5664,2.5752,2.5713,2.5684,2.5684,2.5684,2.5684,2.5684,2.5703,2.5654,2.541,2.5166,2.5165,2.5086,2.4949,2.456,2.4375,2.4199,2.375,2.3457,2.3169,2.3101,2.3101,2.3101,2.3101,2.3101,2.3101,2.3101,2.3101,2.3101,2.3101,2.3101,2.3101,2.3101,2.3101,2.3101,2.3101,2.3101,2.3101,2.3101,2.3101,2.3101,2.3101,2.3101,2.3101,2.3101,2.3101,2.3101,2.3101,2.3101,2.3101,2.3101,2.3101,2.3101,2.3101,2.3101,2.3101,2.3101,2.3101,2.3101,2.3101,2.3101,2.3101,2.3101,2.3101,2.3101,2.3101,2.3101,2.3101,2.3101,2.3101,2.3101,2.3101,2.3101,2.3101,2.3188,2.3363,2.3547,2.3721,2.3927,2.4057,2.41,2.4245,2.388,2.3647,2.3649,2.3536,2.339,2.3411,2.3474,2.3246,2.3039,2.3111,2.3153,2.307,2.3205,2.3939,2.4312,2.5352,2.5156,2.5023,2.5025,2.4851,2.3702,2.34,2.3757,2.3453,2.3768,2.4404,2.4841,2.4922,2.5011,2.543,2.5479,2.5177,2.5489,2.581,2.5947,2.582,2.5684,2.5684,2.5684,2.5684,2.5684,2.5674,2.5566,2.5439,2.5352,2.5283,2.5086,2.4639,2.4287,2.4092,2.373,2.3379,2.3149,2.3101,2.3101,2.3101,2.3101,2.3101,2.3101,2.3101,2.3101,2.3101,2.3101,2.3101,2.3101,2.3101,2.3101,2.3101,2.3101,2.3101,2.3101,2.3101,2.3101,2.3101,2.3101,2.3101,2.3101,2.3101,2.3101,2.3101,2.3101,2.3101,2.3101,2.3101,2.3101,2.3101,2.3101,2.3101,2.3101,2.3101,2.3101,2.3101,2.3101,2.3101,2.3101,2.3101,2.3101,2.3101,2.3101,2.3101,2.3101,2.3101,2.3101,2.3101,2.3101,2.3101,2.3101,2.3101,2.3188,2.3363,2.3547,2.3754,2.3841,2.3884,2.4226,2.4357,2.4157,2.4039,2.3917,2.3856,2.395,2.3981,2.3722,2.3494,2.3494,2.3515,2.3536,2.3712,2.4136,2.4332,2.4253,2.4167,2.3858,2.4201,2.4666,2.3555,2.3458,2.405,2.3294,2.3461,2.4048,2.4245,2.4658,2.4609,2.5323,2.5118,2.4864,2.5205,2.5869,2.624,2.5859,2.5791,2.5791,2.5762,2.5684,2.5684,2.5684,2.5654,2.5654,2.5664,2.5508,2.5156,2.4746,2.4404,2.3935,2.3486,2.3218,2.312,2.3101,2.3101,2.3101,2.3101,2.3101,2.3101,2.3101,2.3101,2.3101,2.3101,2.3101,2.3101,2.3101,2.3101,2.3101,2.3101,2.3101,2.3101,2.3101,2.3101,2.3101,2.3101,2.3101,2.3101,2.3101,2.3101,2.3101,2.3101,2.3101,2.3101,2.3101,2.3101,2.3101,2.3101,2.3101,2.3101,2.3101,2.3101,2.3101,2.3101,2.3101,2.3101,2.3101,2.3101,2.3101,2.3101,2.3101,2.3101,2.3101,2.3101,2.3101,2.3101,2.3101,2.3101,2.3101,2.3101,2.3232,2.3319,2.3537,2.358,2.3667,2.4032,2.4395,2.4209,2.4031,2.4366,2.4411,2.4392,2.4311,2.4146,2.3981,2.3908,2.3888,2.3919,2.4084,2.4312,2.4414,2.4089,2.3657,2.3349,2.3168,2.296,2.2705,2.2865,2.2981,2.3705,2.3939,2.4196,2.502,2.5372,2.5479,2.5528,2.5538,2.542,2.5732,2.5976,2.6309,2.6055,2.5918,2.6133,2.5937,2.5732,2.5684,2.5684,2.5684,2.5684,2.5664,2.5586,2.5508,2.5146,2.4697,2.4258,2.3887,2.3461,2.3237,2.3208,2.3227,2.311,2.3101,2.3101,2.3101,2.3101,2.3101,2.3101,2.3101,2.3101,2.3101,2.3101,2.3101,2.3101,2.3101,2.3101,2.3101,2.3101,2.3101,2.3101,2.3101,2.3101,2.3101,2.3101,2.3101,2.3101,2.3101,2.3101,2.3101,2.3101,2.3101,2.3101,2.3101,2.3101,2.3101,2.3101,2.3101,2.3101,2.3101,2.3101,2.3101,2.3101,2.3101,2.3101,2.3101,2.3101,2.3101,2.3101,2.3101,2.3101,2.3101,2.3101,2.3101,2.3101,2.3101,2.3144,2.3144,2.3232,2.3266,2.3373,2.3606,2.3857,2.3854,2.3988,2.4495,2.4617,2.4497,2.4414,2.4373,2.4332,2.424,2.4271,2.4259,2.4363,2.4456,2.4538,2.3179,2.3253,2.2547,2.28,2.3545,2.3423,2.3818,2.4531,2.481,2.4913,2.5069,2.5479,2.5684,2.5684,2.5684,2.5791,2.5976,2.6074,2.6318,2.6562,2.6514,2.6338,2.6426,2.6152,2.5888,2.5752,2.5684,2.5703,2.5684,2.5684,2.5586,2.5371,2.5146,2.4853,2.4482,2.4209,2.3877,2.3594,2.3598,2.351,2.3149,2.3101,2.3101,2.3101,2.3101,2.3101,2.3101,2.3101,2.3101,2.3101,2.3101,2.3101,2.3101,2.3101,2.3101,2.3101,2.3101,2.3101,2.3101,2.3101,2.3101,2.3101,2.3101,2.3101,2.3101,2.3101,2.3101,2.3101,2.3101,2.3101,2.3101,2.3101,2.3101,2.3101,2.3101,2.3101,2.3101,2.3101,2.311,2.312,2.3101,2.3101,2.3101,2.3101,2.3101,2.3101,2.3101,2.3101,2.3101,2.3101,2.3101,2.3101,2.3101,2.3101,2.3101,2.3101,2.3101,2.3135,2.3198,2.3432,2.37,2.3844,2.4341,2.4926,2.4848,2.4528,2.4497,2.4445,2.4487,2.4528,2.4476,2.4466,2.4549,2.4631,2.4735,2.2335,2.304,2.225,2.2997,2.4446,2.4244,2.4885,2.5935,2.5271,2.502,2.5323,2.5079,2.4971,2.5049,2.5153,2.5403,2.5977,2.5865,2.6018,2.6561,2.6503,2.6422,2.6551,2.6465,2.6309,2.5996,2.6084,2.5849,2.5693,2.5684,2.5527,2.54,2.5234,2.498,2.4648,2.457,2.4287,2.415,2.4189,2.3984,2.3413,2.314,2.3101,2.3101,2.3101,2.3101,2.3101,2.3101,2.3101,2.3101,2.3101,2.3101,2.3101,2.3101,2.3101,2.3101,2.3101,2.3101,2.3101,2.3101,2.3101,2.3101,2.3101,2.3101,2.3101,2.3101,2.3101,2.3101,2.3101,2.3101,2.3101,2.3101,2.3101,2.3101,2.3101,2.3101,2.3101,2.312,2.3208,2.3188,2.314,2.313,2.3159,2.3101,2.3101,2.3101,2.3101,2.3101,2.3101,2.3101,2.3101,2.3101,2.3101,2.3101,2.3101,2.3101,2.3101,2.3091,2.3242,2.3422,2.3753,2.4109,2.4604,2.4954,2.4786,2.4507,2.4507,2.4611,2.4745,2.4776,2.4683,2.4766,2.5068,2.5099,2.5065,2.207,2.3023,2.3566,2.3963,2.4121,2.4066,2.4677,2.5351,2.3786,2.3452,2.4245,2.3393,2.3044,2.3206,2.3454,2.402,2.4446,2.4693,2.5097,2.6101,2.6054,2.6393,2.6841,2.6943,2.6699,2.6387,2.6602,2.6377,2.5849,2.5674,2.5732,2.5713,2.5654,2.5459,2.5137,2.5019,2.4766,2.4434,2.4394,2.4199,2.3769,2.3389,2.3169,2.314,2.3101,2.313,2.3149,2.314,2.311,2.314,2.311,2.3101,2.3101,2.3101,2.3101,2.3101,2.3101,2.3101,2.3101,2.3101,2.3101,2.3101,2.3101,2.3101,2.3101,2.3101,2.3101,2.3101,2.3101,2.3101,2.3101,2.312,2.311,2.3179,2.3257,2.3227,2.3208,2.3452,2.35,2.351,2.3539,2.3354,2.3257,2.3169,2.3101,2.3101,2.311,2.3149,2.3159,2.3218,2.3237,2.3266,2.3276,2.3276,2.3286,2.3257,2.3325,2.3266,2.3438,2.3599,2.3983,2.4323,2.4452,2.4689,2.4584,2.4578,2.4619,2.4753,2.5013,2.5034,2.4931,2.5275,2.5689,2.5637,2.5533,2.2282,2.2681,2.2639,2.2833,2.3144,2.3185,2.3452,2.3651,2.2944,2.2785,2.3085,2.2743,2.2492,2.2679,2.3447,2.3952,2.4138,2.4465,2.5281,2.6241,2.6583,2.6984,2.7308,2.7353,2.7158,2.6836,2.655,2.6004,2.5705,2.6089,2.6455,2.6258,2.6152,2.6055,2.546,2.5489,2.5205,2.4844,2.458,2.4473,2.4316,2.3896,2.3461,2.3442,2.3237,2.3257,2.3408,2.3188,2.3257,2.3325,2.331,2.3101,2.3101,2.3101,2.3101,2.3101,2.3101,2.3101,2.3101,2.3101,2.3101,2.3101,2.3101,2.3101,2.3101,2.3101,2.3101,2.3101,2.3101,2.311,2.3188,2.3335,2.3477,2.3545,2.3598,2.374,2.3769,2.3857,2.3984,2.3984,2.3984,2.3867,2.3695,2.3672,2.3691,2.375,2.3695,2.3686,2.3662,2.3574,2.3584,2.3564,2.3564,2.3555,2.3584,2.3594,2.3773,2.3838,2.4146,2.4291,2.4371,2.4616,2.4704,2.4828,2.4917,2.4873,2.4777,2.4833,2.5055,2.5127,2.5189,2.5616,2.5999,2.6206,2.6196,2.1836,2.2064,2.1775,2.1983,2.245,2.2232,2.2291,2.2484,2.1836,2.1836,2.2089,2.2097,2.2384,2.2968,2.3614,2.3844,2.4316,2.4915,2.5721,2.6499,2.7077,2.7342,2.7448,2.7509,2.7274,2.7178,2.6992,2.6512,2.6295,2.6394,2.6708,2.598,2.5077,2.517,2.5223,2.4878,2.4491,2.4746,2.4683,2.4635,2.4457,2.4033,2.3709,2.35,2.3435,2.3496,2.3799,2.3545,2.3535,2.3603,2.335,2.3101,2.3101,2.3101,2.3101,2.3101,2.3101,2.3179,2.3208,2.3208,2.312,2.3101,2.3101,2.3101,2.3101,2.3101,2.3101,2.3101,2.331,2.331,2.3344,2.3701,2.3887,2.4033,2.4114,2.4316,2.4424,2.4365,2.4385,2.4453,2.4482,2.4524,2.4387,2.4277,2.4277,2.4365,2.4346,2.4268,2.4141,2.3994,2.3955,2.3955,2.3945,2.3935,2.3945,2.4004,2.4209,2.4336,2.4638,2.4766,2.4758,2.482,2.4917,2.5028,2.5224,2.534,2.5308,2.5201,2.5161,2.5554,2.5885,2.5978,2.6237,2.6506,2.677,2.013,2.1081,2.2021,2.2375,2.2383,2.1438,2.1582,2.2341,2.0534,2.0483,2.1285,2.1267,2.2732,2.3759,2.3391,2.383,2.5504,2.3941,2.496,2.5672,2.57,2.6576,2.7106,2.7357,2.7128,2.7561,2.7422,2.737,2.7263,2.6753,2.5507,2.3331,2.4157,2.332,2.3341,2.3999,2.4146,2.45,2.4804,2.4602,2.4279,2.3868,2.3707,2.3335,2.3513,2.3935,2.4326,2.3926,2.374,2.3828,2.3354,2.3101,2.3101,2.3101,2.3101,2.3198,2.3208,2.3364,2.3594,2.3437,2.3169,2.312,2.3179,2.3276,2.3325,2.3179,2.313,2.3266,2.3594,2.3721,2.3857,2.4082,2.4346,2.4453,2.458,2.4697,2.4746,2.4668,2.4707,2.4863,2.4961,2.4982,2.504,2.4922,2.4775,2.4844,2.4639,2.4551,2.458,2.4473,2.4404,2.4385,2.4375,2.4375,2.4375,2.4463,2.457,2.4678,2.4879,2.4893,2.4904,2.5007,2.5176,2.5265,2.5454,2.5643,2.5915,2.5961,2.6047,2.6341,2.6553,2.648,2.6635,2.6946,2.7092,2.114,2.0987,2.2038,2.2139,2.1489,2.1081,2.1489,2.2282,2.1633,2.143,2.1962,2.2851,2.344,2.3772,2.4518,2.4418,2.4995,2.5302,2.5763,2.6364,2.6816,2.7353,2.7868,2.7762,2.781,2.7945,2.7822,2.7218,2.6573,2.656,2.5228,2.3978,2.4488,2.5038,2.5026,2.4284,2.4578,2.4835,2.5227,2.5141,2.5015,2.4611,2.4452,2.4314,2.4015,2.4424,2.4648,2.4111,2.4043,2.3935,2.3471,2.3266,2.3188,2.3179,2.3286,2.3496,2.3535,2.376,2.4004,2.3828,2.3662,2.3896,2.389,2.3851,2.3773,2.3896,2.3916,2.4004,2.4043,2.417,2.4228,2.4541,2.4834,2.4893,2.4971,2.5078,2.505,2.4992,2.5078,2.5244,2.5361,2.5401,2.546,2.5537,2.5362,2.5245,2.5049,2.4863,2.4922,2.4932,2.4863,2.4824,2.4814,2.4814,2.4814,2.4873,2.4922,2.5019,2.5127,2.5163,2.5198,2.533,2.5543,2.5597,2.5667,2.5876,2.6182,2.6634,2.6811,2.6734,2.675,2.675,2.6998,2.7289,2.732,2.1785,2.1489,2.2181,2.2089,2.1438,2.1387,2.1785,2.2391,2.2442,2.2821,2.3237,2.4307,2.4783,2.4817,2.5171,2.5969,2.5882,2.6163,2.6653,2.7025,2.7413,2.796,2.8077,2.796,2.7663,2.8024,2.7838,2.7218,2.6759,2.5985,2.5544,2.5618,2.6154,2.6295,2.5198,2.5366,2.5226,2.5226,2.5586,2.543,2.5207,2.513,2.4851,2.4746,2.4589,2.4863,2.498,2.4687,2.4434,2.4326,2.4033,2.3578,2.35,2.352,2.3647,2.3857,2.4023,2.418,2.4375,2.4277,2.4131,2.4268,2.4336,2.4355,2.4424,2.4424,2.4287,2.4309,2.4473,2.4609,2.4639,2.499,2.5244,2.5312,2.54,2.545,2.5469,2.544,2.5489,2.5577,2.5635,2.5606,2.5625,2.5645,2.5615,2.5508,2.5382,2.5312,2.5371,2.5361,2.5293,2.5273,2.5264,2.5264,2.5273,2.5283,2.5293,2.5361,2.5411,2.5499,2.5586,2.5684,2.5664,2.5614,2.5727,2.5988,2.6247,2.6554,2.6746,2.6868,2.6889,2.6978,2.7081,2.732,2.732,2.1674,2.2442,2.2627,2.2627,2.2636,2.2492,2.2534,2.2852,2.2837,2.3533,2.4656,2.4997,2.5937,2.6726,2.648,2.6767,2.7315,2.6987,2.7133,2.7736,2.7466,2.7574,2.7628,2.7628,2.7682,2.8024,2.7969,2.7721,2.7558,2.723,2.6972,2.6875,2.7004,2.6431,2.3692,2.3899,2.4174,2.4362,2.5362,2.5118,2.4837,2.4996,2.4881,2.4774,2.4909,2.5273,2.5352,2.5088,2.4853,2.4785,2.4453,2.418,2.418,2.4199,2.4277,2.4385,2.4404,2.4619,2.5008,2.4619,2.456,2.4609,2.4727,2.4668,2.4521,2.4502,2.46,2.4729,2.4883,2.5039,2.5205,2.54,2.5557,2.5596,2.5654,2.5684,2.5684,2.5684,2.5684,2.5684,2.5693,2.5693,2.5703,2.5713,2.5742,2.5713,2.5684,2.5684,2.5674,2.5625,2.5508,2.5537,2.5518,2.5527,2.5518,2.5577,2.5625,2.5684,2.5684,2.5684,2.5684,2.5684,2.5654,2.5664,2.579,2.6001,2.6186,2.6332,2.6557,2.6808,2.708,2.7237,2.7299,2.732,2.732,2.4083,2.4503,2.5168,2.5324,2.4961,2.3949,2.3949,2.4616,2.4958,2.5383,2.5932,2.6404,2.6962,2.7466,2.7622,2.7708,2.8038,2.813,2.8121,2.813,2.7736,2.796,2.8014,2.796,2.7853,2.8155,2.8105,2.8047,2.8096,2.7871,2.7861,2.7803,2.7428,2.6702,2.5967,2.5777,2.5647,2.5639,2.5722,2.5528,2.5216,2.5344,2.5354,2.5109,2.5344,2.5518,2.5596,2.5207,2.5099,2.4936,2.453,2.4485,2.4456,2.4409,2.46,2.4766,2.4853,2.5059,2.5361,2.5294,2.5303,2.5216,2.5167,2.5148,2.5226,2.5245,2.5255,2.5206,2.5322,2.5459,2.5538,2.5605,2.5645,2.5645,2.5684,2.5684,2.5684,2.5684,2.5684,2.5684,2.5684,2.5898,2.5946,2.6044,2.6063,2.5926,2.5907,2.5674,2.5547,2.5635,2.5625,2.5625,2.5625,2.5654,2.5684,2.5684,2.5684,2.5684,2.5684,2.5684,2.5684,2.5684,2.5674,2.5645,2.5849,2.6004,2.6149,2.6294,2.6496,2.6726,2.7023,2.7214,2.7214,2.7272,2.732,2.5646,2.6008,2.6705,2.6865,2.6452,2.536,2.5347,2.5996,2.6416,2.668,2.6943,2.7441,2.7764,2.792,2.8135,2.8301,2.8301,2.8291,2.8291,2.8301,2.8291,2.8237,2.8291,2.8301,2.8184,2.8301,2.8301,2.8281,2.8242,2.8018,2.8027,2.8027,2.7744,2.7503,2.7121,2.6783,2.6345,2.6297,2.622,2.5957,2.5849,2.5781,2.5664,2.5625,2.5606,2.5528,2.5295,2.5131,2.4938,2.4593,2.4555,2.4552,2.4552,2.4704,2.4925,2.5225,2.5322,2.5459,2.5577,2.5635,2.5567,2.5596,2.5684,2.5684,2.5684,2.5586,2.5606,2.5615,2.5713,2.5713,2.5723,2.5732,2.5762,2.5762,2.5762,2.5762,2.5986,2.6006,2.5995,2.5956,2.5876,2.6039,2.6093,2.6342,2.6391,2.6234,2.6068,2.5757,2.5458,2.5546,2.5605,2.5605,2.5713,2.5742,2.5723,2.5684,2.5684,2.5684,2.5684,2.5684,2.5684,2.5684,2.5684,2.5684,2.5771,2.5917,2.61,2.6294,2.6448,2.6688,2.7034,2.7129,2.7177,2.7225,2.732,2.6055,2.6888,2.7,2.6968,2.6973,2.653,2.6345,2.6295,2.6693,2.7143,2.7522,2.749,2.7795,2.816,2.8237,2.8184,2.8301,2.8301,2.8301,2.8301,2.8301,2.8301,2.8301,2.8301,2.8301,2.8301,2.8301,2.8291,2.8281,2.8203,2.8232,2.8262,2.8057,2.7998,2.7695,2.7266,2.6855,2.6855,2.6533,2.6309,2.6201,2.5879,2.5723,2.5635,2.5479,2.5118,2.4982,2.4983,2.4426,2.4279,2.4583,2.469,2.4875,2.5167,2.5528,2.5674,2.5645,2.5742,2.5791,2.582,2.5898,2.5976,2.5888,2.5781,2.5713,2.5762,2.5898,2.5937,2.5927,2.5879,2.584,2.5879,2.5908,2.5908,2.5908,2.6054,2.6348,2.6425,2.6451,2.6367,2.619,2.6119,2.5867,2.6017,2.6561,2.6574,2.6276,2.5686,2.545,2.5341,2.54,2.5422,2.5562,2.5791,2.581,2.5859,2.5723,2.5742,2.5693,2.5684,2.5684,2.5684,2.5684,2.5684,2.5684,2.582,2.6052,2.6245,2.64,2.6699,2.701,2.7085,2.7095,2.7235,2.732,2.7169,2.667,2.6661,2.6945,2.7428,2.7405,2.6225,2.4654,2.5635,2.6334,2.6436,2.6726,2.7334,2.8174,2.7413,2.7628,2.8014,2.8301,2.8301,2.8237,2.8184,2.8237,2.8237,2.8184,2.8237,2.8237,2.8237,2.8291,2.8291,2.8291,2.8237,2.8271,2.7801,2.7883,2.782,2.7627,2.7334,2.7082,2.6534,2.6483,2.6249,2.5878,2.5713,2.5577,2.5118,2.4854,2.5069,2.4756,2.4402,2.4922,2.5226,2.5372,2.543,2.5538,2.5684,2.5732,2.5918,2.6211,2.625,2.6475,2.6592,2.6493,2.6572,2.6161,2.6005,2.5966,2.6191,2.624,2.6357,2.6396,2.6406,2.6416,2.6416,2.6416,2.6376,2.6562,2.6777,2.6875,2.6849,2.6441,2.6277,2.5943,2.5693,2.6117,2.6617,2.6722,2.6556,2.6032,2.5545,2.5492,2.5383,2.5415,2.5877,2.6219,2.624,2.626,2.5966,2.5791,2.5791,2.5742,2.5684,2.5684,2.5684,2.5732,2.5771,2.5917,2.6052,2.6255,2.6506,2.6744,2.7008,2.7054,2.7119,2.7373,2.7531,2.7457,2.7241,2.7241,2.7261,2.7231,2.7203,2.5898,2.4567,2.6006,2.6437,2.5586,2.6191,2.6626,2.6726,2.6626,2.6907,2.752,2.8077,2.8291,2.8184,2.7843,2.7574,2.7574,2.7628,2.752,2.7691,2.8023,2.8291,2.8121,2.7682,2.752,2.7447,2.6993,2.6756,2.6569,2.6359,2.6393,2.6247,2.6187,2.6292,2.6126,2.5719,2.54,2.5567,2.4941,2.503,2.5079,2.4569,2.4815,2.4873,2.4922,2.543,2.5439,2.5507,2.6103,2.626,2.6475,2.6621,2.667,2.6816,2.6963,2.7021,2.7041,2.6748,2.6572,2.6473,2.6602,2.666,2.6836,2.6973,2.6992,2.7002,2.6992,2.6973,2.7021,2.707,2.7168,2.7256,2.6949,2.6488,2.6159,2.5772,2.5908,2.6391,2.6714,2.6821,2.7131,2.7237,2.656,2.6013,2.5722,2.5568,2.6238,2.6816,2.6728,2.6611,2.6396,2.6201,2.6103,2.6035,2.5859,2.5752,2.5762,2.5839,2.5868,2.6082,2.6267,2.643,2.6643,2.6942,2.7293,2.75,2.767,2.787,2.803,2.7133,2.8067,2.8237,2.7565,2.6581,2.6717,2.6027,2.5177,2.7185,2.6997,2.5434,2.6009,2.6127,2.6173,2.6345,2.669,2.7349,2.796,2.8291,2.8237,2.7241,2.6799,2.6744,2.6418,2.6354,2.6744,2.7079,2.7286,2.7457,2.6961,2.6345,2.63,2.5754,2.559,2.5745,2.6009,2.6218,2.6252,2.6067,2.5942,2.6165,2.5538,2.4742,2.5634,2.5517,2.5263,2.4822,2.4705,2.4735,2.4202,2.4279,2.5263,2.5483,2.5714,2.6501,2.6846,2.6973,2.7051,2.7109,2.7236,2.7256,2.7236,2.7119,2.7197,2.7197,2.7041,2.706,2.7129,2.7295,2.7432,2.7471,2.7471,2.7461,2.7461,2.749,2.7559,2.7656,2.7505,2.6973,2.6472,2.5928,2.5693,2.6145,2.6677,2.7043,2.7049,2.7391,2.7844,2.7608,2.6755,2.6385,2.6068,2.6745,2.7353,2.7139,2.7012,2.6826,2.665,2.6494,2.6367,2.6269,2.6055,2.5849,2.6025,2.6153,2.6318,2.656,2.6806,2.7144,2.7455,2.7817,2.8099,2.8262,2.8476,2.8578,2.669,2.7025,2.7906,2.7574,2.669,2.7466,2.7178,2.6236,2.7628,2.7447,2.63,2.6409,2.6744,2.6898,2.6518,2.6808,2.7682,2.796,2.8237,2.7906,2.7079,2.6527,2.63,2.5854,2.5452,2.5168,2.5443,2.6,2.6009,2.5562,2.5223,2.5342,2.5287,2.568,2.5735,2.6282,2.6653,2.6463,2.6159,2.5952,2.6061,2.6557,2.6487,2.6321,2.5903,2.5683,2.5261,2.4845,2.5256,2.5469,2.5854,2.6197,2.6377,2.6705,2.6853,2.7051,2.7363,2.7471,2.7568,2.7695,2.7812,2.79,2.792,2.7959,2.7891,2.7656,2.7549,2.7617,2.7705,2.7842,2.792,2.791,2.791,2.791,2.792,2.8018,2.8105,2.7529,2.702,2.6508,2.5945,2.6073,2.6518,2.6907,2.7241,2.7565,2.7897,2.8208,2.8135,2.7617,2.7294,2.7083,2.7579,2.793,2.7656,2.7441,2.7266,2.707,2.6904,2.6787,2.6629,2.6445,2.627,2.6369,2.6488,2.6705,2.7041,2.755,2.7881,2.8064,2.8378,2.8683,2.9012,2.9208,2.9198,2.6697,2.7113,2.7946,2.7906,2.752,2.8014,2.7906,2.7482,2.782,2.7786,2.7232,2.6799,2.6681,2.7006,2.6463,2.6799,2.7682,2.8077,2.8237,2.796,2.7187,2.6636,2.6127,2.5744,2.5799,2.5516,2.5507,2.5617,2.5287,2.4948,2.4893,2.5287,2.5908,2.5845,2.5899,2.6445,2.6943,2.6545,2.6306,2.6241,2.6105,2.636,2.6683,2.6334,2.6461,2.6247,2.6138,2.5777,2.6073,2.6441,2.66,2.6904,2.7046,2.7295,2.7422,2.7607,2.7812,2.7939,2.8008,2.8125,2.8301,2.8301,2.8291,2.8174,2.8174,2.7959,2.7939,2.7998,2.8027,2.8135,2.8135,2.8135,2.8135,2.8135,2.8135,2.8184,2.7883,2.7346,2.7365,2.7536,2.6961,2.6626,2.707,2.7574,2.7853,2.7906,2.8237,2.813,2.8121,2.7618,2.7565,2.7682,2.7799,2.8111,2.8037,2.7861,2.7744,2.7539,2.7253,2.7087,2.688,2.6756,2.672,2.6811,2.6952,2.7142,2.7533,2.7995,2.833,2.8492,2.889,2.9301,2.958,2.9766,2.9694,2.6839,2.7682,2.8057,2.8242,2.8291,2.8301,2.8237,2.8179,2.793,2.8022,2.8101,2.7187,2.6118,2.5899,2.6118,2.6518,2.7079,2.796,2.8237,2.796,2.7025,2.6636,2.6409,2.6191,2.5854,2.5799,2.5845,2.5845,2.579,2.5223,2.5113,2.5845,2.5617,2.4994,2.4948,2.5223,2.5891,2.6336,2.6435,2.6653,2.6386,2.6053,2.6646,2.703,2.7129,2.71,2.709,2.6817,2.6817,2.7158,2.7197,2.7441,2.7607,2.7754,2.79,2.8066,2.8125,2.8203,2.8252,2.8252,2.8301,2.8301,2.8301,2.831,2.832,2.831,2.8291,2.8359,2.8389,2.832,2.832,2.831,2.831,2.8301,2.8301,2.8301,2.7799,2.7403,2.7745,2.8184,2.7789,2.7286,2.7511,2.8067,2.813,2.813,2.8014,2.796,2.7628,2.6789,2.6291,2.6681,2.707,2.7438,2.7858,2.8164,2.8018,2.7728,2.7433,2.7282,2.7108,2.7053,2.7129,2.7294,2.7437,2.758,2.7863,2.8279,2.8615,2.8911,2.9271,2.9632,2.9632,2.9797,2.9942,2.6323,2.7728,2.7754,2.7978,2.8262,2.8301,2.8301,2.8291,2.8203,2.8232,2.8208,2.8174,2.7736,2.7565,2.7789,2.7853,2.7736,2.8237,2.8237,2.8077,2.7241,2.6744,2.6463,2.6354,2.5287,2.5287,2.5452,2.5168,2.5735,2.5232,2.4893,2.5342,2.63,2.6182,2.6291,2.6626,2.7178,2.7178,2.7015,2.7241,2.6799,2.6882,2.7777,2.793,2.7715,2.7607,2.7295,2.6201,2.6574,2.7188,2.7803,2.7969,2.8047,2.8096,2.8193,2.8223,2.8301,2.8301,2.8301,2.8359,2.8389,2.8398,2.8418,2.8467,2.8467,2.8457,2.8525,2.873,2.8682,2.8457,2.8408,2.8379,2.8369,2.832,2.8301,2.8301,2.8077,2.796,2.8077,2.813,2.7906,2.7618,2.7501,2.7682,2.7466,2.7349,2.6907,2.6735,2.6345,2.5735,2.5122,2.5689,2.63,2.6518,2.6844,2.8004,2.813,2.7888,2.7563,2.7256,2.7165,2.7361,2.7503,2.7695,2.7831,2.7986,2.8324,2.8601,2.8897,2.9246,2.961,2.988,2.9827,2.9827,2.9942]}]]